[[{"header":{"parameterUnit":"m.s-1","parameterCategory":1,"la1":30.6,"la2":28.766,"lo1":-90.7593,"lo2":-88.6598,"dy":0.0162,"dx":0.0183,"nx":116,"ny":114,"refTime":"2024-06-26T06:00:00:Z","depth":0,"parameterNumber":2,"parameterNumberName":"U-component_of_WINDS"},"data":[0.0,0.0,0.0,0.0,0.0,0.0,0.0,0.0,0.0,0.0,0.0,0.0,0.0,0.0,0.0,0.0,0.0,0.0,0.0,0.0,0.0,0.0,0.0,0.0,0.0,0.0,0.0,0.0,0.0,0.0,0.0,0.0,0.0,0.0,0.0,0.0,0.0,0.0,0.0,0.0,0.0,0.0,0.0,0.0,0.0,0.0,0.0,0.0,0.0,0.0,0.0,0.0,0.0,0.0,0.0,0.0,0.0,0.0,0.0,0.0,0.0,0.0,0.0,0.0,0.0,0.0,0.0,0.0,0.0,0.0,0.0,0.0,0.0,0.0,0.0,0.0,0.0,0.0,0.0,0.0,0.0,0.0,0.0,0.0,0.0,0.0,0.0,0.0,0.0,0.0,0.0,0.0,0.0,0.0,0.0,0.0,0.0,0.0,0.0,0.0,0.0,0.0,0.0,0.0,0.0,0.0,0.0,0.0,0.0,0.0,0.0,0.0,0.0,0.0,0.0,0.0,0.0,0.0,0.0,0.0,0.0,0.0,0.0,0.0,0.0,0.0,0.0,0.0,0.0,0.0,0.0,0.0,0.0,0.0,0.0,0.0,0.0,0.0,0.0,0.0,0.0,0.0,0.0,0.0,0.0,0.0,0.0,0.0,0.0,0.0,0.0,0.0,0.0,0.0,0.0,0.0,0.0,0.0,0.0,0.0,0.0,0.0,0.0,0.0,0.0,0.0,0.0,0.0,0.0,0.0,0.0,0.0,0.0,0.0,0.0,0.0,0.0,0.0,0.0,0.0,0.0,0.0,0.0,0.0,0.0,0.0,0.0,0.0,0.0,0.0,0.0,0.0,0.0,0.0,0.0,0.0,0.0,0.0,0.0,0.0,0.0,0.0,0.0,0.0,0.0,0.0,0.0,0.0,0.0,0.0,0.0,0.0,0.0,0.0,0.0,0.0,0.0,0.0,0.0,0.0,0.0,0.0,0.0,0.0,0.0,0.0,0.0,0.0,0.0,0.0,0.0,0.0,0.0,0.0,0.0,0.0,0.0,0.0,0.0,0.0,0.0,0.0,0.0,0.0,0.0,0.0,0.0,0.0,0.0,0.0,0.0,0.0,0.0,0.0,0.0,0.0,0.0,0.0,0.0,0.0,0.0,0.0,0.0,0.0,0.0,0.0,0.0,0.0,0.0,0.0,0.0,0.0,0.0,0.0,0.0,0.0,0.0,0.0,0.0,0.0,0.0,0.0,0.0,0.0,0.0,0.0,0.0,0.0,0.0,0.0,0.0,0.0,0.0,0.0,0.0,0.0,0.0,0.0,0.0,0.0,0.0,0.0,0.0,0.0,0.0,0.0,0.0,0.0,0.0,0.0,0.0,0.0,0.0,0.0,0.0,0.0,0.0,0.0,0.0,0.0,0.0,0.0,0.0,0.0,0.0,0.0,0.0,0.0,0.0,0.0,0.0,0.0,0.0,0.0,0.0,0.0,0.0,0.0,0.0,0.0,0.0,0.0,0.0,0.0,0.0,0.0,0.0,0.0,0.0,0.0,0.0,0.0,0.0,0.0,0.0,0.0,0.0,0.0,0.0,0.0,0.0,0.0,0.0,0.0,0.0,0.0,0.0,0.0,0.0,0.0,0.0,0.0,0.0,0.0,0.0,0.0,0.0,0.0,0.0,0.0,0.0,0.0,0.0,0.0,0.0,0.0,0.0,0.0,0.0,0.0,0.0,0.0,0.0,0.0,0.0,0.0,0.0,0.0,0.0,0.0,0.0,0.0,0.0,0.0,0.0,0.0,0.0,0.0,0.0,0.0,0.0,0.0,0.0,0.0,0.0,0.0,0.0,0.0,0.0,0.0,0.0,0.0,0.0,0.0,0.0,0.0,0.0,0.0,0.0,0.0,0.0,0.0,0.0,0.0,0.0,0.0,0.0,0.0,0.0,0.0,0.0,0.0,0.0,0.0,0.0,0.0,0.0,0.0,0.0,0.0,0.0,0.0,0.0,0.0,0.0,0.0,0.0,0.0,0.0,0.0,0.0,0.0,0.0,0.0,0.0,0.0,0.0,0.0,0.0,0.0,0.0,0.0,0.0,0.0,0.0,0.0,0.0,0.0,0.0,0.0,0.0,0.0,0.0,0.0,0.0,0.0,0.0,0.0,0.0,0.0,0.0,0.0,0.0,0.0,0.0,0.0,0.0,0.0,0.0,0.0,0.0,0.0,0.0,0.0,0.0,0.0,0.0,0.0,0.0,0.0,0.0,0.0,0.0,0.0,0.0,0.0,0.0,0.0,0.0,0.0,0.0,0.0,0.0,0.0,0.0,0.0,0.0,0.0,0.0,0.0,0.0,0.0,0.0,0.0,0.0,0.0,0.0,0.0,0.0,0.0,0.0,0.0,0.0,0.0,0.0,0.0,0.0,0.0,0.0,0.0,0.0,0.0,0.0,0.0,0.0,0.0,0.0,0.0,0.0,0.0,0.0,0.0,0.0,0.0,0.0,0.0,0.0,0.0,0.0,0.0,0.0,0.0,0.0,0.0,0.0,0.0,0.0,0.0,0.0,0.0,0.0,0.0,0.0,0.0,0.0,0.0,0.0,0.0,0.0,0.0,0.0,0.0,0.0,0.0,0.0,0.0,0.0,0.0,0.0,0.0,0.0,0.0,0.0,0.0,0.0,0.0,0.0,0.0,0.0,0.0,0.0,0.0,0.0,0.0,0.0,0.0,0.0,0.0,0.0,0.0,0.0,0.0,0.0,0.0,0.0,0.0,0.0,0.0,0.0,0.0,0.0,0.0,0.0,0.0,0.0,0.0,0.0,0.0,0.0,0.0,0.0,0.0,0.0,0.0,0.0,0.0,0.0,0.0,0.0,0.0,0.0,0.0,0.0,0.0,0.0,0.0,0.0,0.0,0.0,0.0,0.0,0.0,0.0,0.0,0.0,0.0,0.0,0.0,0.0,0.0,0.0,0.0,0.0,0.0,0.0,0.0,0.0,0.0,0.0,0.0,0.0,0.0,0.0,0.0,0.0,0.0,0.0,0.0,0.0,0.0,0.0,0.0,0.0,0.0,0.0,0.0,0.0,0.0,0.0,0.0,0.0,0.0,0.0,0.0,0.0,0.0,0.0,0.0,0.0,0.0,0.0,0.0,0.0,0.0,0.0,0.0,0.0,0.0,0.0,0.0,0.0,0.0,0.0,0.0,0.0,0.0,0.0,0.0,0.0,0.0,0.0,0.0,0.0,0.0,0.0,0.0,0.0,0.0,0.0,0.0,0.0,0.0,0.0,0.0,0.0,0.0,0.0,0.0,0.0,0.0,0.0,0.0,0.0,0.0,0.0,0.0,0.0,0.0,0.0,0.0,0.0,0.0,0.0,0.0,0.0,0.0,0.0,0.0,0.0,0.0,0.0,0.0,0.0,0.0,0.0,0.0,0.0,0.0,0.0,0.0,0.0,0.0,0.0,0.0,0.0,0.0,0.0,0.0,0.0,0.0,0.0,0.0,0.0,0.0,0.0,0.0,0.0,0.0,0.0,0.0,0.0,0.0,0.0,0.0,0.0,0.0,0.0,0.0,0.0,0.0,0.0,0.0,0.0,0.0,0.0,0.0,0.0,0.0,0.0,0.0,0.0,0.0,0.0,0.0,0.0,0.0,0.0,0.0,0.0,0.0,0.0,0.0,0.0,0.0,0.0,0.0,0.0,0.0,0.0,0.0,0.0,0.0,0.0,0.0,0.0,0.0,0.0,0.0,0.0,0.0,0.0,0.0,0.0,0.0,0.0,0.0,0.0,0.0,0.0,0.0,0.0,0.0,0.0,0.0,0.0,0.0,0.0,0.0,0.0,0.0,0.0,0.0,0.0,0.0,0.0,0.0,0.0,0.0,0.0,0.0,0.0,0.0,0.0,0.0,0.0,0.0,0.0,0.0,0.0,0.0,0.0,0.0,0.0,0.0,0.0,0.0,0.0,0.0,0.0,0.0,0.0,0.0,0.0,0.0,0.0,0.0,0.0,0.0,0.0,0.0,0.0,0.0,0.0,0.0,0.0,0.0,0.0,0.0,0.0,0.0,0.0,0.0,0.0,0.0,0.0,0.0,0.0,0.0,0.0,0.0,0.0,0.0,0.0,0.0,0.0,0.0,0.0,0.0,0.0,0.0,0.0,0.0,0.0,0.0,0.0,0.0,0.0,0.0,0.0,0.0,0.0,0.0,0.0,0.0,0.0,0.0,0.0,0.0,0.0,0.0,0.0,0.0,0.0,0.0,0.0,0.0,0.0,0.0,0.0,0.0,0.0,0.0,0.0,0.0,0.0,0.0,0.0,0.0,0.0,0.0,0.0,0.0,0.0,0.0,0.0,0.0,0.0,0.0,0.0,0.0,0.0,0.0,0.0,0.0,0.0,0.0,0.0,0.0,0.0,0.0,0.0,0.0,0.0,0.0,0.0,0.0,0.0,0.0,0.0,0.0,0.0,0.0,0.0,0.0,0.0,0.0,0.0,0.0,0.0,0.0,0.0,0.0,0.0,0.0,0.0,0.0,0.0,0.0,0.0,0.0,0.0,0.0,0.0,0.0,0.0,0.0,0.0,0.0,0.0,0.0,0.0,0.0,0.0,0.0,0.0,0.0,0.0,0.0,0.0,0.0,0.0,0.0,0.0,0.0,0.0,0.0,0.0,0.0,0.0,0.0,0.0,0.0,0.0,0.0,0.0,0.0,0.0,0.0,0.0,0.0,0.0,0.0,0.0,0.0,0.0,0.0,0.0,0.0,0.0,0.0,0.0,0.0,0.0,0.0,0.0,0.0,0.0,0.0,0.0,0.0,0.0,0.0,0.0,0.0,0.0,0.0,0.0,0.0,0.0,0.0,0.0,0.0,0.0,0.0,0.0,0.0,0.0,0.0,0.0,0.0,0.0,0.0,0.0,0.0,0.0,0.0,0.0,0.0,0.0,0.0,0.0,0.0,0.0,0.0,0.0,0.0,0.0,0.0,0.0,0.0,0.0,0.0,0.0,0.0,0.0,0.0,0.0,0.0,0.0,0.0,0.0,0.0,0.0,0.0,0.0,0.0,0.0,0.0,0.0,0.0,0.0,0.0,0.0,0.0,0.0,0.0,0.0,0.0,0.0,0.0,0.0,0.0,0.0,0.0,0.0,0.0,0.0,0.0,0.0,0.0,0.0,0.0,0.0,0.0,0.0,0.0,0.0,0.0,0.0,0.0,0.0,0.0,0.0,0.0,0.0,0.0,0.0,0.0,0.0,0.0,0.0,0.0,0.0,0.0,0.0,0.0,0.0,0.0,0.0,0.0,0.0,0.0,0.0,0.0,0.0,0.0,0.0,0.0,0.0,0.0,0.0,0.0,0.0,0.0,0.0,0.0,0.0,0.0,0.0,0.0,0.0,0.0,0.0,0.0,0.0,0.0,0.0,0.0,0.0,0.0,0.0,0.0,0.0,0.0,0.0,0.0,0.0,0.0,0.0,0.0,0.0,0.0,0.0,0.0,0.0,0.0,0.0,0.0,0.0,0.0,0.0,0.0,0.0,0.0,0.0,0.0,0.0,0.0,0.0,0.0,0.0,0.0,0.0,0.0,0.0,0.0,0.0,0.0,0.0,0.0,0.0,0.0,0.0,0.0,0.0,0.0,0.0,0.0,0.0,0.0,0.0,0.0,0.0,0.0,0.0,0.0,0.0,0.0,0.0,0.0,0.0,0.0,0.0,0.0,0.0,0.0,0.0,0.0,0.0,0.0,0.0,0.0,0.0,0.0,0.0,0.0,0.0,0.0,0.0,0.0,0.0,0.0,0.0,0.0,0.0,0.0,0.0,0.0,0.0,0.0,0.0,0.0,0.0,0.0,0.0,0.0,0.0,0.0,0.0,0.0,0.0,0.0,0.0,0.0,0.0,0.0,0.0,0.0,0.0,0.0,0.0,0.0,0.0,0.0,0.0,0.0,0.0,0.0,0.0,0.0,0.0,0.0,0.0,0.0,0.0,0.0,0.0,0.0,0.0,0.0,0.0,0.0,0.0,0.0,0.0,0.0,0.0,0.0,0.0,0.0,0.0,0.0,0.0,0.0,0.0,0.0,0.0,0.0,0.0,0.0,-0.1102,0.0,0.0,0.0,0.0,0.0,0.0,0.0,0.0,0.0,0.0,0.0,0.0,0.0,0.0,0.0,0.0,0.0,0.0,0.0,0.0,0.0,0.0,0.0,0.0,-0.2788,-0.2527,-0.2926,-0.2628,-0.2654,-0.3229,0.0,0.0,0.0,0.0,0.0,-0.2871,-0.2921,-0.2693,-0.2123,-0.1707,-0.1487,-0.1395,-0.2186,-0.2584,-0.2761,0.0,0.0,0.0,0.0,0.0,0.0,0.0,0.0,0.0,0.0,0.0,0.0,0.0,0.0,0.0,0.0,0.0,0.0,0.0,0.0,0.0,0.0,0.0,0.0,0.0,0.0,0.0,0.0,0.0,0.0,0.0,0.0,0.0,0.0,0.0,0.0,0.0,0.0,0.0,0.0,0.0,0.0,0.0,0.0,0.0,0.0,0.0,0.0,0.0,0.0,0.0,0.0,0.0,0.0,0.0,0.0,0.0,0.0,0.0,0.0,0.0,0.0,0.0,0.0,0.0,0.0,0.0,0.0,0.0,0.0,0.0,-0.0468,0.0,0.0,0.0,0.0,0.0,0.0,0.0,0.0,0.0,0.0,0.0,0.0,0.0,0.0,0.0,0.0,0.0,0.0,0.0,0.0,0.0,-0.3243,-0.347,-0.2988,-0.2872,-0.3459,-0.2841,-0.2769,-0.3624,-0.3685,0.0,0.0,0.0,-0.3274,-0.2727,-0.2517,-0.2457,-0.2547,-0.1977,-0.1671,-0.1552,-0.181,-0.1894,-0.1856,-0.1845,0.0,0.0,0.0,0.0,0.0,0.0,0.0,0.0,0.0,0.0,0.0,0.0,0.0,0.0,0.0,0.0,0.0,0.0,0.0,0.0,0.0,0.0,0.0,0.0,0.0,0.0,0.0,0.0,0.0,0.0,0.0,0.0,0.0,0.0,0.0,0.0,0.0,0.0,0.0,0.0,0.0,0.0,0.0,0.0,0.0,0.0,0.0,0.0,0.0,0.0,0.0,0.0,0.0,0.0,0.0,0.0,0.0,0.0,0.0,0.0,0.0,0.0,0.0,-0.0,-0.0,-0.0,-0.0,-0.0,-0.0,-0.0,-0.0,-0.0,-0.0,0.0,0.0,0.0,0.0,0.0,0.0,0.0,0.0,0.0,0.0,0.0,0.0,0.0,0.0,0.0,0.0,0.0,0.0,0.0,-0.3511,-0.3439,-0.2958,-0.268,-0.2654,-0.2559,-0.2674,-0.3186,-0.3186,0.0,0.0,-0.3329,-0.2996,-0.2711,-0.2879,-0.2643,-0.1915,-0.2026,-0.2092,-0.2117,-0.2303,0.0,-0.2144,-0.1898,-0.1814,-0.181,0.0,0.0,0.0,0.0,0.0,0.0,0.0,0.0,0.0,0.0,0.0,0.0,0.0,0.0,0.0,0.0,0.0,0.0,0.0,0.0,0.0,0.0,0.0,0.0,0.0,0.0,0.0,0.0,0.0,0.0,0.0,0.0,0.0,0.0,0.0,0.0,0.0,0.0,0.0,0.0,0.0,0.3097,0.0296,0.0,0.0,0.0,0.0,0.0,0.0,0.0,0.0,0.0,0.0,0.0,0.0,0.0,-0.0,-0.0,-0.0,-0.0,-0.0,-0.0,-0.0,-0.0,-0.0,-0.0,-0.0,-0.0,0.0,-0.0,-0.0,0.0,0.0,0.0,0.0,0.0,0.0,0.0,0.0,0.0,0.0,0.0,0.0,0.0,0.0,0.0,0.0,0.0,0.0,0.0,0.0,0.0,-0.2975,-0.3056,-0.3323,-0.3335,-0.3392,-0.3621,-0.3556,-0.3408,-0.3188,-0.2968,-0.2633,-0.2188,-0.2325,-0.2263,-0.2019,-0.2136,-0.2265,-0.2404,0.0,0.0,0.0,-0.2275,-0.2188,-0.219,-0.2162,0.0,0.0,0.0,0.0,0.0,0.0,0.0,0.0,0.0,0.0,0.0,0.0,0.0,0.0,0.0,0.0,0.0,0.0,0.0,0.0,0.0,0.0,0.0,0.0,0.0,0.0,0.0,0.0,0.0,0.0,0.0,0.0,0.0,0.0,0.0,0.0,0.0,0.0,0.0,0.4571,0.4251,0.275,0.1755,0.1274,0.0,0.0,0.0,0.0,0.0,0.0,0.0,0.0,0.0,0.01,-0.0,-0.0,-0.0,-0.0,-0.0,-0.0,-0.0,-0.0,-0.0,-0.0,-0.0,-0.0,-0.0,-0.0,-0.0,-0.0,-0.0,-0.0,0.0,0.0,0.0,0.0,-0.0,-0.0,0.0,0.0,0.0,0.0,0.0,0.0,0.0,0.0,0.0,0.0,0.0,0.0,-0.2883,-0.2994,-0.3244,-0.3699,-0.3883,-0.3955,0.0,0.0,-0.3591,-0.3008,-0.2815,-0.2421,-0.1817,-0.1889,-0.2346,-0.2986,-0.2494,-0.2354,0.0,0.0,0.0,0.0,0.0,0.0,0.0,0.0,0.0,0.0,0.0,0.0,0.0,0.0,0.0,0.0,0.0,0.0,0.0,0.0,0.0,0.0,0.0,0.0,0.0,0.0,0.0,0.0,0.0,0.0,0.0,0.0,0.0,0.0,0.0,0.0,0.0,0.0,0.0,0.0,0.0,0.0,0.0,0.0,0.0,0.0,0.0,0.4368,0.4738,0.4617,0.3521,0.2838,0.0,0.0,0.0,0.0,0.0,0.0,0.1491,0.3084,0.3191,0.1432,0.045,-0.0,-0.0,-0.0,-0.0,-0.0,-0.0,-0.0,-0.0,-0.0,-0.0,-0.0,-0.0,-0.0,-0.0,-0.0,-0.0,-0.0,-0.0,-0.0,-0.0,-0.0,-0.0,-0.0,0.0,0.0,0.0,0.0,0.0,0.0,0.0,0.0,0.0,0.0,0.0,-0.2746,-0.3219,0.0,-0.2967,-0.3128,-0.3527,-0.386,0.0,0.0,-0.3798,-0.3812,-0.3135,-0.2444,-0.1816,-0.2247,-0.3362,0.0,0.0,0.0,0.0,0.0,0.0,0.0,0.0,0.0,0.0,0.0,0.0,0.0,0.0,0.0,0.0,0.0,0.0,0.0,0.0,0.0,0.0,0.0,0.0,0.0,0.0,0.0,0.0,0.0,0.0,0.0,0.0,0.0,0.0,0.0,0.0,0.0,0.0,0.0,0.0,0.0,0.0,0.0,0.0,0.0,0.0,0.0,0.0,0.0,0.0,0.0,0.0,0.4491,0.4589,0.0,0.0,0.0,0.0,0.5027,0.4704,0.4648,0.5113,0.2037,0.1739,0.5038,0.1775,-0.0,-0.0,-0.0,-0.0,-0.0,-0.0,-0.0,-0.0,-0.0,-0.0,-0.0,-0.0,-0.0,-0.0,-0.0,-0.0,-0.0,-0.0,-0.0,-0.0,-0.0,-0.0,-0.0,0.0,0.0,0.0,-0.1239,-0.1308,-0.1446,-0.158,-0.1674,-0.1773,-0.2013,-0.1839,-0.1801,0.0,-0.2858,-0.3218,-0.3261,-0.4042,-0.45,-0.4458,0.0,-0.3889,-0.3765,-0.2733,-0.2174,-0.2244,-0.2586,-0.3001,0.0,0.0,0.0,0.0,0.0,0.0,0.0,0.0,0.0,0.0,0.0,0.0,0.0,0.0,0.0,0.0,0.0,0.0,0.0,0.0,0.0,0.0,0.0,0.0,0.0,0.0,0.0,0.0,0.0,0.0,0.0,0.0,0.0,0.0,0.0,0.0,0.0,0.0,0.0,0.0,0.0,0.0,0.0,0.0,0.0,0.0,0.0,0.0,0.0,0.0,0.0,0.0,0.4697,0.4743,0.0,0.4841,0.4974,0.5126,0.5384,0.5326,0.4797,0.3752,0.3546,0.2981,0.1929,0.0727,-0.0,-0.0,-0.0,-0.0,-0.0,-0.0,-0.0,-0.0,-0.0,-0.0,-0.0,-0.0,-0.0,-0.0,-0.0,-0.0,-0.0,-0.0,-0.0,-0.0,-0.0,-0.0,-0.0,-0.1047,-0.11,0.0,-0.1294,-0.1297,-0.1311,-0.1424,-0.1448,-0.1381,-0.1303,-0.1158,-0.1367,-0.2181,-0.2883,-0.348,-0.3744,-0.4449,-0.476,-0.4532,0.0,-0.4201,-0.4134,-0.2205,-0.1614,-0.2624,-0.2746,-0.2797,0.0,0.0,0.0,0.0,0.0,0.0,0.0,0.0,0.0,0.0,0.0,0.0,0.0,0.0,0.0,-0.1744,0.0,0.0,0.0,0.0,0.0,0.0,0.0,0.0,0.0,0.0,0.0,0.0,0.0,0.0,0.0,0.0,0.0,0.0,0.0,0.0,0.0,0.0,0.0,0.0,0.0,0.0,0.0,0.0,0.0,0.0,0.0,0.0,0.0,0.0,0.0,0.4979,0.4832,0.4902,0.5006,0.49,0.5168,0.5322,0.5551,0.5532,0.5022,0.3639,0.3542,0.2457,0.0123,-0.0,-0.0,-0.0,-0.0,-0.0,-0.0,-0.0,-0.0,-0.0,-0.0,-0.0,-0.0,-0.0,-0.0,-0.0,-0.0,-0.0,-0.0,-0.0,-0.0,-0.0,-0.0,-0.0,-0.0,-0.1113,-0.1163,-0.1228,-0.1295,-0.136,-0.139,-0.1394,-0.154,-0.1363,-0.0806,-0.0968,-0.1628,-0.2968,-0.317,-0.3535,-0.4425,-0.4609,-0.4523,-0.4108,-0.4562,-0.4827,-0.4855,-0.1793,-0.0969,-0.2919,0.0,0.0,0.0,0.0,0.0,0.0,0.0,0.0,0.0,0.0,0.0,0.0,0.0,0.0,0.0,0.0,0.0,-0.1291,0.0,0.0,0.0,0.0,0.0,0.0,0.0,0.0,0.0,0.0,0.0,0.0,0.0,0.0,0.0,0.0,0.0,0.0,0.0,0.0,0.0,0.0,0.0,0.0,0.0,0.0,0.0,0.0,0.0,0.0,0.0,0.0,0.0,0.0478,0.2726,0.4742,0.5006,0.4966,0.4951,0.4729,0.5103,0.5318,0.5562,0.5522,0.5485,0.5447,0.2007,-0.0,-0.0,-0.0,-0.0,-0.0,-0.0,-0.0,-0.0,-0.0,-0.0,-0.0,-0.0,-0.0,-0.0,-0.0,-0.0,-0.0,-0.0,-0.0,-0.0,-0.0,-0.0,-0.0,-0.0,-0.0,-0.0,-0.1204,-0.1229,-0.1319,-0.1426,-0.1441,-0.1418,-0.1552,-0.1594,-0.1463,-0.1059,-0.1375,-0.1977,-0.2787,-0.3101,-0.3452,-0.3995,-0.4529,-0.4584,-0.3985,-0.4593,-0.4906,-0.4607,-0.2841,0.0,-0.3706,0.0,0.0,0.0,0.0,0.0,0.0,0.0,0.0,0.0,0.0,0.0,0.0,0.0,0.0,0.0,0.0,0.0,-0.0415,0.0,0.0,0.0,0.0,0.0,0.0,0.0,0.0,0.0,0.0,0.0,0.0,0.0,0.0,0.0,0.0,0.0,0.0,0.0,0.0,0.0,0.0,0.0,0.0,0.0,0.0,0.0,0.0,0.0,0.0,0.0,0.0,0.1614,0.3289,0.222,0.1782,0.2972,0.3269,0.3324,0.324,0.339,0.3563,0.3643,0.5317,0.6139,0.6231,0.2319,-0.0,-0.0,-0.0,-0.0,-0.0,-0.0,-0.0,-0.0,-0.0,-0.0,-0.0,-0.0,-0.0,-0.0,-0.0,-0.0,-0.0,-0.0,-0.0,-0.0,-0.0,-0.0,-0.0,-0.0,-0.0,-0.0253,-0.1414,-0.1392,-0.1373,-0.1501,-0.1448,-0.1449,-0.1567,-0.1599,-0.1564,-0.1363,-0.1681,-0.221,-0.2828,-0.3306,-0.3761,-0.4252,-0.4544,-0.4409,-0.3787,-0.368,-0.3345,-0.2662,0.0,0.0,0.0,0.0,0.0,0.0,0.0,0.0,0.0,0.0,0.0,0.0,0.0,0.0,0.0,0.0,0.0,0.0,0.0,0.0,-0.0,-0.0,-0.0,-0.0,-0.0,-0.0,-0.0,-0.0,0.0,0.0,0.0,0.0,0.0,0.0,0.0,0.0,0.0,0.0,0.0,0.0,0.0,0.0,0.0,0.0,0.0,0.0,0.0,0.0,0.0,0.0,0.0,0.0,-0.0,0.0651,0.251,0.1125,0.0349,0.1316,0.1461,0.1607,0.1631,0.1516,0.1659,0.1688,0.2979,0.376,0.3792,0.1427,-0.0,-0.0,-0.0,-0.0,-0.0,-0.0,-0.0,-0.0,-0.0,-0.0,-0.0,-0.0,-0.0,-0.0,-0.0,-0.0,-0.0,-0.0,-0.0,0.0,0.0,0.0,0.0,0.0,-0.0,-0.0253,-0.1658,-0.1535,-0.1418,-0.1523,-0.1481,-0.1477,-0.1477,-0.1576,-0.1616,-0.1767,-0.1928,-0.2357,-0.3105,-0.3686,-0.421,-0.4719,-0.4519,-0.4109,0.0,-0.234,0.0,-0.0314,-0.1215,0.0,0.0,0.0,0.0,0.0,0.0,0.0,0.0,0.0,0.0,0.0,0.0,0.0,0.0,0.0,0.0,0.0,0.0,0.0,-0.0,-0.0,-0.0,-0.0,-0.0,-0.0,-0.0,-0.0,0.0,0.0,0.0,0.0,0.0,0.0,0.0,0.0,0.0,0.0,0.0,0.0,0.0,0.0,0.0,0.0,0.0,0.0,0.0,0.0,0.0,0.0,0.0,0.0,-0.0,-0.0,-0.0,-0.0,-0.0,-0.0,-0.0,-0.0,-0.0,-0.0,-0.0,-0.0,-0.0261,-0.0389,-0.0,0.0,0.0,0.0,0.0,-0.0,-0.0,-0.0,-0.0,-0.0,-0.0,-0.0,-0.0,-0.0,-0.0,-0.0,-0.0,-0.0,-0.0,-0.0,-0.0,-0.0,-0.0,-0.0,-0.0,-0.0,-0.0,-0.0,-0.1571,-0.1456,-0.1526,-0.1587,-0.1557,-0.1477,-0.1477,-0.1576,-0.1766,-0.2116,-0.2336,-0.2813,-0.3567,-0.3796,-0.4109,-0.4676,-0.4442,-0.3992,0.0,0.0,-0.1793,0.0,0.0,0.0,0.0,0.0,0.0,0.0,0.0,0.0,0.0,0.0,0.0,0.0,0.0,0.0,0.0,0.0,0.0,0.0,0.0,0.0,-0.0,-0.0,-0.0,-0.0,-0.0,-0.0,-0.0,-0.0,-0.0,-0.0,-0.0,0.0,0.0,0.0,0.0,0.0,0.0,0.0,0.0,0.0,0.0,0.0,0.0,0.0,0.0,0.0,0.0,0.0,0.0,0.0,0.0,-0.0,-0.0,-0.0,-0.0,-0.0,-0.0,-0.0,-0.0,-0.0,-0.0,-0.0,-0.0,-0.0,-0.2104,-0.2508,-0.0133,-0.1069,-0.1204,-0.0,-0.0,-0.0,-0.0,-0.0,-0.0,-0.0,0.0,0.0,-0.0,-0.0,-0.0,-0.0,-0.0,-0.0,-0.0,-0.0,-0.0,-0.0,-0.0,-0.0,-0.0,-0.0,-0.0,-0.0,-0.1895,-0.1644,-0.157,-0.157,-0.1545,-0.1477,-0.1477,-0.1771,-0.2029,-0.2324,-0.2792,-0.3268,-0.367,-0.4065,-0.4446,-0.4743,-0.425,0.0,0.0,0.0,0.0,0.0,0.0,0.0,0.0,0.0,0.0,0.0,0.0,0.0,0.0,0.0,0.0,0.0,0.0,0.0,0.0,0.0,0.0,0.0,0.0,0.0,-0.0,-0.0,-0.0,-0.0,-0.0,-0.0,-0.0,-0.0,-0.0,-0.0,-0.0,-0.0,-0.0,0.0,0.0,0.0,0.0,0.0,0.0,0.0,0.0,0.0,0.0,0.0,0.0,0.0,0.0,-0.0,-0.0,0.0,-0.0,-0.0,-0.0,-0.0498,-0.1782,-0.1927,-0.1419,-0.0129,-0.1299,-0.157,-0.0132,-0.0,-0.0661,-0.1998,-0.3467,-0.3756,-0.2446,-0.2993,-0.3139,-0.2336,-0.1511,-0.0824,-0.0,-0.0,-0.0,-0.0,-0.0,-0.0,-0.0,-0.0,-0.0,-0.0,-0.0,-0.0,-0.0,-0.0,-0.0,-0.0,-0.0,-0.0,-0.0,-0.0,-0.0,-0.0,-0.2349,-0.2004,-0.1779,-0.1627,-0.1618,-0.1618,-0.1618,-0.2029,-0.2366,-0.2595,-0.3193,-0.3658,-0.3773,-0.434,-0.468,-0.4519,0.0,0.0,0.0,0.0,0.0,0.0,0.0,0.0,0.0,0.0,0.0,0.0,0.0,0.0,0.0,0.0,0.0,0.0,0.0,0.0,0.0,0.0,0.0,0.0,0.0,0.0,-0.0,-0.0,-0.0,-0.0,-0.0,-0.0,-0.0,-0.0,-0.0,-0.0,-0.0,-0.0,-0.0,-0.0,-0.0,0.0,0.0,0.0,0.0,0.0,0.0,0.0,0.0,0.0,-0.0,-0.0,-0.0,-0.0,-0.0,-0.0,-0.0121,-0.0632,-0.0763,-0.1539,-0.3681,-0.3968,-0.3164,-0.1042,-0.2885,-0.3434,-0.1058,-0.0802,-0.1752,-0.406,-0.4331,-0.4356,-0.469,-0.4693,-0.4577,-0.4488,-0.3365,-0.2102,-0.0982,-0.0281,-0.0,-0.0,-0.0,-0.0,-0.0,-0.0,-0.0,-0.0,-0.0,-0.0,-0.0,-0.0,-0.0,-0.0,-0.0,-0.0,-0.0,-0.0,-0.0385,-0.0888,-0.2811,-0.2596,-0.239,-0.2093,-0.2042,-0.2044,-0.2091,-0.2274,-0.2645,-0.3284,-0.3618,-0.3928,-0.4373,-0.4504,-0.4265,-0.3617,0.0,0.0,0.0,0.0,0.0,0.0,0.0,0.0,0.0,0.0,0.0,0.0,0.0,0.0,0.0,0.0,0.0,0.0,0.0,0.0,0.0,0.0,0.0,0.0,0.0,0.0,-0.0,-0.0,-0.0,-0.0,-0.0,-0.0,-0.0,-0.0,-0.0,-0.0,-0.0,-0.0,-0.0,-0.0,0.0,-0.0,-0.0,-0.0,0.0,-0.0,-0.0,-0.0,0.0,0.0,-0.0,-0.0,-0.0,-0.0,-0.0,-0.0,-0.076,-0.3135,-0.3676,-0.3943,-0.4215,-0.4264,-0.416,-0.3885,-0.4117,-0.4112,-0.3895,-0.377,-0.3929,-0.4254,-0.4254,-0.4416,-0.4617,-0.4619,-0.4622,-0.4631,-0.4349,-0.4208,-0.4208,-0.1402,-0.0,-0.0,-0.0,-0.0,-0.0,-0.0,-0.0,-0.0,-0.0,-0.0,-0.0,-0.0,-0.0,-0.0,-0.0,-0.0,-0.0,-0.0,-0.1563,-0.3736,-0.2818,-0.2974,-0.3075,-0.2703,-0.2525,-0.249,-0.2545,-0.2875,-0.326,-0.365,-0.3981,-0.4294,-0.4463,-0.4519,-0.4435,-0.4229,-0.3964,0.0,-0.3356,0.0,0.0,0.0,0.0,0.0,0.0,0.0,0.0,0.0,0.0,0.0,0.0,0.0,0.0,0.0,0.0,0.0,0.0,0.0,0.0,0.0,0.0,0.0,-0.0,-0.0,-0.0,-0.0,-0.0,-0.0,0.0,0.0,-0.0,-0.0,-0.0,-0.0,-0.0,-0.0,-0.0,0.0,-0.0,0.0,0.0,0.0,-0.0,-0.0,-0.0,-0.0,-0.0,-0.0,-0.0,-0.0,-0.0,-0.0,-0.0394,0.0,-0.3321,-0.4421,-0.4318,-0.4313,-0.4322,-0.4493,-0.4476,-0.4472,-0.436,-0.2725,-0.1775,-0.1785,-0.1798,-0.1817,-0.1983,-0.3688,-0.4701,-0.4737,-0.4595,-0.4595,-0.4739,-0.3445,-0.1866,-0.0,-0.0,-0.0,-0.0,-0.0,-0.0,-0.0,-0.0,-0.0,-0.0,-0.0,-0.0,-0.0135,-0.1897,-0.2437,-0.256,-0.2701,-0.3485,-0.4499,-0.2971,-0.3266,-0.349,-0.3214,-0.3098,-0.2984,-0.2946,-0.3395,-0.3797,-0.395,-0.4294,-0.4519,-0.4519,-0.4519,-0.4568,-0.4713,-0.4365,-0.3917,0.0,-0.291,0.0,0.0,0.0,0.0,0.0,0.0,0.0,0.0,0.0,0.0,0.0,0.0,0.0,0.0,0.0,0.0,0.0,0.0,0.0,0.0,0.0,0.0,-0.0411,-0.0406,-0.0298,-0.0,-0.0,-0.0,0.0,0.0,-0.0,-0.0,-0.0,-0.0,-0.0,-0.0,-0.0,-0.0,-0.0,0.0,0.0,-0.0,-0.0,-0.0,-0.0,-0.0,-0.0,-0.0,-0.0,-0.0,-0.0,-0.0,-0.0,-0.0,-0.1878,-0.3388,-0.3169,-0.3823,-0.4356,-0.4555,-0.4548,-0.4542,-0.442,-0.2477,-0.0825,-0.0,-0.0,-0.0,-0.0,-0.2156,-0.3612,-0.4084,-0.4085,-0.4085,-0.4085,-0.4525,-0.3502,-0.1313,-0.0438,-0.0,-0.0,-0.0,-0.0,-0.0,-0.0,-0.0,-0.0,-0.0,-0.0406,-0.1354,-0.3509,-0.4315,-0.4322,-0.452,-0.4649,-0.4603,-0.3371,-0.3501,-0.3581,-0.3578,-0.3746,-0.37,-0.3249,-0.3523,-0.3959,-0.4405,-0.4519,-0.4519,-0.4519,-0.4519,-0.4528,-0.452,-0.4742,-0.4148,-0.2464,-0.2481,0.0,0.0,0.0,0.0,0.0,0.0,0.0,0.0,0.0,0.0,0.0,0.0,0.0,0.0,0.0,0.0,0.0,0.0,0.0,0.0,0.0,0.0,-0.1514,-0.1513,-0.0887,-0.0,-0.0,0.0,0.0,0.0,-0.0,-0.0,-0.0,-0.0,0.0,-0.0,-0.0,0.0,0.0,0.0,-0.0,-0.0,-0.0,-0.0,-0.0,-0.0,-0.0,-0.0,-0.0,-0.0,-0.0,-0.0,-0.0,-0.0,-0.0136,-0.0136,-0.0139,-0.2491,-0.4279,-0.4339,-0.4295,-0.442,0.0,-0.4431,-0.304,-0.028,-0.0,-0.0,-0.0,-0.0146,-0.0874,-0.2333,-0.2333,-0.2333,-0.2333,-0.3939,-0.467,-0.4525,-0.1459,-0.0,-0.0,-0.0,-0.0,-0.0,-0.0,-0.0,-0.0,-0.0,-0.1649,-0.4122,-0.4201,-0.4315,-0.4322,-0.4377,-0.4398,-0.4395,-0.3357,-0.3573,-0.3721,-0.3721,-0.3927,-0.3958,-0.3534,-0.3937,-0.4304,-0.4505,-0.4519,0.0,0.0,0.0,0.0,0.0,-0.4596,-0.3964,-0.232,-0.237,0.0,0.0,0.0,0.0,0.0,0.0,0.0,0.0,0.0,0.0,0.0,0.0,0.0,0.0,0.0,0.0,0.0,0.0,0.0,0.0,0.0,0.0,-0.2714,-0.2649,-0.2348,-0.1867,0.0,0.0,0.0,0.0,0.0,0.0,-0.0,0.0,0.0,-0.0,0.0,-0.0,0.0,0.0,-0.0,-0.0,-0.0,-0.0,-0.0,-0.0,-0.0,-0.0,-0.0,-0.0,-0.0,-0.0,-0.0,-0.0,-0.0,-0.0,-0.0,-0.0825,-0.2187,-0.4057,-0.4471,0.0,0.0,0.0,0.0,-0.3124,-0.1146,-0.0433,-0.1457,-0.2479,-0.2916,-0.2333,-0.2333,-0.2333,-0.2333,-0.277,-0.3063,-0.3063,-0.2042,-0.1458,-0.1458,-0.1458,-0.1455,-0.1593,-0.1579,-0.1569,-0.1561,-0.154,-0.2078,-0.3021,-0.3966,-0.4345,-0.4312,-0.4331,-0.4364,-0.4403,-0.3345,-0.3607,-0.3809,-0.3815,-0.3986,0.0,0.0,0.0,0.0,0.0,0.0,0.0,0.0,0.0,0.0,0.0,0.0,-0.4146,-0.3368,0.0,0.0,0.0,0.0,0.0,0.0,0.0,0.0,0.0,0.0,0.0,0.0,0.0,0.0,0.0,0.0,0.0,0.0,0.0,0.0,0.0,0.0,0.0,-0.3198,-0.318,-0.3037,0.0,0.0,0.0,0.0,0.0,0.0,0.0,0.0,0.0,0.0,-0.0,-0.0,-0.0,0.0,-0.0,-0.0,-0.0,-0.0,-0.0,-0.0,-0.0,-0.0,-0.0,-0.0,-0.0,-0.0,-0.0,-0.0,-0.0,-0.0,-0.0,-0.0,-0.0,-0.1086,-0.3888,-0.4597,-0.4729,0.0,0.0,0.0,-0.4719,-0.2883,-0.1886,-0.2332,-0.3794,-0.4232,-0.3209,-0.3209,-0.3209,-0.3209,-0.3209,-0.3209,-0.3209,-0.3209,-0.3209,-0.3209,-0.3209,-0.3209,-0.3207,-0.318,-0.3168,-0.3165,-0.3123,-0.3081,-0.3042,-0.3992,-0.4361,-0.4308,-0.4308,-0.4333,-0.4373,-0.3395,-0.3614,-0.3849,0.0,0.0,0.0,0.0,0.0,0.0,0.0,0.0,0.0,0.0,0.0,0.0,0.0,0.0,0.0,-0.5304,0.0,0.0,0.0,0.0,-0.3357,-0.2861,-0.2811,-0.2839,0.0,0.0,0.0,0.0,0.0,0.0,0.0,0.0,0.0,0.0,0.0,0.0,0.0,0.0,0.0,-0.3117,-0.2999,0.0,0.0,0.0,0.0,0.0,0.0,0.0,0.0,0.0,0.0,0.0,0.0,0.0,-0.0,-0.0,-0.0,-0.0,-0.0,-0.0,-0.0,-0.0,-0.0,-0.0,-0.0,-0.0,-0.0,0.0,0.0,-0.0,-0.0,-0.0,-0.0,-0.0,-0.0,-0.0948,0.0,0.0,0.0,0.0,0.0,0.0,-0.458,0.0,-0.4034,-0.2477,-0.3794,-0.4672,-0.467,-0.467,-0.467,-0.467,-0.467,-0.467,-0.467,-0.467,-0.467,-0.467,-0.467,-0.467,-0.467,-0.467,-0.467,-0.4666,-0.4753,-0.4549,-0.4346,-0.4427,-0.4365,-0.4312,-0.4309,-0.4308,-0.4316,0.0,0.0,0.0,0.0,0.0,0.0,0.0,0.0,0.0,0.0,0.0,0.0,0.0,0.0,0.0,0.0,0.0,0.0,0.0,0.0,0.0,0.0,0.0,0.0,-0.3333,-0.294,0.0,0.0,0.0,0.0,0.0,0.0,0.0,0.0,0.0,0.0,0.0,0.0,0.0,0.0,0.0,0.0,-0.2996,0.0,0.0,0.0,0.0,0.0,0.0,0.0,0.0,0.0,0.0,0.0,-0.0,0.0,0.0,-0.0,-0.0,-0.0,-0.0,-0.0,-0.0,-0.0,-0.0,-0.0,-0.0,-0.0,-0.0,-0.0,-0.0,0.0,0.0,-0.0,-0.0,0.0,-0.0,-0.0,0.0,0.0,0.0,-0.4402,-0.4556,-0.359,0.0,0.0,-0.4029,-0.4175,-0.2914,-0.4085,-0.467,-0.4666,-0.4666,-0.4666,-0.4666,-0.4666,-0.4666,-0.4666,-0.4666,-0.4666,-0.4666,-0.4666,-0.4666,-0.4666,-0.4666,-0.4666,-0.4665,-0.465,-0.4606,-0.4546,-0.4485,-0.4425,-0.4369,-0.4324,-0.4308,-0.4309,0.0,0.0,0.0,0.0,0.0,0.0,0.0,0.0,0.0,0.0,0.0,0.0,0.0,0.0,0.0,0.0,0.0,0.0,0.0,0.0,0.0,0.0,0.0,0.0,0.0,0.0,0.0,0.0,0.0,0.0,0.0,0.0,0.0,0.0,0.0,0.0,0.0,0.0,0.0,0.0,0.0,0.0,0.0,0.0,0.0,0.0,0.0,0.0,0.0,0.0,0.0,-0.2721,-0.1097,-0.0307,-0.0,-0.0,0.0,-0.0,-0.0,-0.0,-0.0,-0.0,-0.0,-0.0,-0.0,-0.0,-0.0,-0.0,-0.0,0.0,-0.0,0.0,0.0,0.0,0.0,0.0,-0.0,-0.0,-0.0,0.0,-0.1426,0.0,-0.4296,-0.3747,-0.3046,0.0,-0.3768,-0.4489,-0.3791,-0.4378,-0.4669,-0.4665,-0.4665,-0.4665,-0.4665,-0.4665,-0.4665,-0.4665,-0.4665,-0.4665,-0.4665,-0.4665,-0.4665,-0.4665,0.0,-0.4665,-0.4665,-0.4665,-0.4628,-0.4567,-0.4506,-0.4448,-0.4391,-0.433,-0.4308,-0.4308,0.0,0.0,0.0,0.0,0.0,0.0,0.0,0.0,0.0,0.0,0.0,0.0,0.0,0.0,0.0,0.0,0.0,0.0,0.0,0.0,0.0,0.0,0.0,0.0,0.0,0.0,0.0,0.0,0.0,0.0,0.0,0.0,0.0,0.0,0.0,0.0,0.0,0.0,0.0,0.0,0.0,0.0,0.0,0.0,0.0,0.0,0.0,0.0,0.0,0.0,-0.3147,-0.299,-0.1755,-0.0748,-0.0,-0.0,-0.0,-0.0,-0.0,-0.0,-0.0,-0.0,-0.0,-0.0,-0.0,-0.0,-0.0,-0.0,0.0,0.0,-0.0,0.0,-0.0,-0.0,0.0,-0.0,-0.0,-0.0,-0.0,-0.0,-0.0,-0.1005,-0.3447,-0.4311,-0.3898,-0.2188,-0.3503,-0.4525,-0.4672,-0.467,-0.4669,-0.4665,-0.4665,-0.4665,-0.4665,-0.4665,-0.4665,-0.4665,-0.4665,-0.4665,-0.4665,-0.4665,-0.4665,-0.4665,-0.4665,-0.4665,-0.4665,-0.4665,-0.4632,-0.4578,-0.451,-0.4452,-0.4401,-0.4333,-0.4308,-0.4308,0.0,0.0,0.0,0.0,0.0,0.0,0.0,-0.4508,-0.4494,-0.4502,-0.4475,0.0,0.0,0.0,0.0,0.0,0.0,0.0,0.0,0.0,0.0,0.0,0.0,0.0,0.0,0.0,0.0,0.0,0.0,0.0,0.0,0.0,0.0,0.0,0.0,0.0,0.0,0.0,0.0,0.0,0.0,0.0,0.0,0.0,0.0,0.0,0.0,0.0,0.0,0.0,-0.3165,-0.3001,-0.1929,-0.0879,-0.0,-0.0,-0.0,-0.0,-0.0,-0.0,-0.0,-0.0,-0.0,-0.0,-0.0,-0.0,0.0,0.0,0.0,-0.0,-0.0,-0.0,0.0,-0.0,0.0,0.0,0.0,0.0,-0.0,0.0,0.0,0.0,0.0,0.0,0.0,0.0,0.0,-0.3354,-0.467,-0.4668,-0.4665,-0.4665,-0.4665,-0.4665,-0.4665,-0.4665,-0.4665,-0.4665,-0.4665,-0.4665,-0.4665,-0.4665,-0.4665,-0.4665,-0.4665,0.0,-0.4665,-0.4665,-0.4658,-0.4638,-0.4526,-0.4476,-0.4455,-0.4348,-0.4308,-0.4308,0.0,0.0,0.0,0.0,0.0,0.0,0.0,-0.4504,-0.471,-0.5321,-0.5756,-0.5796,-0.5042,-0.498,-0.4816,0.0,0.0,0.0,0.0,0.0,0.0,0.0,0.0,0.0,0.0,0.0,0.0,0.0,0.0,0.0,0.0,0.0,0.0,0.0,0.0,0.0,0.0,0.0,0.0,0.0,0.0,0.0,0.0,0.0,0.0,0.0,0.0,0.0,0.0,0.0,-0.363,-0.3021,-0.1925,-0.0878,-0.0,-0.0,-0.0,-0.0,-0.0,-0.0,-0.0,-0.0,-0.0,-0.0,-0.0,0.0,0.0,0.0,0.0,-0.0,-0.0,0.0,0.0,0.0,0.0,0.0,0.0,0.0,0.0,0.0,0.0,0.0,0.0,0.0,0.0,0.0,0.0,-0.4232,-0.4672,-0.4668,-0.4665,-0.4665,-0.4665,-0.4665,-0.4665,-0.4665,-0.4665,-0.4665,-0.4665,-0.4665,-0.4665,-0.4665,-0.4665,-0.4665,-0.4665,-0.4665,-0.4665,-0.4665,-0.4646,-0.4608,-0.4518,-0.4465,-0.4428,-0.4339,-0.4308,-0.4308,0.0,0.0,0.0,0.0,0.0,0.0,0.0,-0.4597,-0.4958,-0.5755,-0.6547,-0.6602,-0.5551,-0.54,-0.5148,0.0,0.0,0.0,0.0,0.0,0.0,0.0,0.0,0.0,0.0,0.0,0.0,0.0,0.0,0.0,0.0,0.0,0.0,0.0,0.0,0.0,0.0,0.0,0.0,0.0,0.0,0.0,0.0,0.0,0.0,0.0,0.0,0.0,0.0,0.0,-0.4302,-0.3536,-0.2386,-0.1078,-0.0,-0.0,-0.0,-0.0,-0.0,-0.0,-0.0,-0.0,-0.0,-0.0,-0.0,-0.0,0.0,0.0,0.0,-0.0,-0.0,0.0,0.0,0.0,0.0,0.0,0.0,0.0,0.0,0.0,0.0,0.0,0.0,0.0,0.0,0.0,0.0,0.0,-0.4818,-0.5101,-0.5244,-0.4665,-0.4955,-0.4955,-0.4665,-0.4665,-0.4665,-0.4665,-0.4665,-0.4665,-0.4665,-0.4665,-0.4665,-0.4665,-0.4665,-0.4665,-0.4665,-0.4665,-0.4628,-0.4567,-0.4506,-0.4448,-0.4391,-0.433,-0.4308,-0.4308,0.0,0.0,0.0,0.0,0.0,0.0,0.0,-0.4957,-0.5137,-0.4696,-0.5204,-0.5566,-0.5408,-0.5384,-0.5213,0.0,0.0,0.0,0.0,0.0,0.0,0.0,0.0,0.0,0.0,0.0,0.0,0.0,0.0,0.0,0.0,0.0,0.0,0.0,0.0,0.0,0.0,0.0,0.0,0.0,0.0,0.0,0.0,0.0,0.0,0.0,0.0,0.0,0.0,0.0,0.0,-0.5139,-0.3973,-0.197,-0.0,-0.0,0.0,0.0,-0.0,-0.0,-0.0,-0.0,-0.0,-0.0,-0.0,0.0,0.0,0.0,-0.0,-0.0,-0.0,-0.0,0.0,0.0,0.0,0.0,0.0,0.0,0.0,0.0,0.0,0.0,0.0,0.0,0.0,0.0,0.0,0.0,-0.4816,-0.6696,-0.6837,-0.4809,-0.5678,-0.568,-0.4665,-0.4665,-0.4665,-0.4665,-0.4665,-0.4665,-0.4665,-0.4665,-0.4665,-0.4665,-0.4665,-0.4665,0.0,-0.4665,-0.4628,-0.4567,-0.4506,-0.4448,-0.4391,-0.433,-0.4308,-0.4308,0.0,0.0,0.0,0.0,0.0,0.0,-0.4864,-0.4874,-0.493,-0.5005,-0.5229,-0.5373,-0.5392,-0.5311,-0.5116,-0.4903,0.0,0.0,0.0,0.0,0.0,0.0,0.0,0.0,0.0,0.0,0.0,0.0,0.0,0.0,0.0,0.0,0.0,0.0,0.0,0.0,0.0,0.0,0.0,0.0,0.0,0.0,0.0,0.0,0.0,0.0,0.0,0.0,0.0,0.0,0.0,0.0,-0.5181,-0.4827,0.0,0.0,-0.0,-0.0,-0.0,-0.0,-0.0,-0.0,-0.0,-0.0,-0.0,0.0,0.0,-0.0,-0.0,-0.0,-0.0,-0.0,-0.1295,-0.5477,-0.4616,-0.3212,0.0,0.0,0.0,0.0,0.0,0.0,0.0,0.0,0.0,0.0,0.0,0.0,-0.743,-0.7856,-0.7706,-0.6837,-0.7127,-0.7272,-0.6692,-0.6692,-0.6692,-0.6692,-0.6114,-0.5678,-0.5678,-0.4955,-0.4665,-0.4665,-0.4665,-0.4665,0.0,-0.4624,-0.4574,-0.4512,-0.4454,-0.4395,-0.4341,-0.4316,-0.4308,-0.4308,0.0,0.0,0.0,0.0,0.0,-0.4179,-0.4772,-0.4622,-0.472,-0.5311,-0.5261,-0.5221,-0.5438,-0.5224,-0.5043,-0.4986,-0.4992,0.0,0.0,0.0,0.0,0.0,0.0,0.0,0.0,0.0,0.0,0.0,0.0,0.0,0.0,0.0,0.0,0.0,0.0,0.0,0.0,0.0,0.0,0.0,0.0,0.0,0.0,0.0,0.0,0.0,0.0,0.0,0.0,0.0,0.0,0.0,0.0,0.0,0.0,0.0,-0.0748,-0.0445,-0.0579,-0.0355,-0.0,-0.0,-0.0,-0.0,0.0,0.0,-0.0,-0.0,-0.0,-0.0,-0.0,-0.0,-0.1764,-0.714,-0.6142,-0.4521,-0.3782,0.0,0.0,0.0,0.0,0.0,0.0,0.0,0.0,0.0,0.0,0.0,-0.9457,-0.9302,-0.8863,-0.814,-0.843,-0.843,-0.814,-0.814,-0.814,-0.814,-0.7272,-0.6837,-0.6837,-0.6114,-0.5678,-0.5678,-0.5389,-0.5233,0.0,-0.4735,-0.4527,-0.4454,-0.4414,-0.4361,-0.4308,-0.4308,-0.4308,-0.4308,0.0,0.0,0.0,0.0,0.0,0.0,-0.4232,-0.4392,-0.467,-0.5212,-0.4809,-0.4768,-0.549,-0.5192,-0.4975,-0.5114,-0.4863,0.0,0.0,0.0,0.0,0.0,0.0,0.0,0.0,0.0,0.0,0.0,0.0,0.0,0.0,0.0,0.0,0.0,0.0,0.0,0.0,0.0,0.0,0.0,0.0,0.0,-0.6338,0.0,0.0,0.0,0.0,0.0,0.0,0.0,0.0,0.0,0.0,0.0,0.0,0.0,-0.2447,-0.1614,-0.1929,-0.1046,-0.0,-0.0,-0.0,-0.0,0.0,-0.0,-0.0,-0.0,-0.0,-0.0,-0.0,-0.0,-0.1721,-0.7177,-0.8277,-0.7343,0.0,0.0,0.0,0.0,0.0,0.0,0.0,0.0,0.0,0.0,0.0,0.0,-0.9879,-1.0894,-1.0458,-0.814,-0.9299,-0.9299,-0.814,-0.814,-0.814,-0.814,-0.814,-0.814,-0.814,-0.814,-0.7996,-0.7996,-0.6837,-0.6355,0.0,-0.5,-0.4504,-0.4399,-0.4398,-0.4361,-0.4308,-0.4308,-0.4308,-0.4308,0.0,0.0,0.0,0.0,0.0,0.0,0.0,-0.4828,-0.5078,-0.5473,-0.5813,-0.5893,-0.5422,-0.549,-0.5348,-0.4972,-0.4901,0.0,0.0,0.0,0.0,0.0,0.0,0.0,0.0,0.0,-0.5878,-0.603,-0.6044,0.0,0.0,0.0,0.0,0.0,0.0,0.0,0.0,0.0,0.0,0.0,0.0,-0.6403,-0.6569,0.0,0.0,0.0,0.0,0.0,0.0,0.0,0.0,0.0,0.0,0.0,0.0,-0.5082,0.0,0.0,-0.4133,-0.3388,-0.3334,-0.6025,-0.6084,-0.4805,-0.2544,-0.3424,-0.3976,-0.0649,-0.0,-0.0,-0.0,-0.1121,-0.3475,-0.8245,-0.8998,0.0,0.0,0.0,0.0,0.0,0.0,0.0,0.0,0.0,0.0,0.0,0.0,0.0,-1.1038,-1.1329,-1.1329,-1.0458,-1.0894,-1.0894,-1.0458,-1.0458,-1.0458,-1.0458,-0.9735,-0.9299,-0.9299,-0.843,-0.814,0.0,-0.7632,-0.7015,-0.6269,-0.5742,-0.512,-0.4394,-0.4352,-0.4324,-0.4308,-0.4308,-0.4308,-0.4308,0.0,0.0,0.0,0.0,0.0,0.0,0.0,-0.5208,-0.5663,-0.5766,-0.6514,-0.6736,-0.5891,-0.577,-0.557,-0.5221,-0.5009,0.0,0.0,0.0,0.0,0.0,0.0,0.0,0.0,-0.5647,-0.5793,-0.5942,-0.604,-0.6149,-0.6338,-0.6338,0.0,0.0,0.0,0.0,0.0,0.0,0.0,0.0,-0.6352,-0.6454,-0.6471,0.0,0.0,0.0,0.0,0.0,0.0,0.0,0.0,0.0,0.0,0.0,0.0,0.0,-0.5816,-0.5497,0.0,-0.4761,-0.5065,-0.771,-0.8196,-0.7346,-0.507,-0.588,-0.6284,-0.3298,-0.2703,-0.2685,-0.2721,-0.3623,-0.5487,-0.8428,-0.9298,0.0,0.0,0.0,0.0,0.0,0.0,0.0,0.0,0.0,0.0,0.0,0.0,0.0,-1.1619,-1.1619,-1.1619,-1.1619,-1.1619,-1.1619,-1.1619,-1.1619,-1.1619,-1.1619,-1.0894,-1.0314,-0.9879,-0.9588,-0.8984,-0.8076,-0.8436,-0.7654,0.0,-0.6078,-0.5338,-0.4361,-0.4322,-0.4308,-0.4308,-0.4308,-0.4308,-0.4311,0.0,0.0,0.0,0.0,0.0,0.0,0.0,-0.5435,-0.636,-0.6206,-0.6876,-0.722,-0.6704,-0.6036,-0.5596,-0.5638,0.0,0.0,0.0,0.0,0.0,0.0,0.0,0.0,0.0,-0.5511,-0.5664,-0.5817,-0.5806,-0.5959,-0.6338,-0.6338,-0.6098,0.0,0.0,0.0,0.0,0.0,0.0,0.0,-0.6537,-0.6434,0.0,0.0,0.0,0.0,0.0,0.0,0.0,0.0,0.0,0.0,0.0,0.0,0.0,0.0,0.0,0.0,0.0,-0.5298,-0.5487,-0.5987,-0.7077,-0.7848,-0.7263,-0.7124,0.0,-0.7055,-0.7025,-0.7121,-0.7141,-0.7066,-0.7341,-0.7882,-0.8895,0.0,0.0,0.0,0.0,0.0,0.0,0.0,0.0,0.0,0.0,0.0,0.0,0.0,-1.1472,-1.1472,-1.1476,-1.1329,-1.1329,-1.1329,-1.1472,-1.1472,-1.1476,-1.1329,-1.1329,-1.0743,-0.9865,-1.0878,-1.0084,0.0,-0.9095,-0.8271,-0.6037,-0.603,-0.5306,-0.4308,-0.4308,-0.4308,-0.4308,-0.4308,-0.4311,-0.4322,0.0,0.0,0.0,0.0,0.0,0.0,0.0,0.0,0.0,0.0,-0.7046,-0.7018,-0.6539,-0.6301,-0.6066,0.0,0.0,0.0,0.0,0.0,0.0,0.0,0.0,0.0,0.0,-0.5511,-0.5718,-0.5976,-0.5861,-0.5959,-0.6338,-0.6338,-0.6098,-0.58,-0.5875,0.0,0.0,0.0,0.0,0.0,-0.6096,-0.6214,0.0,0.0,0.0,0.0,-0.6017,-0.6023,0.0,0.0,0.0,0.0,0.0,0.0,0.0,0.0,-0.6688,-0.6699,-0.6494,0.0,-0.6966,-0.6895,-0.7394,-0.7873,0.0,-0.7329,0.0,0.0,0.0,-0.7116,-0.7139,-0.7146,-0.7295,-0.7933,0.0,0.0,0.0,0.0,0.0,0.0,0.0,0.0,0.0,0.0,0.0,0.0,0.0,-1.1185,-1.0314,-1.0314,-0.9879,-0.9008,-0.8866,-0.9299,-1.0314,-1.0314,-0.9879,-0.8866,-0.8866,-0.8817,-0.8446,-0.8734,-0.8528,-0.7997,-0.8196,-0.7445,-0.6033,-0.5968,-0.526,-0.4308,-0.4308,-0.4308,-0.4308,-0.4308,-0.4337,-0.4379,0.0,0.0,0.0,0.0,0.0,0.0,0.0,0.0,0.0,0.0,0.0,-0.7499,-0.695,-0.6815,0.0,0.0,0.0,0.0,0.0,0.0,0.0,0.0,0.0,0.0,-0.5425,-0.5443,-0.5664,-0.603,-0.5878,-0.5959,-0.6264,-0.6329,-0.6235,-0.5871,-0.5804,-0.5628,0.0,0.0,0.0,-0.5976,-0.5941,0.0,0.0,0.0,0.0,0.0,-0.5755,-0.581,0.0,-0.583,-0.5949,-0.6135,0.0,0.0,0.0,0.0,-0.6529,-0.6597,-0.6678,-0.6915,-0.7138,-0.7149,-0.7161,-0.7184,-0.709,0.0,0.0,0.0,0.0,0.0,-0.7085,0.0,0.0,0.0,0.0,0.0,0.0,0.0,0.0,0.0,0.0,0.0,0.0,0.0,0.0,0.0,0.0,-1.0414,-0.9844,-0.9275,-0.8705,-0.8137,-0.7995,-0.8329,-0.9008,-0.9101,-0.8642,-0.8067,-0.8019,-0.7681,-0.7204,-0.7769,-0.7434,-0.6373,-0.7287,-0.6832,-0.5301,-0.5663,-0.5243,-0.4308,-0.4308,-0.4308,-0.4311,-0.4339,-0.4371,-0.4406,0.0,0.0,0.0,0.0,0.0,0.0,0.0,0.0,0.0,0.0,0.0,0.0,0.0,0.0,0.0,0.0,0.0,0.0,0.0,0.0,0.0,0.0,0.0,-0.5169,-0.5321,-0.5325,-0.5545,-0.5993,-0.5864,-0.5945,-0.623,-0.6373,-0.629,-0.5936,-0.5586,-0.5396,0.0,0.0,-0.5671,-0.5688,-0.5816,0.0,0.0,0.0,0.0,0.0,0.0,0.0,0.0,-0.5769,-0.5942,-0.6159,-0.6159,0.0,0.0,0.0,0.0,0.0,-0.6579,-0.6665,-0.6784,-0.7068,-0.6837,-0.6645,0.0,0.0,0.0,0.0,0.0,0.0,0.0,0.0,0.0,0.0,0.0,0.0,0.0,0.0,0.0,0.0,0.0,0.0,0.0,0.0,0.0,0.0,0.0,-0.9492,-0.9354,-0.8241,-0.7685,-0.7407,-0.7407,-0.7488,-0.7515,-0.7718,-0.7674,-0.7531,-0.7447,-0.6983,-0.5997,-0.6968,-0.6369,-0.4521,0.0,0.0,-0.4307,-0.5243,-0.5111,-0.4308,-0.4318,-0.4322,-0.4328,-0.439,-0.4417,-0.444,0.0,0.0,0.0,0.0,0.0,0.0,0.0,0.0,0.0,0.0,0.0,0.0,0.0,0.0,0.0,0.0,0.0,0.0,0.0,0.0,0.0,0.0,-0.5384,-0.502,-0.5162,-0.5165,-0.5386,-0.5837,-0.5813,-0.5891,-0.6067,-0.622,-0.6118,-0.5796,-0.5557,-0.5411,-0.5421,-0.5438,-0.564,-0.5882,-0.5596,0.0,0.0,0.0,0.0,0.0,0.0,0.0,0.0,-0.5623,-0.5654,-0.5691,-0.5691,0.0,0.0,0.0,0.0,0.0,-0.7104,-0.701,-0.6786,-0.6996,-0.744,-0.7717,0.0,0.0,0.0,0.0,0.0,0.0,0.0,0.0,0.0,0.0,0.0,0.0,0.0,0.0,0.0,0.0,0.0,0.0,0.0,0.0,0.0,0.0,0.0,-0.9212,-0.8099,-0.7126,-0.6014,-0.504,-0.504,-0.5051,-0.5071,-0.6039,-0.6034,-0.5055,-0.5045,-0.4874,-0.4685,-0.4823,-0.4651,-0.4322,0.0,-0.4584,-0.4308,-0.4441,-0.4441,-0.4312,-0.4364,-0.4384,-0.4391,-0.4448,-0.4501,-0.4556,0.0,0.0,0.0,0.0,0.0,0.0,0.0,0.0,0.0,0.0,0.0,0.0,0.0,0.0,0.0,0.0,0.0,0.0,0.0,0.0,0.0,-0.6591,-0.5927,-0.5586,-0.5638,-0.5363,-0.5474,-0.5925,-0.5925,-0.6003,-0.6152,-0.6289,-0.6166,-0.5864,-0.5566,-0.5396,-0.54,-0.5395,-0.553,-0.5661,0.0,0.0,0.0,0.0,0.0,0.0,0.0,0.0,0.0,0.0,-0.564,-0.5691,-0.5613,0.0,0.0,0.0,0.0,0.0,-0.6521,-0.6899,-0.7155,-0.7136,-0.7535,-0.8001,0.0,0.0,0.0,0.0,0.0,0.0,0.0,0.0,0.0,0.0,0.0,0.0,0.0,0.0,0.0,0.0,0.0,0.0,0.0,0.0,0.0,0.0,0.0,0.0,-0.6838,-0.5751,-0.4934,-0.4388,-0.4388,-0.4388,-0.4388,-0.4934,-0.4951,-0.4437,-0.4403,-0.4375,-0.4349,-0.4349,-0.4334,-0.4308,0.0,-0.4308,-0.4311,-0.4343,-0.4357,-0.4362,-0.4421,-0.4444,-0.4451,-0.451,-0.457,-0.4627,0.0,0.0,0.0,0.0,0.0,0.0,0.0,0.0,0.0,0.0,0.0,0.0,0.0,0.0,0.0,0.0,0.0,0.0,0.0,0.0,-0.6778,-0.684,-0.6526,-0.6298,-0.6215,-0.5755,-0.5768,-0.6198,-0.6084,-0.6091,-0.6203,-0.6271,-0.6118,-0.5816,-0.5515,-0.5393,-0.5428,-0.5428,-0.5428,-0.5428,0.0,0.0,0.0,0.0,0.0,0.0,0.0,0.0,0.0,0.0,0.0,0.0,0.0,0.0,0.0,-0.5579,-0.5667,-0.581,-0.6064,-0.6746,-0.7343,-0.7187,0.0,0.0,0.0,0.0,0.0,0.0,0.0,0.0,0.0,0.0,0.0,0.0,0.0,0.0,0.0,0.0,0.0,0.0,0.0,0.0,0.0,0.0,0.0,0.0,0.0,0.0,-0.5912,-0.4842,-0.4308,-0.4308,-0.4308,-0.4308,-0.4308,-0.4308,-0.4331,-0.4376,-0.433,-0.4308,-0.4308,-0.4308,-0.4308,-0.4308,-0.4323,-0.4328,-0.4334,-0.4394,-0.4418,-0.4424,-0.4481,-0.4512,-0.453,-0.4578,-0.4624,-0.4665,0.0,0.0,0.0,0.0,0.0,0.0,0.0,0.0,0.0,0.0,0.0,0.0,0.0,0.0,0.0,0.0,0.0,0.0,0.0,0.0,-0.7158,-0.7158,-0.684,-0.6625,-0.6502,-0.6094,-0.6192,-0.6901,-0.6327,-0.6034,-0.6047,-0.6179,-0.6016,-0.5461,-0.5441,-0.5423,-0.5428,-0.5428,-0.5428,-0.5428,-0.5428,0.0,0.0,0.0,0.0,0.0,0.0,0.0,0.0,0.0,0.0,0.0,0.0,0.0,-0.5473,-0.5549,-0.5596,-0.5728,-0.6288,-0.6576,-0.6817,-0.7234,0.0,0.0,0.0,0.0,0.0,0.0,0.0,0.0,0.0,0.0,0.0,0.0,0.0,0.0,0.0,0.0,0.0,0.0,0.0,0.0,0.0,0.0,0.0,0.0,0.0,0.0,-0.5912,-0.4842,-0.4308,-0.4308,-0.4308,-0.4308,-0.4308,-0.4308,-0.4309,-0.4313,-0.4309,-0.4308,-0.4308,-0.4308,-0.4308,-0.4311,-0.4368,-0.4392,-0.4397,-0.4452,-0.4476,-0.4482,-0.4544,-0.4601,-0.4651,-0.4655,-0.4661,-0.4665,0.0,0.0,0.0,0.0,0.0,0.0,0.0,0.0,0.0,0.0,0.0,0.0,0.0,0.0,0.0,0.0,0.0,0.0,0.0,0.0,-0.6828,-0.6965,-0.6847,-0.6816,-0.6953,-0.6602,-0.6545,-0.6753,-0.6222,-0.5979,-0.5884,-0.5946,-0.5842,-0.5586,-0.5488,-0.5413,0.0,0.0,-0.5428,-0.5428,-0.5428,-0.5504,0.0,0.0,0.0,0.0,0.0,0.0,0.0,0.0,-0.5281,-0.5428,-0.5428,-0.5428,-0.5439,-0.543,-0.5447,-0.5538,-0.5945,-0.6373,0.0,0.0,0.0,0.0,0.0,0.0,0.0,0.0,0.0,0.0,0.0,0.0,0.0,0.0,0.0,0.0,0.0,0.0,0.0,0.0,0.0,0.0,0.0,0.0,0.0,0.0,0.0,0.0,-0.4905,-0.4597,-0.4308,-0.4308,-0.4308,-0.4326,-0.4364,-0.4364,-0.4382,-0.4416,-0.4342,-0.4327,-0.4364,-0.4364,-0.4383,-0.4417,-0.444,-0.4451,-0.4455,-0.4515,-0.454,-0.4545,-0.4606,-0.4645,-0.4665,-0.4665,-0.4665,-0.4665,0.0,0.0,0.0,0.0,0.0,0.0,0.0,0.0,0.0,0.0,0.0,0.0,0.0,0.0,0.0,0.0,0.0,0.0,0.0,-0.644,-0.6538,-0.6684,-0.6759,-0.6951,-0.7216,-0.6902,-0.6814,-0.6985,-0.6452,-0.6026,-0.5806,-0.578,-0.5707,-0.5583,-0.5476,-0.5428,0.0,0.0,-0.5473,-0.5432,-0.5413,-0.5555,0.0,0.0,0.0,0.0,0.0,0.0,0.0,0.0,-0.5125,-0.5287,-0.5287,-0.5321,-0.5435,-0.542,-0.5501,-0.5637,-0.5932,-0.6386,-0.6943,0.0,0.0,0.0,0.0,0.0,0.0,0.0,0.0,0.0,0.0,0.0,0.0,0.0,0.0,0.0,0.0,0.0,0.0,0.0,0.0,0.0,0.0,0.0,0.0,0.0,0.0,0.0,0.0,-0.4386,-0.4362,-0.4362,-0.4362,-0.4383,-0.4424,-0.4425,-0.4444,-0.4481,-0.4401,-0.4384,-0.4425,-0.4425,-0.4446,-0.4484,-0.4503,-0.4511,-0.4516,-0.4576,-0.4602,-0.4606,-0.4649,-0.4665,-0.4662,-0.4643,-0.4647,-0.4661,0.0,0.0,0.0,0.0,0.0,0.0,0.0,0.0,0.0,0.0,0.0,0.0,0.0,0.0,0.0,0.0,0.0,0.0,-0.6178,-0.636,-0.6473,-0.6473,-0.6674,-0.6941,-0.7207,-0.697,-0.7242,-0.7874,-0.6937,-0.6224,-0.5724,-0.5797,-0.5644,-0.5425,-0.5425,0.0,0.0,0.0,0.0,0.0,-0.5525,-0.5589,-0.5572,0.0,0.0,0.0,0.0,0.0,0.0,0.0,-0.4884,-0.5128,-0.5128,-0.5237,-0.5459,-0.5545,-0.5796,-0.6095,-0.639,-0.6695,0.0,0.0,0.0,0.0,0.0,0.0,0.0,0.0,0.0,0.0,0.0,0.0,0.0,0.0,0.0,0.0,0.0,0.0,0.0,0.0,0.0,0.0,0.0,0.0,0.0,0.0,0.0,0.0,0.0,-0.4481,-0.4481,-0.4481,-0.4481,-0.4481,-0.4481,-0.4481,-0.4481,-0.4482,-0.4482,-0.4482,-0.4484,-0.4484,-0.4484,-0.4488,-0.4548,-0.4574,-0.4579,-0.4639,-0.4662,-0.4662,-0.4662,-0.4662,-0.4655,-0.4595,-0.461,-0.4654,0.0,0.0,0.0,0.0,0.0,0.0,0.0,0.0,0.0,0.0,0.0,0.0,0.0,0.0,0.0,0.0,0.0,0.0,-0.6178,-0.6229,-0.6267,-0.6267,-0.6323,-0.6332,-0.6221,-0.613,-0.6395,-0.6923,-0.6296,-0.5771,-0.5251,-0.542,-0.5389,-0.5189,-0.5336,0.0,0.0,0.0,0.0,0.0,-0.525,-0.5396,-0.5572,0.0,0.0,0.0,0.0,0.0,0.0,0.0,0.0,0.0,-0.5064,-0.5311,-0.5508,-0.5447,-0.5715,-0.6051,-0.6139,0.0,0.0,0.0,0.0,0.0,0.0,0.0,0.0,0.0,0.0,0.0,0.0,0.0,0.0,0.0,0.0,0.0,0.0,0.0,0.0,0.0,0.0,0.0,0.0,0.0,0.0,0.0,0.0,0.0,0.0,-0.4383,-0.436,-0.436,-0.436,-0.438,-0.4422,-0.4424,-0.4443,-0.4482,-0.4482,-0.4504,-0.4546,-0.4546,-0.457,-0.461,-0.463,-0.4636,-0.4635,-0.461,-0.4575,-0.4537,-0.4537,-0.4537,-0.4534,-0.4516,-0.4521,-0.4533,0.0,0.0,0.0,0.0,0.0,0.0,0.0,0.0,0.0,0.0,0.0,0.0,0.0,0.0,0.0,0.0,0.0,0.0,0.0,0.0,-0.6069,-0.6069,-0.6069,-0.5885,-0.5626,-0.5571,-0.5735,-0.6061,-0.5548,-0.5157,-0.486,-0.5258,-0.5346,-0.5206,0.0,-0.4896,0.0,0.0,0.0,0.0,-0.5199,-0.5335,-0.5491,0.0,0.0,0.0,0.0,0.0,0.0,0.0,0.0,0.0,-0.5186,-0.5292,-0.5304,-0.5149,-0.553,-0.5927,-0.6042,0.0,0.0,0.0,0.0,0.0,0.0,0.0,0.0,0.0,0.0,0.0,0.0,0.0,0.0,0.0,0.0,0.0,0.0,0.0,0.0,0.0,0.0,0.0,0.0,0.0,0.0,0.0,0.0,0.0,0.0,-0.4397,-0.4376,-0.4376,-0.4376,-0.4395,-0.4431,-0.4432,-0.4448,-0.4482,-0.4482,-0.4501,-0.4537,-0.4537,-0.4557,-0.4593,-0.4593,-0.4593,-0.459,-0.4552,-0.4515,-0.4482,-0.4482,-0.4482,-0.448,-0.4458,-0.4463,-0.4478,0.0,0.0,-0.3581,-0.3581,0.0,0.0,0.0,0.0,0.0,0.0,0.0,-0.4053,0.0,0.0,0.0,-0.4867,0.0,0.0,0.0,0.0,-0.5736,-0.5736,-0.574,-0.5596,-0.5304,-0.5251,-0.5254,-0.5327,-0.476,-0.4518,-0.4508,-0.5102,-0.5364,-0.5294,0.0,-0.4582,0.0,0.0,0.0,-0.5101,-0.5243,-0.5373,-0.5387,-0.5401,0.0,0.0,0.0,0.0,0.0,0.0,0.0,0.0,-0.5286,-0.5026,-0.4801,-0.464,-0.5134,-0.5745,0.0,0.0,0.0,0.0,0.0,0.0,0.0,0.0,0.0,0.0,0.0,0.0,0.0,0.0,0.0,0.0,0.0,0.0,0.0,0.0,0.0,0.0,0.0,0.0,0.0,0.0,0.0,0.0,0.0,0.0,0.0,-0.4463,-0.4466,-0.4466,-0.4466,-0.4466,-0.4466,-0.4466,-0.4466,-0.4466,-0.4466,-0.4466,-0.4467,-0.4477,-0.4482,-0.4482,-0.4482,-0.448,-0.4474,-0.4474,-0.4471,-0.4466,-0.4466,-0.4466,-0.4461,-0.4409,-0.4422,-0.4459,0.0,0.0,-0.3581,-0.3581,0.0,0.0,0.0,0.0,-0.3639,-0.367,-0.3771,-0.3853,-0.3887,-0.4155,0.0,-0.4714,-0.488,0.0,0.0,0.0,-0.5395,-0.5395,-0.523,-0.5144,-0.5298,-0.4905,-0.4682,-0.4685,-0.4545,-0.45,0.0,0.0,0.0,-0.4733,0.0,-0.5033,0.0,0.0,-0.4631,-0.4789,-0.4823,-0.4908,-0.5026,-0.5138,-0.5016,0.0,0.0,0.0,0.0,0.0,0.0,0.0,-0.4066,-0.4166,-0.4306,-0.4067,-0.4454,-0.51,0.0,0.0,0.0,0.0,0.0,0.0,0.0,0.0,0.0,0.0,0.0,0.0,0.0,0.0,0.0,0.0,0.0,0.0,0.0,0.0,0.0,0.0,0.0,0.0,0.0,0.0,0.0,0.0,0.0,0.0,-0.4273,-0.4319,-0.4345,-0.4345,-0.4345,-0.4345,-0.4345,-0.4345,-0.4345,-0.4345,-0.4345,-0.4345,-0.4348,-0.444,-0.4482,-0.4482,-0.4482,-0.4458,-0.4417,-0.4417,-0.4388,-0.4345,-0.4345,-0.4345,-0.4343,-0.4331,-0.4335,-0.4343,0.0,0.0,0.0,0.0,0.0,0.0,0.0,0.0,-0.3846,-0.37,-0.3744,-0.3819,-0.3894,-0.3978,0.0,0.0,-0.4485,-0.4628,0.0,0.0,0.0,-0.5117,-0.5011,-0.4959,-0.4908,-0.4629,-0.4519,-0.4519,-0.4485,0.0,0.0,0.0,0.0,-0.5144,0.0,-0.5109,0.0,0.0,-0.4571,-0.4691,-0.4691,-0.4782,-0.4918,-0.4918,-0.4746,-0.4392,-0.3979,0.0,0.0,0.0,0.0,0.0,0.0,0.0,-0.3755,-0.3584,-0.3866,-0.4311,0.0,0.0,0.0,0.0,0.0,0.0,0.0,0.0,0.0,0.0,0.0,0.0,0.0,0.0,0.0,0.0,0.0,0.0,0.0,0.0,0.0,0.0,0.0,0.0,0.0,0.0,0.0,0.0,0.0,-0.426,-0.426,-0.429,-0.4308,-0.4308,-0.4308,-0.4308,-0.4308,-0.4308,-0.4308,-0.4308,-0.4308,-0.4308,-0.4309,-0.4371,-0.4398,-0.4398,-0.4398,-0.4383,-0.4356,-0.4356,-0.4337,-0.4308,-0.4308,-0.4308,-0.4308,-0.4308,-0.4308,-0.4308,0.0,0.0,0.0,0.0,0.0,0.0,0.0,0.0,0.0,-0.3826,-0.3792,-0.3839,-0.3968,-0.3866,-0.3843,0.0,0.0,0.0,-0.4197,0.0,0.0,0.0,-0.4959,-0.4849,-0.4519,-0.4519,-0.4519,-0.4519,0.0,0.0,0.0,0.0,0.0,-0.5654,0.0,0.0,0.0,-0.4654,-0.4592,-0.4653,-0.4653,-0.4728,-0.4826,-0.4701,-0.4487,-0.4171,-0.3593,-0.3611,-0.3747,-0.3356,0.0,0.0,0.0,0.0,-0.3169,-0.3081,-0.3265,-0.3596,0.0,0.0,0.0,0.0,0.0,0.0,0.0,0.0,0.0,0.0,0.0,0.0,0.0,0.0,0.0,0.0,0.0,0.0,0.0,0.0,0.0,0.0,0.0,0.0,0.0,0.0,0.0,0.0,0.0,-0.4292,-0.4292,-0.4301,-0.4308,-0.4308,-0.4308,-0.4308,-0.4308,-0.4308,-0.4308,-0.4308,-0.4308,-0.4308,-0.4308,-0.4308,-0.4308,-0.4308,-0.4308,-0.4308,-0.4308,-0.4308,-0.4308,-0.4308,-0.4308,-0.4309,-0.4309,-0.4308,-0.4308,-0.4308,0.0,0.0,0.0,0.0,0.0,0.0,0.0,0.0,0.0,0.0,-0.3792,-0.3799,-0.3819,-0.3802,-0.3799,-0.3819,-0.4033,-0.4197,0.0,0.0,0.0,0.0,-0.4574,-0.4574,-0.4519,-0.4519,-0.4519,-0.4519,0.0,0.0,0.0,0.0,0.0,-0.5222,0.0,0.0,0.0,0.0,-0.449,-0.4549,-0.4549,-0.456,-0.4577,-0.4556,-0.4504,-0.4426,-0.3975,-0.3857,-0.3874,-0.3127,-0.2958,0.0,0.0,0.0,0.0,-0.2435,0.0,0.0,0.0,0.0,0.0,0.0,0.0,0.0,0.0,0.0,0.0,0.0,0.0,0.0,0.0,0.0,0.0,0.0,0.0,0.0,0.0,0.0,0.0,0.0,0.0,0.0,0.0,0.0,0.0,0.0,-0.4194,-0.4229,-0.4229,-0.4279,-0.4308,-0.4308,-0.4308,-0.4308,-0.4308,-0.4308,-0.4308,-0.4308,-0.4308,-0.4308,-0.4308,-0.4308,-0.4308,-0.4308,-0.4308,-0.4308,-0.4308,-0.4308,-0.4308,-0.4308,-0.4312,-0.4313,-0.4313,-0.4309,-0.4308,-0.4308,0.0,0.0,0.0,0.0,0.0,0.0,0.0,0.0,0.0,0.0,0.0,-0.3921,-0.3921,-0.3843,-0.3761,-0.368,-0.387,0.0,0.0,0.0,0.0,0.0,-0.4519,-0.4519,-0.4519,-0.4519,-0.4519,0.0,0.0,0.0,0.0,-0.6117,-0.6136,0.0,0.0,0.0,0.0,0.0,0.0,-0.4128,-0.4128,-0.4155,-0.4216,-0.388,-0.3812,-0.3852,-0.3532,-0.3459,-0.3419,-0.2884,-0.2711,-0.2696,-0.234,0.0,0.0,0.0,0.0,0.0,0.0,0.0,0.0,0.0,0.0,0.0,0.0,0.0,0.0,0.0,0.0,0.0,0.0,0.0,0.0,0.0,0.0,0.0,0.0,0.0,0.0,0.0,0.0,0.0,0.0,0.0,0.0,0.0,-0.4252,-0.4267,-0.4267,-0.4293,-0.4308,-0.4308,-0.4308,-0.4308,-0.4308,-0.4308,-0.4308,-0.4308,-0.4308,-0.4308,-0.4308,-0.4308,-0.4308,-0.4308,-0.4308,-0.4308,-0.4308,-0.4308,-0.4308,-0.4308,-0.4309,-0.4311,-0.4311,-0.4308,-0.4308,-0.4308,0.0,0.0,0.0,0.0,0.0,0.0,0.0,0.0,0.0,0.0,0.0,-0.4019,-0.4019,0.0,0.0,0.0,-0.371,0.0,0.0,0.0,0.0,0.0,0.0,-0.4519,-0.4519,-0.4519,0.0,0.0,0.0,0.0,-0.5448,-0.6398,-0.6718,0.0,-0.5861,0.0,0.0,0.0,0.0,-0.3708,-0.3826,-0.3873,-0.3844,-0.3459,-0.3474,-0.368,-0.3452,-0.3505,-0.3495,0.0,-0.2736,-0.2701,0.0,0.0,0.0,0.0,0.0,0.0,0.0,0.0,0.0,0.0,0.0,0.0,0.0,0.0,0.0,0.0,0.0,0.0,0.0,0.0,0.0,0.0,0.0,0.0,0.0,0.0,0.0,0.0,0.0,0.0,0.0,0.0,0.0,0.0,-0.4308,-0.4308,-0.4308,-0.4308,-0.4308,-0.4308,-0.4308,-0.4308,-0.4308,-0.4308,-0.4308,-0.4308,-0.4308,-0.4308,-0.4308,-0.4575,-0.471,-0.4708,-0.4442,-0.4308,-0.4308,-0.471,-0.4844,-0.4844,-0.4978,-0.5112,-0.5112,-0.4844,-0.4844,-0.4844,0.0,0.0,0.0,0.0,0.0,0.0,0.0,0.0,0.0,0.0,0.0,-0.4019,-0.4019,-0.3883,-0.3734,-0.3592,-0.371,0.0,0.0,0.0,0.0,0.0,0.0,0.0,0.0,0.0,0.0,0.0,0.0,0.0,-0.5424,-0.6073,-0.643,-0.6651,-0.6054,-0.5278,-0.4337,0.0,0.0,-0.3443,-0.3895,-0.3842,-0.3443,-0.3667,-0.412,-0.4591,-0.4271,0.0,0.0,0.0,0.0,0.0,-0.2266,-0.2084,-0.2133,0.0,0.0,0.0,0.0,0.0,0.0,0.0,0.0,0.0,0.0,0.0,0.0,0.0,0.0,0.0,0.0,0.0,0.0,0.0,0.0,0.0,0.0,0.0,0.0,0.0,0.0,0.0,0.0,0.0,0.0,0.0,-0.4308,-0.4308,-0.4308,-0.4308,-0.4308,-0.4308,-0.4308,-0.4308,-0.4308,-0.4308,-0.4308,-0.4308,-0.4308,-0.4308,-0.4308,-0.5377,-0.5778,-0.578,-0.4708,-0.4308,-0.4441,-0.5781,-0.6319,-0.6319,-0.7123,-0.7393,-0.7257,-0.6587,-0.6319,-0.6183,0.0,0.0,0.0,0.0,0.0,0.0,0.0,0.0,0.0,0.0,0.0,0.0,0.0,-0.4066,-0.4026,-0.3877,-0.3999,0.0,0.0,0.0,0.0,0.0,0.0,0.0,0.0,0.0,0.0,0.0,0.0,-0.4639,-0.4833,-0.5627,-0.5884,-0.5698,-0.5769,-0.529,-0.4388,-0.4394,0.0,0.0,-0.315,-0.3211,0.0,-0.2877,-0.324,-0.3797,-0.3501,0.0,0.0,0.0,0.0,-0.28,-0.2126,-0.1955,-0.2005,-0.2005,0.0,0.0,0.0,0.0,0.0,0.0,0.0,0.0,0.0,0.0,0.0,0.0,0.0,0.0,0.0,0.0,0.0,0.0,0.0,0.0,0.0,0.0,0.0,0.0,0.0,0.0,0.0,0.0,0.0,0.0,0.0,-0.4308,-0.4308,-0.4308,-0.4308,-0.4308,-0.4308,-0.4308,-0.4308,-0.4308,-0.4308,-0.4308,-0.4308,-0.4308,-0.4308,-0.5377,-0.5912,-0.5912,-0.618,-0.6311,-0.6447,-0.6849,-0.7116,-0.7116,-0.7386,-0.7791,-0.8064,-0.6855,-0.6453,-0.6319,0.0,0.0,0.0,-0.4623,0.0,-0.416,-0.406,-0.4053,-0.4039,-0.404,0.0,0.0,0.0,0.0,-0.4133,-0.4033,-0.4063,-0.414,-0.419,-0.4338,0.0,0.0,0.0,0.0,0.0,0.0,0.0,0.0,0.0,0.0,0.0,-0.5121,-0.5305,-0.5291,-0.5231,-0.4868,0.0,0.0,0.0,-0.2563,0.0,0.0,-0.284,0.0,-0.2951,-0.3528,0.0,0.0,0.0,0.0,0.0,0.0,-0.2187,-0.1989,-0.1917,-0.1936,-0.2092,0.0,0.0,0.0,0.0,0.0,0.0,0.0,0.0,0.0,0.0,0.0,0.0,0.0,0.0,0.0,0.0,0.0,0.0,0.0,0.0,0.0,0.0,0.0,0.0,0.0,0.0,0.0,0.0,0.0,0.0,0.0,-0.4278,-0.4296,-0.4308,-0.4308,-0.4308,-0.4308,-0.4308,-0.4308,-0.4308,-0.4308,-0.4308,-0.4308,-0.4307,-0.5778,-0.6445,-0.6579,-0.7915,-0.8182,-0.7514,-0.7915,-0.8048,-0.8048,-0.8448,-0.8856,-0.9128,-0.7789,-0.7118,-0.6851,-0.4584,-0.4585,-0.4636,-0.4549,-0.4351,-0.42,-0.4197,-0.4073,-0.4033,-0.4177,0.0,0.0,0.0,0.0,0.0,-0.4046,-0.4033,-0.4094,-0.4194,-0.4204,0.0,0.0,0.0,0.0,0.0,0.0,0.0,0.0,0.0,0.0,0.0,0.0,-0.4884,0.0,-0.4595,-0.3998,-0.3698,0.0,-0.3268,-0.2347,0.0,-0.2899,-0.2556,0.0,0.0,0.0,-0.3619,-0.3899,0.0,-0.3381,0.0,0.0,-0.2392,-0.2008,-0.1815,-0.1868,-0.197,0.0,0.0,0.0,0.0,0.0,0.0,0.0,0.0,0.0,0.0,0.0,0.0,0.0,0.0,0.0,0.0,0.0,0.0,0.0,0.0,0.0,0.0,0.0,0.0,0.0,0.0,0.0,0.0,0.0,-0.4263,-0.4271,-0.4214,-0.427,-0.4305,-0.4308,-0.4308,-0.4308,-0.4308,-0.4308,-0.4308,-0.4308,-0.4308,-0.4308,-0.4307,-0.6447,-0.7514,-0.7648,-0.9785,-0.9516,-0.7648,-0.8715,-0.9117,-0.925,-1.0319,-1.0721,-1.0588,-0.9516,-0.8448,-0.7648,-0.47,-0.4572,-0.4548,-0.4616,-0.4501,-0.4368,-0.421,-0.43,-0.4317,0.0,0.0,0.0,-0.4402,-0.4402,-0.4385,-0.4345,-0.4341,-0.4358,-0.4399,-0.4402,-0.4423,-0.4515,-0.4519,-0.4519,-0.4519,0.0,0.0,0.0,0.0,0.0,0.0,0.0,0.0,0.0,-0.4088,-0.3622,-0.3439,-0.3088,0.0,0.0,-0.2536,-0.2591,0.0,0.0,0.0,0.0,0.0,-0.3361,-0.3419,0.0,-0.2882,-0.2626,0.0,0.0,-0.1798,-0.1894,-0.1969,-0.2059,-0.205,0.0,0.0,0.0,0.0,0.0,0.0,0.0,0.0,0.0,0.0,0.0,0.0,0.0,0.0,0.0,0.0,0.0,0.0,0.0,0.0,0.0,0.0,0.0,0.0,0.0,0.0,0.0,-0.404,-0.406,-0.4083,-0.4184,-0.4262,-0.4307,-0.4308,-0.4308,-0.4308,-0.4308,-0.4308,-0.4308,-0.4308,-0.4308,-0.4307,-0.5778,-0.6713,-0.7514,-0.8984,-0.9649,-0.9785,-1.0183,-1.0319,-1.0319,-1.0585,-1.0721,-1.0588,-0.9516,-0.8848,-0.8715,-0.4652,-0.458,-0.4546,-0.4579,-0.4577,-0.4453,-0.4436,-0.445,-0.4453,0.0,0.0,0.0,-0.4519,-0.4575,-0.4602,-0.4529,-0.4519,-0.4519,-0.4519,-0.4519,-0.4519,-0.4519,-0.4519,-0.4519,-0.4519,0.0,0.0,0.0,0.0,0.0,0.0,0.0,0.0,0.0,-0.3468,-0.3092,-0.3011,-0.2514,0.0,0.0,-0.2474,0.0,0.0,-0.2894,-0.3003,0.0,0.0,0.0,-0.308,-0.3046,-0.2882,0.0,0.0,-0.2131,-0.2092,-0.2009,-0.2067,0.0,-0.2118,0.0,0.0,0.0,0.0,0.0,0.0,-0.2926,0.0,0.0,0.0,0.0,0.0,0.0,0.0,0.0,0.0,0.0,0.0,0.0,0.0,0.0,0.0,0.0,0.0,-0.3848,-0.3852,-0.3829,-0.3828,-0.3841,-0.3997,-0.4089,-0.4157,-0.4192,-0.4218,-0.4244,-0.4268,-0.427,-0.4282,-0.4308,-0.4308,-0.4308,-0.4308,-0.5377,-0.618,-0.6846,-0.7915,-0.8848,-0.9383,-0.9785,-1.0319,-1.0721,-1.0721,-1.0721,-1.0588,-1.005,-0.925,-0.8448,0.0,-0.4515,-0.4522,-0.4539,-0.4543,-0.4538,-0.4694,-0.4602,-0.4562,0.0,-0.4613,-0.4601,-0.4618,-0.4789,-0.4833,-0.4562,-0.4563,-0.4543,-0.4487,-0.4525,-0.4519,-0.4519,-0.4519,-0.4519,-0.4519,-0.4519,-0.4519,0.0,0.0,0.0,0.0,0.0,-0.3738,-0.3741,-0.291,-0.2563,-0.2574,-0.2136,0.0,-0.2353,-0.2604,-0.2848,0.0,0.0,-0.3195,-0.3274,-0.3184,-0.3189,-0.3149,-0.3142,-0.305,0.0,-0.2662,-0.2546,-0.2435,-0.2301,-0.2285,0.0,-0.2294,-0.2336,0.0,-0.2388,-0.2476,0.0,-0.2504,-0.2694,0.0,0.0,0.0,0.0,0.0,0.0,0.0,0.0,0.0,0.0,0.0,0.0,0.0,0.0,0.0,0.0,-0.3684,-0.3727,-0.3859,-0.3812,-0.3807,-0.3811,-0.394,-0.3988,-0.4019,-0.4025,-0.4078,-0.4132,-0.4187,-0.42,-0.4233,-0.4288,-0.4301,-0.4308,-0.4308,-0.5243,-0.5778,-0.5912,-0.6846,-0.7381,-0.7514,-0.8581,-0.9516,-1.0585,-1.0588,-1.0721,-1.0721,-1.0721,-0.9516,-0.7915,-0.4574,-0.468,-0.4775,-0.468,-0.4646,-0.4697,-0.485,-0.485,-0.484,-0.487,-0.4948,-0.5047,-0.5236,-0.5128,-0.5064,-0.5006,-0.4845,-0.4646,-0.4528,-0.4472,-0.4519,-0.4519,-0.4519,-0.4519,-0.4519,-0.4519,-0.4522,-0.4477,0.0,0.0,0.0,0.0,0.0,-0.3796,-0.3241,-0.2809,-0.2507,-0.2756,0.0,-0.3186,-0.2616,0.0,-0.3842,-0.3254,-0.3459,-0.4081,-0.3362,-0.3181,-0.3206,-0.3157,-0.3164,-0.3135,0.0,-0.2714,-0.2495,-0.2491,-0.2481,-0.2506,-0.2496,-0.2629,-0.2769,-0.2655,-0.2692,0.0,-0.2692,-0.271,-0.22,0.0,0.0,0.0,0.0,0.0,0.0,0.0,0.0,0.0,0.0,0.0,0.0,0.0,0.0,0.0,-0.3804,-0.3696,-0.3697,-0.3687,-0.3685,-0.3706,-0.3875,-0.3888,-0.3917,-0.3965,-0.3978,-0.3991,-0.4003,-0.4097,-0.415,-0.4162,-0.426,-0.4308,-0.4308,-0.4575,-0.5111,-0.5912,-0.618,-0.6713,-0.7514,-0.7781,-0.8448,-0.9516,-1.0319,-1.0721,-1.0721,-1.0721,-1.0452,-0.9918,-0.4952,-0.5135,-0.5223,-0.4962,-0.4987,-0.5062,-0.5167,-0.5074,-0.5104,-0.5332,-0.5488,-0.5525,-0.5442,-0.5362,-0.5298,-0.5145,-0.4931,-0.4772,-0.4516,-0.4502,-0.4482,-0.4522,-0.4519,-0.4519,-0.4519,-0.4519,-0.4522,-0.448,0.0,0.0,0.0,-0.3577,-0.3411,-0.3161,-0.2669,-0.2418,-0.2354,0.0,-0.3045,-0.3381,-0.3534,0.0,-0.4633,-0.3915,-0.3885,-0.4119,-0.3371,-0.3204,-0.3221,-0.3161,-0.3217,0.0,-0.31,-0.2891,-0.2699,0.0,-0.2753,-0.2761,-0.2762,-0.289,-0.2938,-0.2844,0.0,0.0,0.0,-0.28,-0.2691,-0.2286,0.0,0.0,0.0,0.0,0.0,0.0,0.0,0.0,0.0,0.0,0.0,0.0,0.0,0.0,-0.3887,-0.377,-0.377,-0.377,-0.3768,-0.3782,-0.3813,-0.3815,-0.3828,-0.386,-0.386,-0.3875,-0.3905,-0.3965,-0.4008,-0.404,-0.4159,-0.4217,-0.4218,-0.4279,-0.4575,-0.5111,-0.5111,-0.5377,-0.5912,-0.6447,-0.698,-0.7648,-0.8715,-0.9117,-0.9117,-0.9117,-0.8715,-0.8182,-0.5336,-0.5515,-0.5619,-0.5236,-0.535,-0.5456,-0.5473,-0.5338,-0.541,-0.5833,-0.602,-0.6,-0.5694,-0.5745,-0.5644,-0.5355,-0.5107,-0.4908,-0.4661,-0.4555,-0.4571,-0.4656,-0.4563,-0.4546,-0.4548,-0.4435,-0.4356,-0.4484,0.0,0.0,-0.2852,-0.2798,-0.2715,-0.2618,0.0,0.0,0.0,0.0,0.0,-0.3854,0.0,-0.5377,-0.5294,-0.4749,-0.4481,-0.421,-0.3485,-0.323,-0.3222,-0.3174,-0.3157,-0.3139,-0.3218,-0.313,0.0,0.0,0.0,-0.2997,0.0,0.0,-0.3016,-0.297,0.0,-0.2981,0.0,0.0,0.0,-0.4003,0.0,0.0,0.0,0.0,0.0,0.0,0.0,0.0,0.0,0.0,0.0,0.0,0.0,0.0,-0.3868,-0.3858,-0.3861,-0.3885,-0.3865,-0.3862,-0.3768,-0.377,-0.377,-0.377,-0.3758,-0.3775,-0.3824,-0.3837,-0.3867,-0.3917,-0.4034,-0.4097,-0.4112,-0.4222,-0.4279,-0.429,-0.4303,-0.4308,-0.4307,-0.5243,-0.5646,-0.5778,-0.698,-0.7514,-0.7514,-0.7514,-0.698,-0.618,-0.5336,-0.5554,-0.5718,-0.5557,-0.5585,-0.5634,-0.5728,-0.5735,-0.584,0.0,-0.6332,-0.6421,0.0,0.0,0.0,0.0,-0.5632,-0.5332,-0.5313,-0.4788,-0.4755,-0.5244,-0.4793,-0.4589,-0.486,-0.4083,-0.3968,-0.4494,-0.3241,0.0,0.0,-0.3128,-0.3251,-0.2665,-0.3555,0.0,0.0,0.0,-0.5155,0.0,-0.6471,-0.6282,0.0,-0.5189,-0.5078,-0.4877,-0.3684,-0.323,-0.3229,0.0,-0.3119,-0.3107,0.0,-0.3161,-0.3184,-0.3057,0.0,0.0,0.0,0.0,0.0,0.0,-0.3079,-0.3113,-0.2788,0.0,-0.2952,-0.2998,0.0,0.0,0.0,0.0,0.0,0.0,0.0,0.0,0.0,0.0,0.0,0.0,0.0,0.0,0.0,-0.3868,-0.3882,-0.376,-0.3899,-0.3885,-0.3763,-0.377,-0.377,-0.377,-0.3717,-0.3692,-0.3699,-0.3752,-0.3783,-0.3792,-0.3907,-0.3993,-0.4048,-0.4115,-0.4176,-0.423,-0.4283,-0.4308,-0.4308,-0.4441,-0.4441,-0.4708,-0.6713,-0.7514,-0.7514,-0.7514,-0.7381,-0.7247,-0.6273,-0.642,-0.6431,-0.5935,-0.6043,-0.615,-0.5971,-0.623,-0.6468,0.0,0.0,0.0,0.0,0.0,0.0,0.0,0.0,-0.6056,0.0,-0.5701,-0.5477,-0.5408,-0.5126,-0.4994,-0.4918,-0.4057,-0.3532,-0.3471,-0.2571,-0.2069,0.0,-0.2631,-0.2995,-0.2929,-0.3668,0.0,-0.4129,0.0,-0.5424,0.0,0.0,0.0,0.0,-0.6152,-0.556,-0.4632,-0.3612,-0.3152,-0.3176,0.0,-0.3356,0.0,0.0,0.0,0.0,-0.3127,0.0,0.0,0.0,0.0,0.0,0.0,0.0,0.0,-0.2888,0.0,-0.3056,0.0,0.0,0.0,0.0,0.0,0.0,0.0,0.0,0.0,0.0,0.0,0.0,0.0,0.0,0.0,0.0,0.0,0.0,0.0,-0.3616,-0.3754,-0.3763,-0.377,-0.3785,-0.3822,-0.3729,-0.3679,-0.3679,-0.3669,-0.3664,-0.3665,-0.3785,-0.3856,-0.3884,-0.398,-0.4075,-0.4165,-0.4191,-0.4243,-0.4308,-0.4308,-0.4308,-0.4441,-0.5243,-0.5644,-0.5644,-0.5644,-0.5644,-0.5646,-0.7381,0.0,-0.703,-0.6333,-0.6451,-0.6504,-0.6129,-0.6498,-0.6807,-0.682,0.0,0.0,-0.7279,-0.7197,0.0,0.0,-0.7082,-0.6965,0.0,-0.6444,-0.6138,-0.5739,-0.5593,-0.5317,-0.4903,-0.4036,-0.3275,-0.2719,-0.208,-0.1915,0.0,0.0,-0.2852,-0.3216,0.0,-0.4553,-0.4965,0.0,0.0,-0.6197,-0.6662,-0.6892,-0.6887,-0.651,-0.5681,-0.4634,-0.3552,-0.3181,-0.3214,-0.3497,-0.3401,0.0,-0.3289,-0.3268,-0.3247,0.0,0.0,0.0,-0.3185,0.0,0.0,0.0,0.0,0.0,0.0,0.0,-0.3112,0.0,0.0,0.0,0.0,0.0,0.0,0.0,0.0,0.0,0.0,0.0,0.0,0.0,0.0,0.0,0.0,0.0,0.0,0.0,0.0,-0.3556,-0.3711,-0.3751,-0.3797,-0.3858,-0.3774,-0.3721,-0.3703,-0.3643,-0.3604,-0.3589,-0.3677,-0.3728,-0.3748,-0.3853,-0.3974,-0.4102,-0.4119,-0.4195,-0.4308,-0.4308,-0.4308,-0.4308,-0.4308,-0.4308,-0.4308,-0.4308,-0.4308,-0.4308,-0.8594,-0.799,0.0,0.0,-0.6656,-0.6521,-0.6307,-0.6386,-0.6641,-0.7068,0.0,0.0,0.0,0.0,0.0,0.0,0.0,-0.798,-0.7902,-0.6908,-0.6376,-0.6647,-0.6043,-0.5491,-0.4976,-0.4097,-0.3327,-0.2704,-0.211,-0.2222,0.0,0.0,-0.3187,-0.3461,-0.4909,-0.5541,-0.5503,-0.6316,-0.7099,-0.7736,-0.7461,-0.7607,-0.7763,0.0,-0.5363,-0.5347,-0.3808,0.0,0.0,-0.3387,-0.3368,0.0,0.0,0.0,0.0,0.0,0.0,0.0,0.0,0.0,0.0,-0.3112,0.0,0.0,0.0,0.0,-0.3027,-0.297,-0.3049,-0.311,0.0,-0.3045,-0.3063,-0.3023,0.0,0.0,0.0,0.0,0.0,0.0,0.0,0.0,0.0,0.0,0.0,0.0,-0.3275,0.0,-0.358,-0.3704,-0.3797,-0.3858,-0.3857,-0.3826,-0.3767,-0.3706,-0.3646,-0.3587,-0.3591,-0.3624,-0.3683,-0.3747,-0.3871,-0.4041,-0.41,-0.4195,-0.4308,-0.4308,-0.4308,-0.4308,-0.4308,-0.4308,-0.4308,-0.4308,-0.4308,-0.4308,0.0,0.0,0.0,0.0,0.0,-0.6441,-0.6424,-0.678,-0.7156,0.0,0.0,0.0,0.0,-0.795,-0.8052,0.0,0.0,-0.8098,-0.8027,-0.7468,-0.6653,-0.542,-0.5533,-0.5238,-0.4457,-0.3737,-0.3156,-0.2766,-0.2624,-0.2633,0.0,0.0,0.0,0.0,0.0,-0.6016,0.0,0.0,0.0,0.0,0.0,-0.7351,-0.7123,0.0,-0.5518,-0.544,-0.3829,-0.3265,0.0,-0.3418,-0.3398,-0.3377,-0.3358,-0.3311,-0.3268,-0.3309,-0.3308,-0.3292,0.0,0.0,-0.3263,-0.3139,0.0,0.0,0.0,0.0,0.0,-0.2962,-0.3023,-0.3074,-0.3052,-0.3049,-0.3056,-0.3074,-0.3078,0.0,0.0,0.0,0.0,0.0,0.0,0.0,0.0,0.0,0.0,0.0,-0.3243,0.0,0.0,-0.3605,-0.3714,-0.3856,-0.3822,-0.3809,-0.383,-0.377,-0.3707,-0.3647,-0.3647,-0.3636,-0.3619,-0.3639,-0.3726,-0.3862,-0.3924,-0.4041,-0.4189,-0.423,-0.4271,-0.4308,-0.4308,-0.4308,-0.4308,-0.4308,-0.4308,-0.4308,-0.9117,0.0,0.0,0.0,0.0,0.0,-0.6654,-0.7054,0.0,0.0,-0.7753,0.0,-0.8099,0.0,-0.8014,0.0,-0.8316,-0.8227,-0.8176,-0.7897,0.0,-0.5078,-0.4759,-0.4528,-0.4122,-0.3618,-0.3107,-0.2667,-0.284,-0.3008,-0.3172,0.0,0.0,0.0,0.0,0.0,-0.6797,0.0,-0.7512,0.0,0.0,-0.703,0.0,0.0,-0.5224,-0.5081,0.0,-0.3313,-0.3465,-0.3448,-0.3308,-0.3271,-0.336,-0.3312,-0.327,-0.3311,-0.3309,-0.3294,-0.329,-0.3275,0.0,-0.3161,-0.311,0.0,-0.3004,0.0,-0.3049,0.0,-0.3089,-0.3146,-0.3146,-0.311,-0.3089,-0.3109,-0.3095,-0.304,0.0,-0.2837,0.0,0.0,0.0,0.0,0.0,0.0,-0.3067,-0.3189,-0.3179,0.0,0.0,-0.3511,-0.3628,-0.379,-0.38,-0.382,-0.386,-0.3822,-0.3771,-0.371,-0.3688,-0.3658,-0.3619,-0.3597,-0.3654,-0.3771,-0.3811,-0.3942,-0.4128,-0.4168,-0.4233,-0.4308,-0.4308,-0.4308,-0.4308,-0.4308,-0.4308,-0.4308,-0.8724,0.0,0.0,0.0,-0.6859,0.0,0.0,0.0,-0.7499,0.0,-0.7838,-0.7957,-0.8248,-0.8282,-0.8282,-0.8282,-0.8282,-0.8319,-0.8475,-0.8238,0.0,0.0,-0.4062,-0.3395,-0.3875,-0.3714,-0.3187,-0.2437,-0.2817,-0.3257,-0.3768,0.0,0.0,0.0,-0.5691,0.0,-0.6532,-0.7192,-0.7674,-0.7939,-0.7138,-0.681,-0.6716,-0.5079,-0.4462,-0.4378,-0.3669,-0.3354,-0.3424,-0.3367,-0.3309,-0.3331,-0.3386,-0.3364,-0.3318,-0.332,-0.3361,-0.3379,-0.3266,-0.3275,-0.3289,-0.3173,-0.3142,0.0,0.0,0.0,-0.321,0.0,-0.3237,-0.3322,-0.3214,-0.3124,-0.3066,-0.3112,-0.3069,-0.2988,0.0,0.0,0.0,0.0,0.0,0.0,0.0,0.0,-0.3008,-0.3131,-0.3083,0.0,0.0,-0.3427,-0.3545,-0.367,-0.3792,-0.3857,-0.386,-0.3862,-0.3834,-0.3773,-0.3714,-0.3684,-0.3676,-0.3619,-0.3653,-0.376,-0.3763,-0.3895,-0.4109,-0.4117,-0.4191,-0.4298,-0.4305,-0.4308,-0.4308,-0.4308,-0.4308,-0.4308,-0.8859,-0.7928,-0.7144,0.0,-0.685,-0.6817,0.0,0.0,0.0,0.0,-0.8245,-0.834,-0.8418,-0.8428,-0.8428,-0.8428,-0.8428,0.0,0.0,0.0,0.0,-0.4278,-0.3635,-0.339,-0.3333,-0.3252,-0.3001,-0.2689,-0.3168,-0.3433,-0.363,0.0,0.0,0.0,0.0,0.0,-0.5761,-0.65,-0.7283,-0.7949,-0.714,-0.6481,-0.5913,0.0,-0.431,-0.3777,-0.3485,-0.3378,-0.347,-0.3335,-0.3277,-0.3316,-0.3286,-0.3266,-0.3263,-0.3308,-0.33,-0.3281,-0.3294,-0.3277,-0.3247,-0.3215,-0.3173,-0.3135,0.0,0.0,0.0,0.0,0.0,-0.3308,-0.3262,-0.3266,-0.3236,-0.3017,-0.3103,-0.3007,0.0,0.0,0.0,-0.289,0.0,0.0,0.0,-0.3011,-0.3008,-0.3131,-0.3083,0.0,0.0,0.0,-0.3441,-0.3605,-0.3729,-0.3813,-0.386,-0.3905,-0.3897,-0.3837,-0.3822,-0.3766,-0.3677,-0.3662,-0.3647,-0.3636,-0.3681,-0.3762,-0.3871,-0.4003,-0.4104,-0.4181,-0.4271,-0.4308,-0.4308,-0.4308,-0.4308,-0.4308,-0.8324,0.0,0.0,-0.7316,0.0,0.0,-0.7729,-0.7862,0.0,-0.8238,-0.834,0.0,-0.8391,-0.8445,-0.8482,-0.8482,-0.8164,0.0,-0.7981,0.0,0.0,-0.3577,-0.3427,-0.3418,-0.3233,-0.3155,-0.3113,-0.3258,-0.3526,0.0,-0.4061,0.0,0.0,0.0,0.0,-0.4886,0.0,-0.6184,-0.6982,-0.7431,-0.6688,-0.595,0.0,-0.4444,-0.3932,-0.3496,-0.3496,-0.348,-0.3451,-0.3285,-0.3227,-0.3275,-0.3241,-0.323,-0.3237,-0.3271,-0.3258,-0.3238,-0.3273,-0.3256,-0.323,-0.323,-0.3204,-0.318,-0.318,-0.318,-0.318,0.0,-0.3234,-0.3288,-0.341,-0.3273,-0.3209,-0.3105,-0.3034,-0.3052,0.0,0.0,0.0,0.0,-0.2875,0.0,-0.3048,-0.3092,-0.3091,-0.3093,-0.3068,0.0,0.0,0.0,-0.3525,-0.4096,-0.3923,-0.4034,-0.4458,-0.4529,-0.4789,-0.5231,-0.4714,-0.4402,-0.4293,-0.392,-0.3644,-0.359,-0.3624,-0.3688,-0.3779,-0.3906,-0.4025,-0.4138,-0.4789,-0.5243,-0.5646,-0.5646,-0.5377,-0.4977,-0.7519,0.0,0.0,0.0,0.0,0.0,0.0,-0.7999,0.0,-0.8306,0.0,-0.836,-0.836,-0.8469,-0.854,-0.8434,0.0,-0.7518,-0.7726,-0.6658,-0.5143,-0.3247,-0.3456,-0.3469,-0.3359,-0.3283,-0.3361,-0.3701,-0.3858,-0.4152,-0.4659,0.0,0.0,0.0,0.0,0.0,0.0,-0.5983,-0.6597,-0.6716,-0.5911,-0.5193,-0.4586,-0.3823,-0.3496,-0.3495,-0.3588,-0.3441,-0.3392,-0.3235,-0.3178,-0.323,-0.323,-0.323,-0.323,-0.323,-0.323,-0.323,-0.323,-0.323,-0.323,-0.323,-0.323,-0.323,-0.323,-0.323,-0.323,-0.323,-0.3237,-0.3275,-0.3487,-0.3264,0.0,0.0,0.0,-0.31,0.0,0.0,0.0,0.0,0.0,0.0,0.0,-0.3035,-0.3066,-0.3031,-0.3123,0.0,0.0,0.0,-0.4047,-0.4783,-0.4336,-0.4599,-0.5518,-0.5483,-0.602,-0.6886,-0.595,-0.5501,-0.5403,-0.4521,-0.3993,-0.3921,-0.3921,-0.3987,-0.41,-0.4176,-0.4327,-0.4652,-0.5714,-0.6713,-0.7514,-0.7514,-0.698,-0.6313,0.0,0.0,0.0,0.0,0.0,-0.8034,-0.7553,-0.7988,-0.8459,-0.8615,-0.8743,-0.8821,-0.8821,-0.8845,-0.8526,-0.7856,-0.81,0.0,0.0,0.0,0.0,-0.3379,-0.3293,-0.3402,-0.3593,-0.3345,-0.3219,-0.3205,-0.3949,-0.4288,-0.4189,0.0,0.0,0.0,0.0,0.0,-0.4355,-0.5263,0.0,-0.5801,-0.5049,-0.4717,-0.4586,-0.3823,-0.3496,-0.3484,-0.3493,-0.3346,-0.3335,-0.3221,-0.3178,-0.323,-0.323,-0.323,-0.323,-0.323,-0.323,-0.323,-0.323,-0.323,-0.323,-0.323,-0.323,-0.323,-0.323,-0.323,-0.323,-0.323,-0.327,-0.3312,-0.3334,0.0,0.0,0.0,0.0,0.0,0.0,0.0,0.0,0.0,0.0,-0.2909,0.0,-0.286,-0.2912,-0.2965,0.0,0.0,0.0,0.0,-0.5282,0.0,-0.5643,0.0,0.0,0.0,-0.6559,-0.6888,-0.6747,-0.6517,-0.6336,-0.6201,-0.5981,-0.5817,-0.5817,-0.5837,-0.5881,-0.5946,-0.6235,-0.6584,-0.7037,-0.7381,-0.7514,-0.7514,-0.7915,-0.8448,0.0,0.0,0.0,0.0,0.0,0.0,0.0,-0.863,-0.8889,-0.873,-0.8774,-0.8821,-0.8821,-0.8893,-0.8602,-0.7703,-0.7776,-0.7391,-0.6352,-0.5973,-0.506,-0.3521,-0.3225,-0.3213,-0.3367,-0.3414,-0.3288,-0.3092,-0.3491,-0.381,-0.4138,-0.5009,-0.5173,0.0,0.0,-0.4242,0.0,0.0,0.0,-0.6187,-0.6032,-0.5581,-0.4901,-0.4432,-0.4178,-0.3923,-0.3549,-0.3301,-0.3274,-0.3172,-0.3153,-0.323,-0.323,-0.323,-0.323,-0.323,-0.323,-0.323,-0.323,-0.323,-0.323,-0.323,-0.323,-0.323,-0.323,-0.323,-0.323,-0.323,-0.3279,-0.3331,-0.3362,-0.3345,0.0,-0.3244,-0.3207,0.0,0.0,0.0,-0.3094,0.0,0.0,0.0,0.0,0.0,0.0,0.0,0.0,0.0,0.0,0.0,-0.6085,0.0,0.0,0.0,-0.7272,0.0,-0.7744,-0.8355,-0.7867,-0.7501,-0.7275,-0.6803,-0.6458,-0.6262,-0.6262,-0.6262,-0.6286,-0.6608,-0.7136,-0.7912,-0.8202,-0.8715,-0.9117,-0.9117,-0.9516,-0.9785,0.0,-0.8513,0.0,0.0,-0.8595,0.0,-0.8745,-0.9094,-0.9256,-0.8899,-0.8825,-0.8804,-0.8804,-0.8886,-0.8602,-0.7703,-0.7268,-0.6684,-0.5832,-0.4395,-0.3599,-0.3648,-0.3364,-0.3232,-0.3239,-0.3388,-0.3274,-0.3179,-0.2963,-0.3199,-0.3846,-0.4938,-0.5444,-0.5574,0.0,0.0,0.0,0.0,-0.6647,-0.6361,-0.6658,-0.6187,-0.5405,-0.5428,-0.5139,-0.4656,-0.3715,-0.3268,-0.323,-0.3244,-0.3241,-0.323,-0.323,-0.324,-0.3249,-0.3249,-0.3259,-0.3268,-0.3268,-0.326,-0.3249,-0.3249,-0.324,-0.323,-0.323,-0.323,-0.3234,-0.3247,-0.3308,-0.3369,-0.3405,-0.3413,0.0,0.0,0.0,0.0,0.0,0.0,0.0,0.0,0.0,0.0,-0.4459,0.0,0.0,0.0,0.0,0.0,-0.6255,0.0,0.0,0.0,0.0,-0.7089,-0.8283,0.0,-0.88,-0.9822,-0.9089,-0.8585,-0.8215,-0.7508,-0.7031,-0.6821,-0.6821,-0.6821,-0.6855,-0.7311,-0.8047,-0.8922,-0.935,-0.9918,-1.0721,-1.0721,-1.0721,-1.0588,0.0,0.0,0.0,0.0,0.0,0.0,-0.8225,-0.8813,-0.9364,-0.9323,-0.9198,-0.9113,-0.9113,-0.9008,-0.8602,-0.7703,-0.6818,-0.5699,-0.4019,-0.3688,-0.3552,-0.3601,-0.3602,-0.3577,-0.3512,-0.341,-0.3318,-0.3318,-0.3095,-0.2842,-0.2733,-0.4528,-0.5732,-0.6214,-0.5849,0.0,0.0,-0.6563,-0.6168,-0.54,-0.5214,-0.5661,-0.6494,-0.6487,-0.612,-0.5368,-0.3755,-0.3224,-0.3228,-0.3292,-0.3275,-0.323,-0.323,-0.3268,-0.3313,-0.3313,-0.3352,-0.3395,-0.3395,-0.3356,-0.3313,-0.3313,-0.3271,-0.323,-0.323,-0.323,-0.3245,-0.3301,-0.3402,-0.3466,-0.3421,-0.3413,-0.3392,0.0,0.0,0.0,0.0,0.0,-0.4259,-0.4197,0.0,0.0,0.0,-0.5574,0.0,0.0,-0.5576,0.0,-0.7399,0.0,0.0,-0.818,-0.8233,-0.8514,-0.9057,-0.9208,-0.9422,-0.9822,-0.9697,-0.9546,-0.9265,-0.9149,-0.8987,-0.8605,-0.8605,-0.8605,-0.8647,-0.9337,-0.9585,-0.9777,-1.036,-1.0588,-1.0721,-1.0721,-1.0721,-1.0721,0.0,0.0,0.0,0.0,0.0,0.0,0.0,-0.9314,-0.9646,-0.9646,-0.9439,-0.9289,-0.9289,-0.9239,-0.8824,-0.7829,-0.715,-0.5877,-0.3687,-0.3579,-0.357,-0.365,-0.3649,-0.3621,-0.356,-0.3347,-0.3387,-0.3443,-0.3223,-0.3364,-0.3815,-0.5615,-0.6717,-0.7351,0.0,-0.727,-0.7368,-0.755,-0.737,-0.6883,-0.6941,-0.7164,-0.741,-0.7486,-0.7021,-0.6297,-0.5448,-0.4966,-0.4814,-0.4854,-0.4126,-0.3292,-0.3328,-0.3357,-0.3376,-0.3376,-0.3394,-0.3413,-0.3413,-0.3395,-0.3472,-0.395,-0.4018,-0.4087,-0.4545,-0.4634,-0.4659,-0.485,-0.5006,-0.5132,-0.5154,-0.4962,-0.4878,-0.4843,0.0,0.0,0.0,0.0,0.0,-0.5048,0.0,-0.5898,0.0,0.0,0.0,0.0,0.0,-0.6838,-0.7554,-0.7784,0.0,-0.8126,0.0,-0.8696,-0.915,-0.9303,-0.953,-0.9822,-0.9822,-0.9666,-0.9381,-0.9381,-0.9222,-0.894,-0.894,-0.8988,-0.9106,-0.9612,-0.9876,-1.0012,-1.0521,-1.0721,-1.0721,-1.0721,-1.0721,-1.0721,-0.9503,0.0,-0.9384,0.0,-0.951,-0.9547,-0.9656,-0.9754,-0.9822,-0.9822,-0.9639,-0.9496,-0.9452,-0.9408,-0.9106,-0.8311,-0.797,-0.6878,-0.4834,-0.4955,-0.5172,-0.5139,-0.5137,0.0,-0.5116,-0.493,-0.4766,-0.4517,-0.4159,-0.4025,-0.4191,-0.6334,-0.7574,-0.7963,-0.8111,-0.8167,-0.8113,-0.8177,-0.8126,-0.8061,-0.8269,-0.8166,-0.8054,-0.8204,-0.7769,-0.7247,-0.6853,-0.6521,-0.631,-0.6135,-0.5212,-0.4278,-0.429,-0.4308,-0.4329,-0.4351,-0.4373,-0.4385,-0.4365,-0.4342,-0.4414,-0.4859,-0.5006,-0.5054,-0.5597,-0.5658,-0.5675,-0.581,-0.6112,-0.6284,-0.6248,-0.6089,-0.5941,-0.5941,0.0,0.0,0.0,-0.5834,0.0,-0.5881,-0.6342,-0.6689,-0.6645,-0.6998,0.0,0.0,0.0,-0.7406,-0.7691,-0.7938,0.0,0.0,0.0,0.0,-0.915,-0.9303,-0.953,-0.9822,-0.9822,-0.9666,-0.9378,-0.9289,-0.9137,-0.894,-0.894,-0.9022,-0.9184,-0.9591,-0.9873,-1.0093,-1.0493,-1.068,-1.0721,-1.0721,-1.0721,-1.0721,-0.9788,-0.9815,-0.9815,-0.9815,-0.9815,-0.9815,-0.9819,-0.9819,-0.9822,-0.9822,-0.9819,-0.9764,-0.9622,-0.9473,-0.9381,-0.9378,-0.9278,-0.8634,-0.7212,-0.8268,-0.8804,0.0,0.0,-0.8806,-0.8879,-0.8799,-0.8118,-0.665,-0.6105,-0.4949,-0.3279,-0.6538,-0.8004,-0.8014,-0.8375,-0.8435,-0.8258,-0.8106,-0.813,-0.8272,-0.8272,-0.8272,-0.8286,-0.8529,-0.8584,-0.8371,-0.753,-0.7399,-0.7414,-0.6664,-0.6434,-0.6483,-0.6277,-0.6286,-0.6391,-0.6492,-0.6597,-0.6657,-0.6443,-0.6454,-0.6345,-0.6236,-0.6054,-0.5899,-0.5899,-0.5713,-0.5694,-0.5898,-0.611,-0.6262,-0.6262,-0.6089,-0.5941,-0.5941,0.0,0.0,0.0,-0.6331,0.0,-0.6566,-0.7209,-0.7539,-0.7387,-0.737,0.0,0.0,0.0,-0.7707,-0.8004,-0.7957,0.0,-0.8262,-0.8408,0.0,-0.915,-0.9303,-0.953,-0.9822,-0.9822,-0.9666,-0.9371,-0.9079,-0.8944,-0.894,-0.894,-0.9022,-0.9178,-0.9486,-0.9785,-1.008,-1.0378,-1.0585,-1.0721,-1.0721,-1.0721,-1.0721,-0.9812,-0.9822,-0.9822,-0.9822,-0.9822,-0.9822,-0.9822,-0.9822,-0.9822,-0.9822,-0.9822,-0.9802,-0.9758,-0.971,-0.9642,0.0,-0.8943,-0.8645,0.0,-0.8156,-0.8217,-0.8878,-0.8868,-0.8917,-0.8886,-0.894,-0.8716,-0.8216,0.0,0.0,0.0,-0.697,-0.8209,-0.864,-0.8584,-0.8523,-0.8454,-0.8404,-0.837,-0.8414,-0.8414,-0.8414,-0.8431,-0.8581,-0.8638,-0.8652,-0.8432,-0.8553,-0.8568,-0.8389,-0.8382,-0.8496,-0.8506,-0.7662,-0.6712,-0.7214,-0.7016,-0.6679,-0.665,-0.6616,-0.666,-0.703,-0.7144,-0.7133,-0.7507,-0.7583,-0.7635,-0.7617,-0.7852,-0.8048,-0.8048,-0.7822,-0.7635,-0.7635,-0.7412,0.0,-0.7238,0.0,-0.7621,-0.7575,-0.7641,-0.7726,-0.7675,-0.7584,0.0,0.0,0.0,0.0,-0.777,0.0,0.0,0.0,-0.8563,0.0,-0.915,-0.9303,-0.953,-0.9822,-0.9822,-0.9666,-0.9371,-0.9072,-0.894,-0.894,-0.894,-0.9079,-0.9323,-0.9527,-0.9846,-1.0226,-1.0419,-1.0585,-1.0721,-1.0721,-1.0721,-1.0721,-0.9822,-0.9822,-0.9822,-0.9822,-0.9822,-0.9822,-0.9822,-0.9822,-0.9822,-0.9822,-0.9822,-0.9822,-0.9822,-0.9822,0.0,-0.9696,-0.92,-0.9023,-0.9479,-0.8756,-0.8574,-0.9128,-0.9,-0.8934,-0.8907,-0.891,0.0,-0.8913,-0.8418,-0.7731,-0.6666,-0.7858,-0.8515,-0.8845,-0.8735,-0.8625,-0.8511,-0.8523,-0.8516,-0.8574,-0.8628,-0.8686,-0.875,-0.8906,-0.8964,-0.8974,-0.9069,-0.9198,-0.9323,-0.9323,-0.9388,-0.9483,-0.9459,-0.8673,-0.776,-0.8334,-0.8239,-0.7867,-0.7822,-0.7811,-0.788,-0.8246,-0.8264,-0.8229,-0.8344,-0.8377,-0.8418,-0.8472,-0.8679,-0.8869,-0.8927,-0.8733,-0.855,-0.8489,-0.8282,-0.8106,-0.8048,-0.8038,-0.8018,-0.796,0.0,0.0,0.0,-0.7699,-0.7678,0.0,0.0,0.0,0.0,0.0,-0.8459,-0.8523,-0.8701,-0.8937,-0.9235,-0.9391,-0.9588,-0.9819,-0.9707,-0.953,-0.9289,-0.9049,-0.894,-0.894,-0.894,-0.9106,-0.9388,-0.9486,-0.9822,-1.029,-1.0378,-1.0538,-1.0721,-1.0721,-1.0721,-1.0721,-0.9822,-0.9822,-0.9822,0.0,-0.9822,-0.9822,-0.9822,-0.9822,-0.9822,-0.9822,-0.9822,-0.9822,-0.9822,-0.9822,-0.9822,-0.9822,0.0,0.0,-0.9632,-0.9748,-0.9679,-0.9525,-0.9155,-0.8967,-0.8937,-0.8924,-0.8917,-0.8917,-0.9468,-0.9359,-0.8635,-0.8843,-0.8948,-0.8948,-0.8948,-0.873,-0.8513,-0.8513,-0.8598,-0.8737,-0.8879,-0.9018,-0.9154,-0.9306,-0.9364,-0.9367,-0.9378,-0.9473,-0.9595,-0.9595,-0.9595,-0.9595,-0.9473,-0.9493,-0.9439,-0.9724,-0.9805,-0.9781,-0.9656,-0.9625,-0.9588,-0.9435,-0.9273,-0.9039,-0.8598,-0.8394,-0.8333,-0.8445,-0.8598,-0.8754,-0.8896,-0.8798,-0.8648,-0.8506,-0.8353,-0.8204,-0.8058,-0.8038,-0.7987,0.0,0.0,0.0,-0.7645,-0.7661,-0.7738,0.0,0.0,0.0,0.0,0.0,-0.847,-0.8618,-0.8801,-0.9096,-0.9395,-0.9537,-0.9676,-0.9802,-0.9517,-0.93,-0.9147,-0.9005,-0.894,-0.894,-0.895,-0.9117,-0.9384,-0.9405,-0.9754,-1.0283,-1.029,-1.047,-1.0721,-1.0721,-1.0721,-1.0721,0.0,0.0,-0.9822,-0.9822,-0.9822,-0.9822,-0.9822,-0.9822,-0.9822,-0.9822,-0.9822,-0.9822,-0.9822,-0.9822,-0.9822,-0.9822,-0.9822,-0.9805,-0.9774,-0.9771,-0.983,-0.9686,-0.9676,-0.9604,-0.9568,-0.9329,-0.915,-0.915,-0.9123,-0.9189,-0.945,-0.9109,-0.8941,-0.8941,-0.8941,-0.8832,-0.8828,-0.8828,-0.8852,-0.8889,-0.8923,-0.8957,-0.9005,-0.9154,-0.9208,-0.9222,-0.934,-0.9405,-0.9435,-0.9435,-0.9435,-0.9435,-0.9315,-0.9292,-0.9418,-0.9483,-0.9536,-0.9556,-0.9751,-0.9771,-0.9737,-0.9591,-0.9354,-0.9066,-0.8733,-0.8628,-0.8554,-0.836,-0.853,-0.872,-0.8757,-0.8638,-0.8523,-0.8486,-0.8265,-0.8082,-0.8045,-0.8038,-0.8024,0.0,-0.7985,-0.7899,-0.795,-0.7969,-0.7905,0.0,0.0,-0.8061,-0.8269,-0.8591,-0.8897,-0.9166,-0.9123,-0.9249,-0.9554,-0.9591,-0.9629,-0.9656,-0.9469,-0.93,-0.9147,-0.9005,-0.894,-0.8944,-0.9055,-0.9208,-0.9398,-0.9625,-0.9941,-1.029,-1.0399,-1.0555,-1.0721,-1.0721,-1.0721,-1.0721,-0.9822,-0.9822,-0.9822,-0.9822,-0.9822,-0.9822,-0.9822,-0.9822,-0.9822,-0.9822,-0.9822,-0.9822,-0.9822,-0.9822,-0.9822,-0.9822,-0.9822,-0.9822,-0.9822,-0.9822,-0.9788,-0.9834,-0.983,-0.9761,-0.9849,-0.9521,-0.9175,-0.9034,-0.9008,-0.9092,-0.9398,-0.9089,-0.894,-0.894,-0.894,-0.894,-0.894,-0.894,-0.8977,-0.9035,-0.9035,-0.9079,-0.915,-0.9228,-0.9256,-0.9269,-0.9351,-0.9381,-0.9381,-0.9381,-0.9337,-0.9276,-0.9276,-0.9228,-0.9208,-0.9119,-0.9449,-0.9645,-0.9602,-0.9673,-0.9844,-0.971,-0.9479,-0.9215,-0.9052,-0.8804,-0.8581,-0.8489,-0.8492,-0.855,-0.8686,-0.8584,-0.8482,-0.8482,-0.8292,-0.8123,-0.8052,-0.8038,-0.7965,-0.8032,-0.8008,-0.8054,-0.8245,-0.8213,-0.8223,-0.8143,-0.8277,0.0,-0.8577,-0.8862,-0.9037,-0.9168,-0.9264,-0.9371,-0.9608,-0.9608,-0.9574,-0.9503,-0.9351,-0.9201,-0.9052,-0.8974,-0.894,-0.8947,-0.9089,-0.9239,-0.9398,-0.9629,-0.9944,-1.0287,-1.0365,-1.0527,-1.0721,-1.0721,-1.0721,-1.0721,-0.9822,-0.9822,-0.9822,-0.9822,-0.9822,-0.9822,-0.9822,-0.9822,-0.9822,-0.9822,-0.9822,-0.9822,-0.9822,-0.9822,-0.9822,-0.9822,-0.9822,-0.9822,-0.9822,-0.9822,-0.9822,-0.9822,-0.9822,-0.9768,-0.9768,-0.9618,-0.9222,-0.8917,-0.8917,-0.885,-0.894,-0.894,-0.894,-0.894,-0.894,-0.894,-0.894,-0.894,-0.9008,-0.912,-0.912,-0.9198,-0.9313,-0.9313,-0.9313,-0.9313,-0.9313,-0.9313,-0.9313,-0.9313,-0.9228,-0.912,-0.912,-0.9035,-0.885,-0.8854,-0.9211,-0.968,-0.9487,-0.9614,-0.9761,-0.9761,-0.9618,-0.9435,-0.9391,-0.8984,-0.8635,-0.8699,-0.853,-0.8442,-0.8669,-0.8584,-0.8482,-0.8482,-0.8343,-0.8191,-0.8058,0.0,-0.8019,-0.8041,-0.8097,-0.8267,-0.858,-0.8482,-0.8489,-0.8407,-0.8725,-0.8918,-0.8855,-0.9116,-0.9106,-0.9008,-0.9273,-0.949,-0.9639,-0.9618,-0.9534,-0.9381,-0.9225,-0.9079,-0.894,-0.894,-0.894,-0.8947,-0.9089,-0.9239,-0.9395,-0.9568,-0.9893,-1.0283,-1.0304,-1.048,-1.0721,-1.0721,-1.0721,-1.0721,-0.9822,-0.9822,-0.9822,-0.9822,-0.9822,-0.9822,-0.9822,-0.9822,-0.9822,-0.9822,-0.9822,-0.9822,-0.9822,-0.9822,-0.9822,-0.9822,-0.9822,-0.9822,-0.9822,-0.9822,-0.9822,-0.9822,-0.9822,-0.9812,-0.9791,-0.9792,-0.9459,-0.8917,-0.8897,-0.894,-0.894,-0.894,-0.894,-0.894,-0.894,-0.894,-0.894,-0.894,-0.895,-0.8974,-0.8974,-0.8988,-0.9008,-0.9008,-0.9008,-0.9008,-0.9008,-0.9008,-0.9008,-0.9008,-0.8991,-0.8974,-0.8974,-0.8957,-0.8944,-0.8853,-0.8988,-0.9062,-0.9195,-0.9493,-0.9615,-0.9639,-0.9696,-0.9686,-0.9439,-0.931,-0.914,-0.8784,-0.8777,-0.8808,-0.8726,-0.8584,-0.8482,-0.8482,-0.8255,-0.8065,-0.8041,0.0,-0.8139,-0.8054,-0.8276,-0.8491,-0.8492,-0.8374,-0.8428,-0.8776,-0.8687,-0.8738,-0.8889,-0.9062,-0.9201,-0.931,-0.9483,-0.9642,-0.9788,-0.9669,-0.9534,-0.9381,-0.9225,-0.9079,-0.894,-0.894,-0.894,-0.8947,-0.9089,-0.9239,-0.9401,-0.9676,-0.9981,-1.0293,-1.0412,-1.0565,-1.0721,-1.0721,-1.0721,-1.0721,-0.9822,-0.9822,-0.9822,-0.9822,-0.9822,-0.9822,-0.9822,-0.9822,-0.9822,-0.9822,-0.9822,-0.9822,-0.9822,-0.9822,-0.9822,-0.9822,-0.9822,-0.9822,-0.9822,-0.9822,-0.9822,-0.9822,-0.9822,-0.9822,-0.9822,-0.9806,-0.9662,-0.9398,-0.9198,-0.9081,-0.8937,-0.8937,-0.89,-0.894,-0.894,-0.894,-0.894,-0.894,-0.894,-0.894,-0.894,-0.894,-0.894,-0.894,-0.894,-0.894,-0.894,-0.894,-0.894,-0.894,-0.894,-0.894,-0.894,-0.894,-0.894,-0.894,-0.894,-0.8984,-0.9198,-0.9306,-0.9401,-0.9568,-0.9659,-0.969,-0.9632,-0.9496,-0.9323,-0.9113,-0.9001,-0.8916,-0.8845,-0.871,-0.8604,-0.8604,-0.8357,-0.8191,-0.8269,-0.8272,-0.8296,-0.816,-0.8289,-0.8448,-0.8381,-0.8371,-0.8434,-0.8807,-0.8755,-0.8737,-0.9039,-0.9195,-0.9347,-0.95,-0.9646,-0.9754,-0.9822,-0.9598,-0.9452,-0.9378,-0.9147,-0.9001,-0.894,-0.894,-0.894,-0.8947,-0.9089,-0.9195,-0.9276,-0.9493,-0.9812,-1.0161,-1.0229,-1.0446,-1.0721,-1.0721,-1.0721,-1.0721,-0.9822,-0.9822,-0.9822,-0.9822,-0.9822,-0.9822,-0.9822,-0.9822,-0.9822,-0.9822,-0.9822,-0.9822,-0.9822,-0.9822,-0.9822,-0.9822,-0.9822,-0.9822,-0.9822,-0.9822,-0.9822,-0.9822,-0.9822,-0.9822,-0.9822,-0.9837,-0.9768,-0.9853,-0.9614,-0.9357,-0.9087,-0.8934,-0.8977,-0.8988,-0.8954,-0.894,-0.894,-0.894,-0.894,-0.894,-0.894,-0.894,-0.894,-0.894,-0.894,-0.8944,-0.8977,-0.8988,-0.8994,-0.9028,-0.9042,-0.9042,-0.9042,-0.9042,-0.9035,-0.8886,-0.8853,-0.896,-0.9072,-0.9127,-0.9208,-0.9445,-0.9557,-0.9639,-0.9747,-0.9622,-0.9476,-0.9442,-0.9252,-0.897,-0.8933,-0.8889,-0.8764,-0.8764,0.0,-0.8347,-0.8421,-0.8367,-0.8347,-0.8314,-0.8354,-0.8374,-0.8266,-0.8371,-0.8451,-0.875,-0.8764,-0.8893,-0.9191,-0.9351,-0.9503,-0.9652,-0.9764,-0.9822,-0.9822,-0.953,-0.9381,-0.9378,-0.9079,-0.894,-0.894,-0.894,-0.894,-0.8944,-0.9055,-0.9123,-0.9161,-0.9279,-0.9612,-1.0049,-1.0049,-1.0324,-1.0721,-1.0721,-1.0721,-1.0721,-0.9822,-0.9822,-0.9822,-0.9822,-0.9822,-0.9822,-0.9822,-0.9822,-0.9822,-0.9822,-0.9822,-0.9822,-0.9822,-0.9822,-0.9822,-0.9822,-0.9822,-0.9822,-0.9822,-0.9822,-0.9822,-0.9822,-0.9822,-0.9822,-0.9822,-0.9812,-0.9744,-0.9853,-0.9724,-0.9759,-0.9719,-0.9218,-0.9027,-0.913,-0.8998,-0.894,-0.894,-0.894,-0.894,-0.894,-0.894,-0.894,-0.894,-0.894,-0.894,-0.8957,-0.9089,-0.9137,-0.9157,-0.93,-0.9351,-0.9351,-0.9351,-0.9351,-0.932,-0.8944,-0.8927,-0.894,-0.895,-0.9052,-0.9157,-0.9181,-0.9401,-0.9612,-0.9622,-0.971,-0.9751,-0.9618,-0.9574,-0.9396,-0.9252,-0.9,-0.892,-0.892,0.0,0.0,-0.8303,-0.8284,-0.8314,-0.8299,-0.8508,-0.8482,-0.8266,-0.8482,-0.8714,-0.8899,-0.892,-0.9052,-0.9347,-0.951,-0.9659,-0.9802,-0.9815,-0.9822,-0.9822,-0.953,-0.9381,-0.9378,-0.9079,-0.894,-0.894,-0.894,-0.894,-0.894,-0.895,-0.9028,-0.9154,-0.9164,-0.9517,-1.0049,-1.0049,-1.0324,-1.0721,-1.0721,-1.0721,-1.0721,-0.9822,-0.9822,-0.9822,-0.9822,-0.9822,-0.9822,-0.9822,-0.9822,-0.9822,-0.9822,-0.9822,-0.9822,-0.9822,-0.9822,-0.9822,-0.9822,-0.9822,-0.9822,-0.9822,-0.9822,-0.9822,-0.9822,-0.9822,-0.9822,-0.9822,-0.9822,-0.9795,-0.9741,-0.9741,-0.9789,-0.9641,-0.9466,-0.9384,-0.9168,-0.902,-0.8953,-0.9066,-0.8977,-0.894,-0.894,-0.894,-0.894,-0.8947,-0.9035,-0.9069,-0.9093,-0.9242,-0.9296,-0.9303,-0.9361,-0.9381,-0.9381,-0.9381,-0.9381,-0.9351,-0.9195,-0.9113,-0.9052,-0.8964,-0.8977,-0.9042,-0.913,-0.9242,-0.9374,-0.9564,-0.9652,-0.97,-0.9734,-0.9741,-0.9693,-0.9429,-0.9432,-0.938,-0.8984,0.0,-0.868,-0.8529,-0.8267,-0.812,-0.8275,-0.8319,-0.8353,-0.835,-0.8431,-0.8718,-0.8916,-0.9022,-0.9201,-0.9507,-0.9659,-0.9764,-0.9819,-0.9822,-0.9822,-0.9822,-0.953,-0.9381,-0.9378,-0.9079,-0.894,-0.894,-0.894,-0.894,-0.894,-0.894,-0.8967,-0.9022,-0.9022,-0.9371,-0.9907,-0.9907,-1.0239,-1.0721,-1.0721,-1.0721,-1.0721,-0.9822,-0.9822,-0.9822,-0.9822,-0.9822,-0.9822,-0.9822,-0.9822,-0.9822,-0.9822,-0.9822,-0.9822,-0.9822,-0.9822,-0.9822,-0.9822,-0.9822,-0.9822,-0.9822,-0.9822,-0.9822,-0.9822,-0.9822,-0.9822,-0.9822,-0.9822,-0.9822,-0.9822,-0.9822,-0.9771,-0.9553,-0.9755,-0.9676,-0.9329,-0.9289,-0.9222,-0.9218,-0.912,-0.9079,-0.9079,-0.9079,-0.9079,-0.9089,-0.9188,-0.9225,-0.9245,-0.9398,-0.9452,-0.9459,-0.9503,-0.952,-0.952,-0.952,-0.949,-0.9549,-0.9676,-0.9685,-0.9469,-0.9367,-0.9307,-0.9296,-0.9171,-0.912,-0.9208,-0.9418,-0.954,-0.9639,-0.9734,-0.9788,-0.9791,-0.9693,-0.9761,-0.9631,-0.9201,-0.9018,-0.8866,-0.8713,-0.8498,-0.8421,-0.8377,-0.8262,-0.8262,-0.8479,-0.8718,-0.891,-0.9059,-0.9215,-0.9408,-0.9663,-0.9768,-0.9822,-0.9822,-0.9822,-0.9798,-0.9754,-0.9507,-0.9381,-0.9378,-0.9079,-0.894,-0.894,-0.894,-0.894,-0.894,-0.894,-0.894,-0.894,-0.894,-0.9289,-0.9822,-0.9822,-1.0188,-1.0721,-1.0721,-1.0721,-1.0721,-0.9822,-0.9822,-0.9822,-0.9822,-0.9822,-0.9822,-0.9822,-0.9822,-0.9822,-0.9822,-0.9822,-0.9822,-0.9822,-0.9822,-0.9822,-0.9822,-0.9822,-0.9822,-0.9822,-0.9822,-0.9822,-0.9822,-0.9822,-0.9822,-0.9822,-0.9822,-0.9822,-0.9822,-0.9822,-0.9822,-0.9819,-0.9799,-0.9856,-0.9849,-0.9813,-0.9624,-0.9384,-0.9381,-0.9381,-0.9381,-0.9381,-0.9381,-0.9381,-0.9384,-0.9384,-0.9401,-0.9557,-0.9612,-0.9632,-0.9774,-0.9822,-0.9822,-0.9822,-0.9724,-0.9849,-1.081,-1.0558,-1.0051,-1.0401,-1.0281,-0.9934,-0.9051,-0.9045,-0.915,-0.9154,-0.9388,-0.9605,-0.9486,-0.972,-0.9819,-0.9819,-0.9827,-0.9734,-0.9486,-0.9118,-0.8852,-0.8937,-0.9034,-0.9096,-0.8615,-0.8257,-0.8257,-0.883,-0.9188,-0.945,-0.9371,-0.9523,-0.9673,-0.9815,-0.9822,-0.9822,-0.9822,-0.9822,-0.9751,-0.9612,-0.9459,-0.9381,-0.9374,-0.9079,-0.894,-0.894,-0.894,-0.894,-0.894,-0.894,-0.894,-0.894,-0.894,-0.9286,-0.9819,-0.9819,-1.0188,-1.0717,-1.0721,-1.0721,-1.0721,-0.9802,-0.9822,-0.9822,-0.9822,-0.9822,-0.9822,-0.9822,-0.9822,-0.9822,-0.9822,-0.9822,-0.9822,-0.9822,-0.9822,-0.9822,-0.9822,-0.9822,-0.9822,-0.9822,-0.9822,-0.9822,-0.9822,-0.9822,-0.9822,-0.9822,-0.9822,-0.9822,-0.9822,-0.9822,-0.9822,-0.9819,-0.9778,-0.9758,-0.9754,-0.9608,-0.954,-0.9534,-0.9425,-0.9381,-0.9381,-0.9381,-0.9381,-0.9395,-0.95,-0.954,-0.9561,-0.9707,-0.9758,-0.9764,-0.9805,-0.9822,-0.9822,-0.9822,-0.9791,-0.9737,-1.0,-0.9821,-0.9634,-1.0111,-0.9731,-0.9161,-0.894,-0.8971,-0.9028,-0.913,-0.9222,-0.932,-0.9425,-0.9571,-0.9796,-0.9673,-0.972,-0.9693,-0.9483,-0.9528,-0.9411,-0.9154,-0.9119,-0.9102,-0.8833,-0.8712,-0.8749,-0.9079,-0.946,-0.9617,-0.953,-0.9676,-0.9778,-0.9819,-0.9822,-0.9822,-0.9822,-0.9822,-0.9751,-0.9612,-0.9459,-0.9327,-0.9218,-0.9028,-0.894,-0.894,-0.894,-0.894,-0.894,-0.894,-0.894,-0.894,-0.894,-0.9164,-0.9534,-0.9741,-1.0063,-1.0436,-1.0643,-1.0721,-1.0721,-0.972,-0.9781,-0.9822,-0.9822,-0.9822,-0.9822,-0.9822,-0.9822,-0.9822,-0.9822,-0.9822,-0.9822,-0.9822,-0.9822,-0.9822,-0.9822,-0.9822,-0.9822,-0.9822,-0.9822,-0.9822,-0.9822,-0.9822,-0.9822,-0.9822,-0.9822,-0.9822,-0.9822,-0.9822,-0.9822,-0.9822,-0.9822,-0.9822,-0.9819,-0.973,-0.969,-0.9686,-0.9595,-0.9554,-0.9554,-0.9554,-0.9554,-0.9564,-0.9656,-0.9693,-0.9703,-0.9791,-0.9822,-0.9822,-0.9822,-0.9822,-0.9822,-0.9822,-0.9822,-0.9802,-1.0077,-0.9944,-0.9905,-1.01,-0.9938,-0.9461,-0.9064,-0.894,-0.896,-0.9049,-0.9113,-0.9178,-0.9154,-0.9412,-0.9537,-0.9598,-0.968,-0.9696,-0.9574,-0.9679,-0.9735,-0.9435,-0.9408,-0.9408,-0.9289,-0.9289,-0.9323,-0.9408,-0.9624,-0.9717,-0.9686,-0.9774,-0.9822,-0.9822,-0.9822,-0.9822,-0.9822,-0.9768,-0.9669,-0.952,-0.9367,-0.9245,-0.915,-0.9008,-0.894,-0.894,-0.894,-0.894,-0.894,-0.894,-0.894,-0.894,-0.894,-0.915,-0.949,-0.9669,-0.9961,-1.031,-1.0541,-1.0629,-1.0639,-0.9588,-0.9703,-0.9802,-0.9802,-0.9812,-0.9822,-0.9822,-0.9822,-0.9822,-0.9822,-0.9822,-0.9822,-0.9822,-0.9822,-0.9822,-0.9822,-0.9822,-0.9822,-0.9822,-0.9822,-0.9822,-0.9822,-0.9822,-0.9822,-0.9822,-0.9822,-0.9822,-0.9822,-0.9822,-0.9822,-0.9822,-0.9822,-0.9822,-0.9822,-0.9822,-0.9822,-0.9822,-0.9822,-0.9822,-0.9822,-0.9822,-0.9822,-0.9822,-0.9822,-0.9822,-0.9822,-0.9822,-0.9822,-0.9822,-0.9822,-0.9822,-0.9822,-0.9822,-0.9822,-0.9943,-1.0547,-1.0557,-1.0399,-1.0233,-1.0417,-1.0254,-0.92,-0.894,-0.894,-0.894,-0.9042,-0.913,-0.8901,-0.902,-0.9282,-0.9422,-0.9459,-0.9516,-0.9778,-0.9802,-0.9805,-0.9819,-0.9822,-0.9822,-0.9822,-0.9822,-0.9822,-0.9822,-0.9822,-0.9822,-0.9822,-0.9822,-0.9822,-0.9822,-0.9822,-0.9822,-0.9822,-0.9683,-0.9537,-0.9384,-0.9228,-0.9147,-0.913,-0.9001,-0.894,-0.894,-0.894,-0.894,-0.894,-0.894,-0.894,-0.894,-0.894,-0.9181,-0.9554,-0.9581,-0.9849,-1.0239,-1.0395,-1.0463,-1.0493,-0.9525,-0.9551,-0.9656,-0.9656,-0.9747,-0.9822,-0.9822,-0.9822,-0.9822,-0.9822,-0.9822,-0.9822,-0.9822,-0.9822,-0.9822,-0.9822,-0.9822,-0.9822,-0.9822,-0.9822,-0.9822,-0.9822,-0.9822,-0.9822,-0.9822,-0.9822,-0.9822,-0.9822,-0.9822,-0.9822,-0.9822,-0.9822,-0.9822,-0.9822,-0.9822,-0.9822,-0.9822,-0.9822,-0.9822,-0.9822,-0.9822,-0.9822,-0.9822,-0.9822,-0.9822,-0.9822,-0.9822,-0.9822,-0.9822,-0.9822,-0.9822,-0.9822,-0.9822,-0.9822,-0.9819,-0.9943,-0.984,-0.9693,-0.9655,-0.9498,-0.9226,-0.8974,-0.894,-0.894,-0.894,-0.896,-0.8984,-0.8873,-0.91,-0.9211,-0.9245,-0.9351,-0.9479,-0.9632,-0.9656,-0.9693,-0.9805,-0.9822,-0.9822,-0.9822,-0.9822,-0.9822,-0.9822,-0.9822,-0.9822,-0.9822,-0.9822,-0.9822,-0.9822,-0.9822,-0.9822,-0.9822,-0.9683,-0.9537,-0.9384,-0.9228,-0.9096,-0.8984,-0.8954,-0.894,-0.894,-0.894,-0.894,-0.894,-0.894,-0.894,-0.894,-0.894,-0.8998,-0.9106,-0.934,-0.9564,-0.9785,-1.0049,-1.0222,-1.0348,-0.937,-0.9395,-0.9523,-0.9598,-0.9673,-0.9744,-0.9812,-0.9822,-0.9822,-0.9822,-0.9822,-0.9822,-0.9822,-0.9822,-0.9822,-0.9822,-0.9822,-0.9822,-0.9822,-0.9822,-0.9822,-0.9822,-0.9822,-0.9822,-0.9822,-0.9822,-0.9822,-0.9822,-0.9822,-0.9822,-0.9822,-0.9822,-0.9822,-0.9822,-0.9822,-0.9822,-0.9822,-0.9822,-0.9822,-0.9822,-0.9822,-0.9822,-0.9822,-0.9822,-0.9822,-0.9822,-0.9822,-0.9822,-0.9822,-0.9822,-0.9822,-0.9822,-0.9822,-0.9822,-0.9822,-0.9822,-0.9768,-0.9676,-0.9652,-0.9378,-0.9108,-0.9076,-0.8988,-0.894,-0.894,-0.894,-0.894,-0.894,-0.8998,-0.9069,-0.914,-0.9218,-0.9323,-0.9476,-0.9561,-0.9635,-0.971,-0.9778,-0.9822,-0.9822,-0.9822,-0.9822,-0.9822,-0.9822,-0.9822,-0.9822,-0.9822,-0.9822,-0.9822,-0.9822,-0.9788,-0.9724,-0.9578,-0.9425,-0.9273,-0.9127,-0.9015,-0.894,-0.894,-0.894,-0.894,-0.894,-0.894,-0.894,-0.894,-0.894,-0.894,-0.894,-0.8981,-0.9055,-0.9211,-0.9364,-0.953,-0.9754,-0.9934,-1.0083,-0.9226,-0.9239,-0.9384,-0.951,-0.9574,-0.9649,-0.9768,-0.9805,-0.9822,-0.9822,-0.9822,-0.9822,-0.9822,-0.9822,-0.9822,-0.9822,-0.9822,-0.9822,-0.9822,-0.9822,-0.9822,-0.9822,-0.9822,-0.9822,-0.9822,-0.9822,-0.9822,-0.9822,-0.9822,-0.9822,-0.9822,-0.9822,-0.9822,-0.9822,-0.9822,-0.9822,-0.9822,-0.9822,-0.9822,-0.9822,-0.9822,-0.9822,-0.9822,-0.9822,-0.9822,-0.9822,-0.9822,-0.9822,-0.9822,-0.9822,-0.9822,-0.9822,-0.9822,-0.9822,-0.9822,-0.9822,-0.9822,-0.9791,-0.9772,-0.9638,-0.9378,-0.9198,-0.9062,-0.8967,-0.8944,-0.894,-0.894,-0.894,-0.894,-0.8974,-0.9093,-0.9117,-0.9167,-0.9317,-0.9449,-0.9551,-0.9602,-0.971,-0.9795,-0.9819,-0.9822,-0.9822,-0.9822,-0.9822,-0.9822,-0.9822,-0.9822,-0.9687,-0.9539,-0.9539,-0.9353,-0.9097,-0.8952,-0.882,-0.87,-0.8562,-0.8491,-0.8491,-0.8491,-0.8605,-0.894,-0.894,-0.894,-0.894,-0.894,-0.894,-0.894,-0.894,-0.9008,-0.9117,-0.9117,-0.9208,-0.9361,-0.9513,-0.9659,-0.9802,-0.9186,-0.9086,-0.9191,-0.9211,-0.9435,-0.9615,-0.9635,-0.9741,-0.9822,-0.9822,-0.9822,-0.9822,-0.9822,-0.9822,-0.9822,-0.9822,-0.9822,-0.9822,-0.9822,-0.9822,-0.9822,-0.9822,-0.9822,-0.9822,-0.9822,-0.9822,-0.9822,-0.9822,-0.9822,-0.9822,-0.9822,-0.9822,-0.9822,-0.9822,-0.9822,-0.9822,-0.9822,-0.9822,-0.9822,-0.9822,-0.9822,-0.9822,-0.9822,-0.9822,-0.9822,-0.9822,-0.9822,-0.9822,-0.9822,-0.9822,-0.9822,-0.9822,-0.9822,-0.9822,-0.9822,-0.9822,-0.9822,-0.9791,-0.9772,-0.9595,-0.9389,-0.9225,-0.9137,-0.9093,-0.8967,-0.894,-0.894,-0.894,-0.894,-0.8944,-0.8964,-0.8967,-0.9015,-0.9161,-0.9201,-0.9306,-0.9571,-0.9625,-0.9683,-0.9805,-0.9822,-0.9822,-0.9822,-0.9822,-0.9822,-0.9822,-0.9822,-0.9398,-0.8555,-0.8549,-0.8011,-0.7064,-0.6957,-0.6893,-0.6878,-0.6766,-0.6596,-0.6596,-0.6596,-0.7487,-0.894,-0.894,-0.894,-0.894,-0.894,-0.894,-0.894,-0.894,-0.895,-0.8967,-0.8967,-0.9055,-0.9201,-0.9354,-0.9507,-0.9642,-0.9047,-0.8991,-0.9059,-0.9137,-0.9266,-0.9384,-0.9469,-0.9537,-0.9574,-0.9574,-0.9649,-0.9669,-0.9585,-0.9652,-0.9734,-0.9815,-0.9822,-0.9822,-0.9822,-0.9822,-0.9822,-0.9822,-0.9822,-0.9822,-0.9822,-0.9822,-0.9822,-0.9822,-0.9822,-0.9822,-0.9822,-0.9822,-0.9822,-0.9822,-0.9822,-0.9822,-0.9822,-0.9822,-0.9822,-0.9822,-0.9822,-0.9822,-0.9822,-0.9822,-0.9822,-0.9822,-0.9822,-0.9822,-0.9822,-0.9822,-0.9876,-0.9934,-0.9846,-0.988,-0.9934,-0.9846,-0.9822,-0.9808,-0.9747,-0.9792,-0.9581,-0.9442,-0.9279,-0.9137,-0.9072,-0.8994,-0.894,-0.894,-0.894,-0.894,-0.894,-0.894,-0.896,-0.9022,-0.91,-0.9201,-0.9337,-0.9429,-0.9537,-0.9686,-0.9774,-0.9822,-0.9822,-0.9822,-0.9822,-0.9822,-0.9747,-0.931,-0.8405,-0.8216,-0.7652,-0.6606,-0.656,-0.6507,-0.6334,-0.6286,-0.6262,-0.6262,-0.6262,-0.6707,-0.7487,-0.7487,-0.7487,-0.7487,-0.7487,-0.7487,-0.7487,-0.7487,-0.7487,-0.7487,-0.7931,-0.8526,-0.9052,-0.9201,-0.9245,-0.9245]},{"header":{"parameterUnit":"m.s-1","parameterCategory":1,"la1":30.6,"la2":28.766,"lo1":-90.7593,"lo2":-88.6598,"dy":0.0162,"dx":0.0183,"nx":116,"ny":114,"refTime":"2024-06-26T06:00:00:Z","depth":0,"parameterNumber":3,"parameterNumberName":"V-component_of_WINDS"},"data":[0.0,0.0,0.0,0.0,0.0,0.0,0.0,0.0,0.0,0.0,0.0,0.0,0.0,0.0,0.0,0.0,0.0,0.0,0.0,0.0,0.0,0.0,0.0,0.0,0.0,0.0,0.0,0.0,0.0,0.0,0.0,0.0,0.0,0.0,0.0,0.0,0.0,0.0,0.0,0.0,0.0,0.0,0.0,0.0,0.0,0.0,0.0,0.0,0.0,0.0,0.0,0.0,0.0,0.0,0.0,0.0,0.0,0.0,0.0,0.0,0.0,0.0,0.0,0.0,0.0,0.0,0.0,0.0,0.0,0.0,0.0,0.0,0.0,0.0,0.0,0.0,0.0,0.0,0.0,0.0,0.0,0.0,0.0,0.0,0.0,0.0,0.0,0.0,0.0,0.0,0.0,0.0,0.0,0.0,0.0,0.0,0.0,0.0,0.0,0.0,0.0,0.0,0.0,0.0,0.0,0.0,0.0,0.0,0.0,0.0,0.0,0.0,0.0,0.0,0.0,0.0,0.0,0.0,0.0,0.0,0.0,0.0,0.0,0.0,0.0,0.0,0.0,0.0,0.0,0.0,0.0,0.0,0.0,0.0,0.0,0.0,0.0,0.0,0.0,0.0,0.0,0.0,0.0,0.0,0.0,0.0,0.0,0.0,0.0,0.0,0.0,0.0,0.0,0.0,0.0,0.0,0.0,0.0,0.0,0.0,0.0,0.0,0.0,0.0,0.0,0.0,0.0,0.0,0.0,0.0,0.0,0.0,0.0,0.0,0.0,0.0,0.0,0.0,0.0,0.0,0.0,0.0,0.0,0.0,0.0,0.0,0.0,0.0,0.0,0.0,0.0,0.0,0.0,0.0,0.0,0.0,0.0,0.0,0.0,0.0,0.0,0.0,0.0,0.0,0.0,0.0,0.0,0.0,0.0,0.0,0.0,0.0,0.0,0.0,0.0,0.0,0.0,0.0,0.0,0.0,0.0,0.0,0.0,0.0,0.0,0.0,0.0,0.0,0.0,0.0,0.0,0.0,0.0,0.0,0.0,0.0,0.0,0.0,0.0,0.0,0.0,0.0,0.0,0.0,0.0,0.0,0.0,0.0,0.0,0.0,0.0,0.0,0.0,0.0,0.0,0.0,0.0,0.0,0.0,0.0,0.0,0.0,0.0,0.0,0.0,0.0,0.0,0.0,0.0,0.0,0.0,0.0,0.0,0.0,0.0,0.0,0.0,0.0,0.0,0.0,0.0,0.0,0.0,0.0,0.0,0.0,0.0,0.0,0.0,0.0,0.0,0.0,0.0,0.0,0.0,0.0,0.0,0.0,0.0,0.0,0.0,0.0,0.0,0.0,0.0,0.0,0.0,0.0,0.0,0.0,0.0,0.0,0.0,0.0,0.0,0.0,0.0,0.0,0.0,0.0,0.0,0.0,0.0,0.0,0.0,0.0,0.0,0.0,0.0,0.0,0.0,0.0,0.0,0.0,0.0,0.0,0.0,0.0,0.0,0.0,0.0,0.0,0.0,0.0,0.0,0.0,0.0,0.0,0.0,0.0,0.0,0.0,0.0,0.0,0.0,0.0,0.0,0.0,0.0,0.0,0.0,0.0,0.0,0.0,0.0,0.0,0.0,0.0,0.0,0.0,0.0,0.0,0.0,0.0,0.0,0.0,0.0,0.0,0.0,0.0,0.0,0.0,0.0,0.0,0.0,0.0,0.0,0.0,0.0,0.0,0.0,0.0,0.0,0.0,0.0,0.0,0.0,0.0,0.0,0.0,0.0,0.0,0.0,0.0,0.0,0.0,0.0,0.0,0.0,0.0,0.0,0.0,0.0,0.0,0.0,0.0,0.0,0.0,0.0,0.0,0.0,0.0,0.0,0.0,0.0,0.0,0.0,0.0,0.0,0.0,0.0,0.0,0.0,0.0,0.0,0.0,0.0,0.0,0.0,0.0,0.0,0.0,0.0,0.0,0.0,0.0,0.0,0.0,0.0,0.0,0.0,0.0,0.0,0.0,0.0,0.0,0.0,0.0,0.0,0.0,0.0,0.0,0.0,0.0,0.0,0.0,0.0,0.0,0.0,0.0,0.0,0.0,0.0,0.0,0.0,0.0,0.0,0.0,0.0,0.0,0.0,0.0,0.0,0.0,0.0,0.0,0.0,0.0,0.0,0.0,0.0,0.0,0.0,0.0,0.0,0.0,0.0,0.0,0.0,0.0,0.0,0.0,0.0,0.0,0.0,0.0,0.0,0.0,0.0,0.0,0.0,0.0,0.0,0.0,0.0,0.0,0.0,0.0,0.0,0.0,0.0,0.0,0.0,0.0,0.0,0.0,0.0,0.0,0.0,0.0,0.0,0.0,0.0,0.0,0.0,0.0,0.0,0.0,0.0,0.0,0.0,0.0,0.0,0.0,0.0,0.0,0.0,0.0,0.0,0.0,0.0,0.0,0.0,0.0,0.0,0.0,0.0,0.0,0.0,0.0,0.0,0.0,0.0,0.0,0.0,0.0,0.0,0.0,0.0,0.0,0.0,0.0,0.0,0.0,0.0,0.0,0.0,0.0,0.0,0.0,0.0,0.0,0.0,0.0,0.0,0.0,0.0,0.0,0.0,0.0,0.0,0.0,0.0,0.0,0.0,0.0,0.0,0.0,0.0,0.0,0.0,0.0,0.0,0.0,0.0,0.0,0.0,0.0,0.0,0.0,0.0,0.0,0.0,0.0,0.0,0.0,0.0,0.0,0.0,0.0,0.0,0.0,0.0,0.0,0.0,0.0,0.0,0.0,0.0,0.0,0.0,0.0,0.0,0.0,0.0,0.0,0.0,0.0,0.0,0.0,0.0,0.0,0.0,0.0,0.0,0.0,0.0,0.0,0.0,0.0,0.0,0.0,0.0,0.0,0.0,0.0,0.0,0.0,0.0,0.0,0.0,0.0,0.0,0.0,0.0,0.0,0.0,0.0,0.0,0.0,0.0,0.0,0.0,0.0,0.0,0.0,0.0,0.0,0.0,0.0,0.0,0.0,0.0,0.0,0.0,0.0,0.0,0.0,0.0,0.0,0.0,0.0,0.0,0.0,0.0,0.0,0.0,0.0,0.0,0.0,0.0,0.0,0.0,0.0,0.0,0.0,0.0,0.0,0.0,0.0,0.0,0.0,0.0,0.0,0.0,0.0,0.0,0.0,0.0,0.0,0.0,0.0,0.0,0.0,0.0,0.0,0.0,0.0,0.0,0.0,0.0,0.0,0.0,0.0,0.0,0.0,0.0,0.0,0.0,0.0,0.0,0.0,0.0,0.0,0.0,0.0,0.0,0.0,0.0,0.0,0.0,0.0,0.0,0.0,0.0,0.0,0.0,0.0,0.0,0.0,0.0,0.0,0.0,0.0,0.0,0.0,0.0,0.0,0.0,0.0,0.0,0.0,0.0,0.0,0.0,0.0,0.0,0.0,0.0,0.0,0.0,0.0,0.0,0.0,0.0,0.0,0.0,0.0,0.0,0.0,0.0,0.0,0.0,0.0,0.0,0.0,0.0,0.0,0.0,0.0,0.0,0.0,0.0,0.0,0.0,0.0,0.0,0.0,0.0,0.0,0.0,0.0,0.0,0.0,0.0,0.0,0.0,0.0,0.0,0.0,0.0,0.0,0.0,0.0,0.0,0.0,0.0,0.0,0.0,0.0,0.0,0.0,0.0,0.0,0.0,0.0,0.0,0.0,0.0,0.0,0.0,0.0,0.0,0.0,0.0,0.0,0.0,0.0,0.0,0.0,0.0,0.0,0.0,0.0,0.0,0.0,0.0,0.0,0.0,0.0,0.0,0.0,0.0,0.0,0.0,0.0,0.0,0.0,0.0,0.0,0.0,0.0,0.0,0.0,0.0,0.0,0.0,0.0,0.0,0.0,0.0,0.0,0.0,0.0,0.0,0.0,0.0,0.0,0.0,0.0,0.0,0.0,0.0,0.0,0.0,0.0,0.0,0.0,0.0,0.0,0.0,0.0,0.0,0.0,0.0,0.0,0.0,0.0,0.0,0.0,0.0,0.0,0.0,0.0,0.0,0.0,0.0,0.0,0.0,0.0,0.0,0.0,0.0,0.0,0.0,0.0,0.0,0.0,0.0,0.0,0.0,0.0,0.0,0.0,0.0,0.0,0.0,0.0,0.0,0.0,0.0,0.0,0.0,0.0,0.0,0.0,0.0,0.0,0.0,0.0,0.0,0.0,0.0,0.0,0.0,0.0,0.0,0.0,0.0,0.0,0.0,0.0,0.0,0.0,0.0,0.0,0.0,0.0,0.0,0.0,0.0,0.0,0.0,0.0,0.0,0.0,0.0,0.0,0.0,0.0,0.0,0.0,0.0,0.0,0.0,0.0,0.0,0.0,0.0,0.0,0.0,0.0,0.0,0.0,0.0,0.0,0.0,0.0,0.0,0.0,0.0,0.0,0.0,0.0,0.0,0.0,0.0,0.0,0.0,0.0,0.0,0.0,0.0,0.0,0.0,0.0,0.0,0.0,0.0,0.0,0.0,0.0,0.0,0.0,0.0,0.0,0.0,0.0,0.0,0.0,0.0,0.0,0.0,0.0,0.0,0.0,0.0,0.0,0.0,0.0,0.0,0.0,0.0,0.0,0.0,0.0,0.0,0.0,0.0,0.0,0.0,0.0,0.0,0.0,0.0,0.0,0.0,0.0,0.0,0.0,0.0,0.0,0.0,0.0,0.0,0.0,0.0,0.0,0.0,0.0,0.0,0.0,0.0,0.0,0.0,0.0,0.0,0.0,0.0,0.0,0.0,0.0,0.0,0.0,0.0,0.0,0.0,0.0,0.0,0.0,0.0,0.0,0.0,0.0,0.0,0.0,0.0,0.0,0.0,0.0,0.0,0.0,0.0,0.0,0.0,0.0,0.0,0.0,0.0,0.0,0.0,0.0,0.0,0.0,0.0,0.0,0.0,0.0,0.0,0.0,0.0,0.0,0.0,0.0,0.0,0.0,0.0,0.0,0.0,0.0,0.0,0.0,0.0,0.0,0.0,0.0,0.0,0.0,0.0,0.0,0.0,0.0,0.0,0.0,0.0,0.0,0.0,0.0,0.0,0.0,0.0,0.0,0.0,0.0,0.0,0.0,0.0,0.0,0.0,0.0,0.0,0.0,0.0,0.0,0.0,0.0,0.0,0.0,0.0,0.0,0.0,0.0,0.0,0.0,0.0,0.0,0.0,0.0,0.0,0.0,0.0,0.0,0.0,0.0,0.0,0.0,0.0,0.0,0.0,0.0,0.0,0.0,0.0,0.0,0.0,0.0,0.0,0.0,0.0,0.0,0.0,0.0,0.0,0.0,0.0,0.0,0.0,0.0,0.0,0.0,0.0,0.0,0.0,0.0,0.0,0.0,0.0,0.0,0.0,0.0,0.0,0.0,0.0,0.0,0.0,0.0,0.0,0.0,0.0,0.0,0.0,0.0,0.0,0.0,0.0,0.0,0.0,0.0,0.0,0.0,0.0,0.0,0.0,0.0,0.0,0.0,0.0,0.0,0.0,0.0,0.0,0.0,0.0,0.0,0.0,0.0,0.0,0.0,0.0,0.0,0.0,0.0,0.0,0.0,0.0,0.0,0.0,0.0,0.0,0.0,0.0,0.0,0.0,0.0,0.0,0.0,0.0,0.0,0.0,0.0,0.0,0.0,0.0,0.0,0.0,0.0,0.0,0.0,0.0,0.0,0.0,0.0,0.0,0.0,0.0,0.0,0.0,0.0,0.0,0.0,0.0,0.0,0.0,0.0,0.0,0.0,0.0,0.0,0.0,0.0,0.0,0.0,0.0,0.0,0.0,0.0,0.0,0.0,0.0,0.0,0.0,0.0,0.0,0.0,0.0,0.0,0.0,0.0,0.0,0.0,0.0,0.0,0.0,0.0,0.0,0.0,0.0,0.0,0.0,0.0,0.0,0.0,0.0,0.0,0.0,0.0,0.0,0.0,0.0,0.0,0.0,0.0,0.0,0.0,0.0,0.0,0.0,0.0,0.0,0.0,0.0,0.0,0.0,0.0,0.0,0.0,0.0,0.0,0.0,0.0,0.0,0.0,0.0,0.0,0.0,0.0,0.0,0.0,0.0,0.0,-3.3673,0.0,0.0,0.0,0.0,0.0,0.0,0.0,0.0,0.0,0.0,0.0,0.0,0.0,0.0,0.0,0.0,0.0,0.0,0.0,0.0,0.0,0.0,0.0,0.0,-2.1913,-2.2181,-2.3412,-2.3997,-2.423,-2.4121,0.0,0.0,0.0,0.0,0.0,-2.2966,-2.2959,-2.3184,-2.3674,-2.3669,-2.431,-2.5548,-2.4983,-2.408,-2.29,0.0,0.0,0.0,0.0,0.0,0.0,0.0,0.0,0.0,0.0,0.0,0.0,0.0,0.0,0.0,0.0,0.0,0.0,0.0,0.0,0.0,0.0,0.0,0.0,0.0,0.0,0.0,0.0,0.0,0.0,0.0,0.0,0.0,0.0,0.0,0.0,0.0,0.0,0.0,0.0,0.0,0.0,0.0,0.0,0.0,0.0,0.0,0.0,0.0,0.0,0.0,0.0,0.0,0.0,0.0,0.0,0.0,0.0,0.0,0.0,0.0,0.0,0.0,0.0,0.0,0.0,0.0,0.0,0.0,0.0,0.0,-3.5739,0.0,0.0,0.0,0.0,0.0,0.0,0.0,0.0,0.0,0.0,0.0,0.0,0.0,0.0,0.0,0.0,0.0,0.0,0.0,0.0,0.0,-1.9379,-2.2547,-2.232,-2.2572,-2.4227,-2.4464,-2.4787,-2.5387,-2.5418,0.0,0.0,0.0,-2.4056,-2.3475,-2.3459,-2.3878,-2.4752,-2.5118,-2.6373,-2.8434,-2.8575,-2.7082,-2.4265,-2.4109,0.0,0.0,0.0,0.0,0.0,0.0,0.0,0.0,0.0,0.0,0.0,0.0,0.0,0.0,0.0,0.0,0.0,0.0,0.0,0.0,0.0,0.0,0.0,0.0,0.0,0.0,0.0,0.0,0.0,0.0,0.0,0.0,0.0,0.0,0.0,0.0,0.0,0.0,0.0,0.0,0.0,0.0,0.0,0.0,0.0,0.0,0.0,0.0,0.0,0.0,0.0,0.0,0.0,0.0,0.0,0.0,0.0,0.0,0.0,0.0,0.0,0.0,0.0,-4.3008,-4.3574,-4.5039,-4.5039,-4.5449,-4.5879,-4.1465,-4.0332,-4.1367,-3.7754,0.0,0.0,0.0,0.0,0.0,0.0,0.0,0.0,0.0,0.0,0.0,0.0,0.0,0.0,0.0,0.0,0.0,0.0,0.0,-2.07,-2.267,-2.2856,-2.352,-2.5251,-2.5418,-2.5446,-2.5485,-2.5485,0.0,0.0,-2.529,-2.5312,-2.5265,-2.5266,-2.5685,-2.6552,-2.8091,-2.9007,-2.9357,-3.0107,0.0,-2.9727,-2.8961,-2.8634,-2.8575,0.0,0.0,0.0,0.0,0.0,0.0,0.0,0.0,0.0,0.0,0.0,0.0,0.0,0.0,0.0,0.0,0.0,0.0,0.0,0.0,0.0,0.0,0.0,0.0,0.0,0.0,0.0,0.0,0.0,0.0,0.0,0.0,0.0,0.0,0.0,0.0,0.0,0.0,0.0,0.0,0.0,-3.2921,-3.3905,0.0,0.0,0.0,0.0,0.0,0.0,0.0,0.0,0.0,0.0,0.0,0.0,0.0,-4.2793,-4.4316,-4.582,-4.707,-4.8047,-4.8691,-4.9492,-5.0371,-5.0371,-5.0449,-5.0488,-4.9101,0.0,-4.332,-4.2754,0.0,0.0,0.0,0.0,0.0,0.0,0.0,0.0,0.0,0.0,0.0,0.0,0.0,0.0,0.0,0.0,0.0,0.0,0.0,0.0,0.0,-2.3799,-2.4891,-2.6118,-2.6214,-2.6207,-2.6177,-2.5712,-2.5456,-2.5505,-2.5551,-2.5587,-2.5649,-2.6578,-2.7975,-2.9814,-3.055,-3.1403,-3.2352,0.0,0.0,0.0,-3.2538,-3.1291,-2.9469,-2.9099,0.0,0.0,0.0,0.0,0.0,0.0,0.0,0.0,0.0,0.0,0.0,0.0,0.0,0.0,0.0,0.0,0.0,0.0,0.0,0.0,0.0,0.0,0.0,0.0,0.0,0.0,0.0,0.0,0.0,0.0,0.0,0.0,0.0,0.0,0.0,0.0,0.0,0.0,0.0,-3.2019,-3.4623,-3.595,-3.654,-3.6482,0.0,0.0,0.0,0.0,0.0,0.0,0.0,0.0,0.0,-4.5996,-4.6973,-4.8066,-4.9316,-5.0078,-5.0898,-5.1758,-5.166,-5.2051,-5.2851,-5.2851,-5.2851,-5.2832,-5.248,-5.0976,-4.8574,-4.6152,-4.4492,-4.3301,0.0,0.0,0.0,0.0,-4.2129,-4.2266,0.0,0.0,0.0,0.0,0.0,0.0,0.0,0.0,0.0,0.0,0.0,0.0,-2.3063,-2.4387,-2.5498,-2.6323,-2.6376,-2.6464,0.0,0.0,-2.555,-2.59,-2.5706,-2.5726,-2.5991,-2.7885,-2.981,-3.1735,-3.26,-3.3668,0.0,0.0,0.0,0.0,0.0,0.0,0.0,0.0,0.0,0.0,0.0,0.0,0.0,0.0,0.0,0.0,0.0,0.0,0.0,0.0,0.0,0.0,0.0,0.0,0.0,0.0,0.0,0.0,0.0,0.0,0.0,0.0,0.0,0.0,0.0,0.0,0.0,0.0,0.0,0.0,0.0,0.0,0.0,0.0,0.0,0.0,0.0,-3.4333,-3.6609,-3.8297,-3.9256,-3.9351,0.0,0.0,0.0,0.0,0.0,0.0,-4.5542,-4.7047,-4.8684,-5.0468,-5.1521,-5.2383,-5.3027,-5.3027,-5.3476,-5.4316,-5.3672,-5.3828,-5.4668,-5.4668,-5.4668,-5.4648,-5.4433,-5.4082,-5.3398,-4.9531,-4.7812,-4.7402,-4.5469,-4.4707,-4.4824,-4.5937,-4.5918,-4.5703,0.0,0.0,0.0,0.0,0.0,0.0,0.0,0.0,0.0,0.0,0.0,-2.3197,-2.4043,0.0,-2.4607,-2.5473,-2.5499,-2.5826,0.0,0.0,-2.5796,-2.6702,-2.6003,-2.5979,-2.6813,-2.9367,-3.0695,0.0,0.0,0.0,0.0,0.0,0.0,0.0,0.0,0.0,0.0,0.0,0.0,0.0,0.0,0.0,0.0,0.0,0.0,0.0,0.0,0.0,0.0,0.0,0.0,0.0,0.0,0.0,0.0,0.0,0.0,0.0,0.0,0.0,0.0,0.0,0.0,0.0,0.0,0.0,0.0,0.0,0.0,0.0,0.0,0.0,0.0,0.0,0.0,0.0,0.0,0.0,0.0,-4.1849,-4.2762,0.0,0.0,0.0,0.0,-4.3283,-4.5716,-4.8273,-5.0778,-5.1835,-5.3135,-5.4827,-5.4229,-5.3887,-5.3926,-5.3926,-5.4375,-5.5234,-5.5195,-5.5625,-5.6465,-5.6465,-5.6465,-5.6426,-5.5586,-5.5683,-5.6191,-5.3496,-5.1894,-5.1133,-5.0996,-5.0957,-5.0879,-5.0195,-4.9902,-4.9785,0.0,0.0,0.0,-1.7182,-1.7098,-1.7871,-2.0075,-2.0694,-2.1333,-2.2449,-2.3365,-2.423,0.0,-2.5583,-2.6209,-2.705,-2.7043,-2.6892,-2.6641,0.0,-2.6414,-2.6787,-2.6559,-2.7629,-3.019,-3.1123,-3.2655,0.0,0.0,0.0,0.0,0.0,0.0,0.0,0.0,0.0,0.0,0.0,0.0,0.0,0.0,0.0,0.0,0.0,0.0,0.0,0.0,0.0,0.0,0.0,0.0,0.0,0.0,0.0,0.0,0.0,0.0,0.0,0.0,0.0,0.0,0.0,0.0,0.0,0.0,0.0,0.0,0.0,0.0,0.0,0.0,0.0,0.0,0.0,0.0,0.0,0.0,0.0,0.0,-4.3772,-4.5122,0.0,-4.5112,-4.6355,-4.7772,-4.9159,-5.0678,-5.2202,-5.3658,-5.4103,-5.4606,-5.524,-5.5522,-5.5664,-5.5664,-5.5664,-5.582,-5.6133,-5.6133,-5.6308,-5.6601,-5.6601,-5.6601,-5.6582,-5.6269,-5.6308,-5.6523,-5.5586,-5.5039,-5.4687,-5.4121,-5.3574,-5.3047,-5.2754,-5.2285,-5.1836,-1.7116,-1.7367,0.0,-1.7942,-1.7981,-1.8743,-2.1026,-2.1377,-2.1792,-2.2951,-2.4113,-2.5041,-2.5571,-2.6327,-2.6885,-2.7066,-2.7316,-2.7343,-2.7084,0.0,-2.7296,-2.7661,-2.8019,-2.9565,-3.2433,-3.305,-3.4574,0.0,0.0,0.0,0.0,0.0,0.0,0.0,0.0,0.0,0.0,0.0,0.0,0.0,0.0,0.0,-3.1945,0.0,0.0,0.0,0.0,0.0,0.0,0.0,0.0,0.0,0.0,0.0,0.0,0.0,0.0,0.0,0.0,0.0,0.0,0.0,0.0,0.0,0.0,0.0,0.0,0.0,0.0,0.0,0.0,0.0,0.0,0.0,0.0,0.0,0.0,0.0,-4.4566,-4.5977,-4.7639,-4.8649,-4.866,-5.0223,-5.1719,-5.2814,-5.3759,-5.4652,-5.5525,-5.5903,-5.6274,-5.6601,-5.7187,-5.748,-5.748,-5.748,-5.748,-5.748,-5.748,-5.748,-5.748,-5.748,-5.7324,-5.7031,-5.7031,-5.7031,-5.7031,-5.7031,-5.7207,-5.7363,-5.6191,-5.5566,-5.5273,-5.498,-5.4707,-5.4453,-1.5429,-1.613,-1.7026,-1.7961,-1.9445,-2.0519,-2.0578,-2.2017,-2.3104,-2.3091,-2.4649,-2.5691,-2.5551,-2.6294,-2.6405,-2.5418,-2.614,-2.7026,-2.7902,-2.801,-2.8461,-2.9407,-3.0396,-3.1704,-3.3369,0.0,0.0,0.0,0.0,0.0,0.0,0.0,0.0,0.0,0.0,0.0,0.0,0.0,0.0,0.0,0.0,0.0,-3.697,0.0,0.0,0.0,0.0,0.0,0.0,0.0,0.0,0.0,0.0,0.0,0.0,0.0,0.0,0.0,0.0,0.0,0.0,0.0,0.0,0.0,0.0,0.0,0.0,0.0,0.0,0.0,0.0,0.0,0.0,0.0,0.0,0.0,-4.3786,-4.4565,-4.6085,-4.8649,-5.042,-5.1422,-5.1463,-5.2997,-5.3996,-5.405,-5.484,-5.5687,-5.6574,-5.7465,-5.832,-5.918,-5.9199,-5.9199,-5.9199,-5.9199,-5.9199,-5.9199,-5.9199,-5.9199,-5.9199,-5.9199,-5.873,-5.7949,-5.7949,-5.7949,-5.7949,-5.791,-5.8398,-5.8984,-5.7324,-5.7187,-5.7793,-5.6953,-5.7168,-5.7656,-1.6205,-1.7046,-1.8292,-2.0399,-2.0614,-2.0929,-2.2192,-2.2796,-2.3098,-2.3101,-2.5177,-2.6606,-2.6514,-2.6695,-2.6672,-2.6339,-2.7065,-2.7392,-2.7071,-2.8203,-2.9319,-3.0375,-3.2474,0.0,-3.6021,0.0,0.0,0.0,0.0,0.0,0.0,0.0,0.0,0.0,0.0,0.0,0.0,0.0,0.0,0.0,0.0,0.0,-3.8005,0.0,0.0,0.0,0.0,0.0,0.0,0.0,0.0,0.0,0.0,0.0,0.0,0.0,0.0,0.0,0.0,0.0,0.0,0.0,0.0,0.0,0.0,0.0,0.0,0.0,0.0,0.0,0.0,0.0,0.0,0.0,0.0,-4.6222,-4.5604,-4.8426,-5.1043,-5.2337,-5.3455,-5.4351,-5.4943,-5.5424,-5.6235,-5.7502,-5.7862,-5.8409,-5.9283,-5.9017,-5.8945,-5.9199,-5.9199,-5.9199,-5.9199,-5.9199,-5.9199,-5.9199,-5.9199,-5.9199,-5.9199,-5.9199,-5.9062,-5.8848,-5.8848,-5.8848,-5.8789,-5.8164,-5.8047,-5.8262,-5.8437,-5.8242,-5.7871,-5.7637,-5.7695,-5.7909,-1.7012,-1.8189,-1.9639,-2.1471,-2.1377,-2.1396,-2.2406,-2.2874,-2.3092,-2.3104,-2.5648,-2.7313,-2.6903,-2.7419,-2.7636,-2.7229,-2.829,-2.8647,-2.7829,-2.9439,-3.1169,-3.29,0.0,0.0,0.0,0.0,0.0,0.0,0.0,0.0,0.0,0.0,0.0,0.0,0.0,0.0,0.0,0.0,0.0,0.0,0.0,0.0,-4.0508,-3.8437,-3.7226,-3.6562,-3.5723,-3.4394,-3.3066,-3.3203,0.0,0.0,0.0,0.0,0.0,0.0,0.0,0.0,0.0,0.0,0.0,0.0,0.0,0.0,0.0,0.0,0.0,0.0,0.0,0.0,0.0,0.0,0.0,0.0,-4.8027,-4.9761,-4.9976,-5.157,-5.328,-5.4847,-5.5801,-5.6657,-5.7496,-5.789,-5.8492,-5.9507,-5.932,-5.9354,-5.986,-5.9455,-5.9355,-5.9687,-5.9707,-5.9883,-6.0234,-6.0254,-6.0254,-6.0254,-6.0254,-6.0254,-6.0254,-6.0254,-6.0058,-5.9707,-5.9707,-5.9512,-5.916,-5.8652,-5.8633,0.0,0.0,0.0,0.0,0.0,-5.8203,-5.8027,-1.8049,-1.951,-2.0929,-2.1783,-2.1864,-2.1805,-2.1805,-2.2543,-2.3108,-2.3097,-2.5944,-2.7634,-2.6734,-2.8001,-2.8598,-2.7825,-2.9361,-3.019,0.0,-3.1495,0.0,-3.6034,-3.7109,0.0,0.0,0.0,0.0,0.0,0.0,0.0,0.0,0.0,0.0,0.0,0.0,0.0,0.0,0.0,0.0,0.0,0.0,0.0,-4.3301,-4.0937,-4.0527,-4.1094,-4.0312,-3.8555,-3.6484,-3.5801,0.0,0.0,0.0,0.0,0.0,0.0,0.0,0.0,0.0,0.0,0.0,0.0,0.0,0.0,0.0,0.0,0.0,0.0,0.0,0.0,0.0,0.0,0.0,0.0,-5.1387,-5.3574,-5.5215,-5.4199,-5.418,-5.6582,-5.7578,-5.8398,-5.9258,-5.9883,-6.0293,-6.039,-5.9745,-5.9374,-5.9473,0.0,0.0,0.0,0.0,-6.0918,-6.1699,-6.1699,-6.1699,-6.1699,-6.1699,-6.1699,-6.1699,-6.1699,-6.1289,-6.0547,-6.0547,-6.0137,-5.9473,-5.9375,-5.9707,-6.0039,-5.7773,-5.7246,-5.7851,-5.873,-5.8555,-5.8027,-1.9958,-2.0828,-2.1822,-2.2698,-2.227,-2.1805,-2.1805,-2.2543,-2.3077,-2.3028,-2.542,-2.6767,-2.579,-2.6586,-2.7092,-2.6862,-2.8444,-3.0324,0.0,0.0,-3.5697,0.0,0.0,0.0,0.0,0.0,0.0,0.0,0.0,0.0,0.0,0.0,0.0,0.0,0.0,0.0,0.0,0.0,0.0,0.0,0.0,0.0,-4.2539,-4.1387,-4.1055,-4.1172,-4.1016,-4.0625,-4.0273,-4.0742,-3.9902,-3.8457,-3.7422,0.0,0.0,0.0,0.0,0.0,0.0,0.0,0.0,0.0,0.0,0.0,0.0,0.0,0.0,0.0,0.0,0.0,0.0,0.0,0.0,-5.1523,-5.3555,-5.5156,-5.6191,-5.6621,-5.7265,-5.8476,-5.8808,-5.9277,-6.0098,-5.9668,-5.9648,-6.0351,-6.0256,-6.0475,-6.1172,-6.1221,-6.1297,-6.1445,-6.1445,-6.1523,-6.1699,-6.1699,-6.1699,-6.1699,0.0,0.0,-6.1699,-6.1699,-6.1601,-6.1445,-6.1445,-6.1367,-6.1152,-6.0469,-5.9883,-5.9375,-5.8887,-5.7949,-5.6953,-5.7832,-5.8047,-5.8027,-2.1656,-2.2126,-2.2445,-2.2445,-2.2094,-2.1805,-2.1805,-2.2508,-2.3193,-2.3597,-2.5492,-2.6616,-2.6111,-2.6803,-2.7297,-2.7246,-2.8868,0.0,0.0,0.0,0.0,0.0,0.0,0.0,0.0,0.0,0.0,0.0,0.0,0.0,0.0,0.0,0.0,0.0,0.0,0.0,0.0,0.0,0.0,0.0,0.0,0.0,-4.3008,-4.2598,-4.2441,-4.2519,-4.2949,-4.2539,-4.1933,-4.2773,-4.2207,-4.0996,-4.0176,-3.9883,-3.9434,0.0,0.0,0.0,0.0,0.0,0.0,0.0,0.0,0.0,0.0,0.0,0.0,0.0,0.0,-4.6562,-4.9609,0.0,-5.2285,-5.4844,-5.5976,-5.7009,-5.8312,-5.8855,-5.9104,-5.9101,-5.9517,-5.996,-6.0351,-6.039,-6.0582,-6.1022,-6.1054,-6.1409,-6.2257,-6.2311,-6.2499,-6.2945,-6.295,-6.2963,-6.3008,-6.3008,-6.3008,-6.3008,-6.3008,-6.3008,-6.3008,-6.3008,-6.2754,-6.2344,-6.2344,-6.2109,-6.1699,-6.1699,-6.0957,-5.9844,-6.0273,-5.9414,-5.7949,-5.8398,-5.8262,-5.7969,-2.2829,-2.2901,-2.2606,-2.1893,-2.1776,-2.1776,-2.1776,-2.2624,-2.3494,-2.4178,-2.5543,-2.6447,-2.6431,-2.7017,-2.7594,-2.8135,0.0,0.0,0.0,0.0,0.0,0.0,0.0,0.0,0.0,0.0,0.0,0.0,0.0,0.0,0.0,0.0,0.0,0.0,0.0,0.0,0.0,0.0,0.0,0.0,0.0,0.0,-4.3945,-4.3945,-4.3945,-4.4043,-4.4746,-4.4101,-4.3047,-4.3906,-4.3633,-4.2793,-4.2148,-4.2383,-4.2441,-4.0039,-3.9726,0.0,0.0,0.0,0.0,0.0,0.0,0.0,0.0,0.0,-4.4805,-4.9687,-5.0391,-5.0996,-5.373,-5.4531,-5.5547,-5.7926,-5.8315,-5.8788,-6.018,-6.0534,-6.0366,-5.9678,-6.0067,-6.0469,-6.0635,-6.1284,-6.1772,-6.1937,-6.1938,-6.2289,-6.3107,-6.3146,-6.3468,-6.4179,-6.4209,-6.4223,-6.427,-6.4296,-6.4297,-6.4297,-6.4297,-6.4297,-6.4297,-6.4297,-6.3926,-6.3242,-6.3066,-6.2519,-6.1758,-6.2461,-6.1914,-6.0742,-6.1601,-6.1015,-5.9668,-5.9492,-5.8885,-5.8138,-2.2894,-2.235,-2.1823,-2.1735,-2.1701,-2.172,-2.1716,-2.3091,-2.4152,-2.4133,-2.4954,-2.552,-2.5447,-2.5543,-2.6554,-2.8935,0.0,0.0,0.0,0.0,0.0,0.0,0.0,0.0,0.0,0.0,0.0,0.0,0.0,0.0,0.0,0.0,0.0,0.0,0.0,0.0,0.0,0.0,0.0,0.0,0.0,0.0,-4.4844,-4.4844,-4.4844,-4.4863,-4.4961,-4.4863,-4.4844,-4.5723,-4.543,-4.4687,-4.4609,-4.4648,-4.4355,-4.2519,0.0,-4.1152,-4.1562,-4.2461,0.0,-4.4238,-4.5078,-4.6543,0.0,0.0,-5.1601,-5.2285,-5.3574,-5.4707,-5.5078,-5.6426,-5.8042,-5.982,-6.0102,-6.0164,-6.0282,-6.0984,-6.1422,-6.1322,-6.0779,-6.0701,-6.1478,-6.1642,-6.2024,-6.2805,-6.2805,-6.3146,-6.4013,-6.4052,-6.4091,-6.4208,-6.4208,-6.4198,-6.4198,-6.4262,-6.4297,-6.4297,-6.4297,-6.4297,-6.4297,-6.4297,-6.4258,-6.4101,-6.334,-6.2519,-6.1719,-6.1816,-6.1738,-6.164,-6.2519,-6.2265,-6.1328,-6.0547,-5.9706,-5.8964,-2.2953,-2.1849,-2.0888,-2.088,-2.1335,-2.1851,-2.2336,-2.3418,-2.4353,-2.4791,-2.5136,-2.5322,-2.5313,-2.5303,-2.615,-2.8299,-3.0111,0.0,-3.4858,0.0,0.0,0.0,0.0,0.0,0.0,0.0,0.0,0.0,0.0,0.0,0.0,0.0,0.0,0.0,0.0,0.0,0.0,0.0,0.0,0.0,0.0,0.0,-4.6465,-4.5957,-4.5449,-4.4922,-4.4433,-4.4238,0.0,0.0,-4.5293,-4.5098,-4.5605,-4.541,-4.4863,-4.4121,-4.3672,0.0,-4.5683,0.0,0.0,0.0,-4.9766,-5.1289,-5.3223,-5.3555,-5.418,-5.668,-5.6973,-5.7109,-5.8086,-5.9277,-6.0174,0.0,-6.0827,-6.1305,-6.1744,-6.1685,-6.1802,-6.2299,-6.2065,-6.2007,-6.2348,-6.2401,-6.2553,-6.2904,-6.3392,-6.4037,-6.4911,-6.4954,-6.5182,-6.5689,-6.5718,-6.5718,-6.5708,-6.573,-6.5774,-6.5801,-6.5801,-6.5801,-6.5801,-6.5801,-6.5547,-6.498,-6.3594,-6.2793,-6.2422,-6.1914,-6.1699,-6.1738,-6.21,-6.2022,-6.1724,-6.1855,-6.1366,-6.0536,-2.2953,-2.1531,-2.0308,-2.0294,-2.1043,-2.1927,-2.2759,-2.3782,-2.467,-2.5299,-2.5322,-2.5303,-2.5303,-2.5303,-2.5909,-2.743,-2.9207,-3.1338,0.0,-3.8033,0.0,0.0,0.0,0.0,0.0,0.0,0.0,0.0,0.0,0.0,0.0,0.0,0.0,0.0,0.0,0.0,0.0,0.0,0.0,0.0,0.0,0.0,-4.7147,-4.6502,-4.5585,-4.4551,-4.3926,-4.3555,0.0,0.0,-4.4101,-4.4394,-4.5039,-4.4961,-4.4687,-4.4922,-4.5332,-4.6074,-4.7734,0.0,0.0,-5.1406,-5.3242,-5.4941,-5.582,-5.5703,-5.625,-5.9121,-5.8945,-5.8633,-5.9844,-6.0762,-6.1289,-6.1133,-6.1456,-6.2056,-6.3104,-6.25,-6.2289,-6.3156,-6.3059,-6.2981,-6.3205,-6.3037,-6.3002,-6.3262,-6.3867,-6.4707,-6.5801,-6.5863,-6.6151,-6.677,-6.6789,-6.6789,-6.6789,-6.68,-6.6822,-6.6862,-6.6893,-6.6894,-6.6894,-6.6894,-6.6426,-6.5527,-6.4277,-6.3574,-6.3281,-6.2422,-6.2069,-6.2036,-6.1795,-6.1705,-6.1802,-6.2669,-6.2562,-6.1938,-2.2898,-2.1494,-2.0312,-2.0292,-2.0977,-2.1817,-2.2757,-2.4297,-2.5357,-2.5303,-2.5303,-2.5303,-2.5303,-2.5303,-2.5678,-2.6651,-2.8336,-3.0481,-3.3151,-3.6635,0.0,0.0,0.0,0.0,0.0,0.0,0.0,0.0,0.0,0.0,0.0,0.0,0.0,0.0,0.0,0.0,0.0,0.0,0.0,0.0,0.0,0.0,-4.6245,-4.6206,-4.5186,-4.373,-4.3711,0.0,0.0,0.0,-4.1836,-4.248,-4.2519,-4.3086,0.0,-4.4746,-4.6191,0.0,0.0,0.0,-5.1543,-5.2441,-5.4609,-5.6758,-5.7617,-5.8457,-5.8848,-5.8125,-5.8613,-5.918,-5.9238,-5.9902,-6.0976,-6.2656,-6.2226,-6.2285,-6.3925,-6.3408,-6.3175,-6.4052,-6.3409,-6.3205,0.0,-6.3361,-6.3286,-6.4198,-6.4277,-6.5019,-6.668,-6.6757,-6.6771,-6.6795,-6.6795,-6.6795,-6.6795,-6.6798,-6.679,-6.68,-6.6878,-6.6894,-6.6894,-6.6894,-6.6426,-6.5605,-6.5547,-6.5039,-6.4199,-6.332,-6.2967,-6.2892,-6.2026,-6.1705,-6.1802,-6.2601,-6.2893,-6.2854,-2.2801,-2.1937,-2.11,-2.11,-2.2274,-2.3339,-2.3644,-2.4174,-2.4726,-2.5226,-2.5303,0.0,0.0,0.0,0.0,0.0,-2.8222,-3.0111,-3.2162,-3.6153,0.0,0.0,0.0,0.0,0.0,0.0,0.0,0.0,0.0,0.0,0.0,0.0,0.0,0.0,0.0,0.0,0.0,0.0,0.0,0.0,0.0,0.0,-4.7794,-4.6644,-4.4802,-4.2752,0.0,0.0,0.0,0.0,0.0,0.0,-4.291,0.0,0.0,-4.3887,0.0,-4.8516,0.0,0.0,-5.2754,-5.4785,-5.5957,-5.6973,-5.8437,-5.8984,-5.9277,-5.9512,-5.9375,-5.9531,-6.0644,-6.1074,-6.1445,-6.2031,-6.2383,-6.2969,-6.4101,-6.3022,-6.2637,-6.4032,-6.3945,0.0,0.0,0.0,0.0,-6.5042,-6.5634,-6.6209,-6.6761,-6.6809,-6.6792,-6.6795,-6.6795,-6.6795,-6.6795,-6.6798,-6.6805,-6.6805,-6.6824,-6.6839,-6.6839,-6.6839,-6.6664,-6.6367,-6.5782,-6.5372,-6.502,-6.4161,-6.3462,-6.2896,-6.2609,-6.2133,-6.1666,-6.1938,-6.2406,-6.2971,-2.2724,-2.215,-2.16,-2.1916,-2.2898,0.0,0.0,0.0,0.0,0.0,0.0,0.0,0.0,0.0,0.0,0.0,0.0,-2.9041,-3.0754,0.0,0.0,0.0,0.0,0.0,0.0,0.0,0.0,0.0,0.0,0.0,0.0,0.0,0.0,0.0,0.0,0.0,0.0,0.0,0.0,0.0,0.0,0.0,-4.7216,-4.5475,-4.3429,0.0,0.0,0.0,0.0,0.0,0.0,0.0,0.0,0.0,0.0,-4.4375,-4.666,-4.9141,0.0,-5.2109,-5.4101,-5.6094,-5.7285,-5.8183,-5.9004,-5.9414,-5.9609,-5.9512,-5.9101,-5.9062,-6.0137,-6.0332,-6.0644,-6.1543,-6.1914,-6.2598,-6.4082,-6.2793,-6.2217,-6.3572,-6.3741,-6.3633,0.0,0.0,0.0,-6.5435,-6.6031,-6.6497,-6.6776,-6.6806,-6.68,-6.6798,-6.6798,-6.6798,-6.6798,-6.6798,-6.6798,-6.6798,-6.6798,-6.6798,-6.6798,-6.6798,-6.6798,-6.6759,-6.6213,-6.5959,-6.59,-6.5023,-6.4145,-6.3325,-6.3018,-6.2367,-6.1607,-6.1607,-6.1958,-6.2542,-2.2716,-2.2188,-2.1831,0.0,0.0,0.0,0.0,0.0,0.0,0.0,0.0,0.0,0.0,0.0,0.0,0.0,0.0,0.0,-2.8972,0.0,0.0,0.0,0.0,-3.8369,-4.0916,-4.0195,-4.0604,0.0,0.0,0.0,0.0,0.0,0.0,0.0,0.0,0.0,0.0,0.0,0.0,0.0,0.0,0.0,-4.4579,-4.2883,0.0,0.0,0.0,0.0,0.0,0.0,0.0,0.0,0.0,0.0,0.0,0.0,0.0,-4.9453,-5.1133,-5.3437,-5.5605,-5.6562,-5.8555,-6.0078,-5.9355,-5.9765,-5.9805,-5.8164,-5.7793,-5.7773,0.0,0.0,-5.8711,-6.1172,-6.0957,-6.1387,-6.4004,-6.2871,-6.2082,0.0,0.0,0.0,0.0,0.0,0.0,-6.5504,0.0,-6.5951,-6.6751,-6.6806,-6.6809,-6.679,-6.679,-6.679,-6.679,-6.679,-6.679,-6.679,-6.679,-6.679,-6.679,-6.679,-6.679,-6.679,-6.679,-6.679,-6.6731,-6.5903,-6.5056,-6.4169,-6.3302,-6.2426,-6.1666,-6.1627,-6.1607,-6.1724,0.0,0.0,0.0,0.0,0.0,0.0,0.0,0.0,0.0,0.0,0.0,0.0,0.0,0.0,0.0,0.0,0.0,0.0,0.0,0.0,0.0,0.0,0.0,0.0,-3.9077,-3.9559,0.0,0.0,0.0,0.0,0.0,0.0,0.0,0.0,0.0,0.0,0.0,0.0,0.0,0.0,0.0,0.0,-4.2844,0.0,0.0,0.0,0.0,0.0,0.0,0.0,0.0,0.0,0.0,0.0,-4.6269,0.0,0.0,-5.2109,-5.3848,-5.5273,-5.6777,-5.8906,-5.8984,-5.8652,-5.9101,-5.8867,-5.8223,-5.7148,-5.6406,-5.5957,-5.5957,0.0,0.0,-5.9629,-6.0703,0.0,-6.4902,-6.3769,0.0,0.0,0.0,-6.4988,-6.5153,-6.5761,0.0,0.0,-6.5873,-6.5903,-6.6753,-6.6789,-6.679,-6.6731,-6.6731,-6.6731,-6.6731,-6.6731,-6.6731,-6.6731,-6.6731,-6.6731,-6.6731,-6.6731,-6.6731,-6.6731,-6.6731,-6.6731,-6.6712,-6.6498,-6.5874,-6.5017,-6.414,-6.3283,-6.2484,-6.1841,-6.1607,-6.1627,0.0,0.0,0.0,0.0,0.0,0.0,0.0,0.0,0.0,0.0,0.0,0.0,0.0,0.0,0.0,0.0,0.0,0.0,0.0,0.0,0.0,0.0,0.0,0.0,0.0,0.0,0.0,0.0,0.0,0.0,0.0,0.0,0.0,0.0,0.0,0.0,0.0,0.0,0.0,0.0,0.0,0.0,0.0,0.0,0.0,0.0,0.0,0.0,0.0,0.0,0.0,-4.4487,-4.5709,-4.6972,-4.8359,-5.0058,0.0,-5.4141,-5.5508,-5.6797,-5.8086,-5.9512,-5.8887,-5.793,-5.8027,-5.7383,-5.6406,-5.5156,-5.4199,0.0,-5.3594,0.0,0.0,0.0,0.0,0.0,-6.4668,-6.3867,-6.3496,0.0,-6.5375,0.0,-6.5543,-6.5987,-6.6434,0.0,-6.6358,-6.6274,-6.6767,-6.679,-6.677,-6.6712,-6.6712,-6.6712,-6.6712,-6.6712,-6.6712,-6.6712,-6.6712,-6.6712,-6.6712,-6.6712,-6.6712,-6.6712,0.0,-6.6712,-6.6712,-6.6712,-6.6186,-6.5309,-6.4432,-6.3614,-6.2796,-6.1919,-6.1607,-6.1607,0.0,0.0,0.0,0.0,0.0,0.0,0.0,0.0,0.0,0.0,0.0,0.0,0.0,0.0,0.0,0.0,0.0,0.0,0.0,0.0,0.0,0.0,0.0,0.0,0.0,0.0,0.0,0.0,0.0,0.0,0.0,0.0,0.0,0.0,0.0,0.0,0.0,0.0,0.0,0.0,0.0,0.0,0.0,0.0,0.0,0.0,0.0,0.0,0.0,0.0,-4.5007,-4.5625,-4.7311,-4.8998,-5.0683,-5.2383,-5.4023,-5.5547,-5.664,-5.7969,-5.9082,-5.9297,-5.8613,-5.7637,-5.664,-5.5664,-5.4453,-5.2734,0.0,0.0,-5.0918,0.0,-5.4512,-5.7129,0.0,-6.1055,-6.3906,-6.3652,-6.3496,-6.4375,-6.5234,-6.5773,-6.5769,-6.5777,-6.6096,-6.6839,-6.6842,-6.68,-6.6809,-6.679,-6.677,-6.6712,-6.6712,-6.6712,-6.6712,-6.6712,-6.6712,-6.6712,-6.6712,-6.6712,-6.6712,-6.6712,-6.6712,-6.6712,-6.6712,-6.6712,-6.6712,-6.6712,-6.6244,-6.5465,-6.4491,-6.3672,-6.2932,-6.1958,-6.1607,-6.1607,0.0,0.0,0.0,0.0,0.0,0.0,0.0,-2.5245,-2.5486,-2.6198,-2.5707,0.0,0.0,0.0,0.0,0.0,0.0,0.0,0.0,0.0,0.0,0.0,0.0,0.0,0.0,0.0,0.0,0.0,0.0,0.0,0.0,0.0,0.0,0.0,0.0,0.0,0.0,0.0,0.0,0.0,0.0,0.0,0.0,0.0,0.0,0.0,0.0,0.0,0.0,0.0,-4.526,-4.7366,-4.9103,-5.0363,-5.1523,-5.3262,-5.4492,-5.5801,-5.8125,-5.8437,-5.8457,-5.9844,-5.9043,-5.748,-5.5898,-5.4297,0.0,0.0,0.0,-4.9101,-4.8398,-5.0234,0.0,-5.5332,0.0,0.0,0.0,0.0,-6.4394,0.0,0.0,0.0,0.0,0.0,0.0,0.0,0.0,-6.6791,-6.679,-6.6751,-6.6712,-6.6712,-6.6712,-6.6712,-6.6712,-6.6712,-6.6712,-6.6712,-6.6712,-6.6712,-6.6712,-6.6712,-6.6712,-6.6712,-6.6712,0.0,-6.6712,-6.6712,-6.6615,-6.6322,-6.4725,-6.4004,-6.3711,-6.2172,-6.1607,-6.1607,0.0,0.0,0.0,0.0,0.0,0.0,0.0,-2.5543,-2.5725,-2.706,-2.6511,-2.6143,-2.6557,-2.6231,-2.5983,0.0,0.0,0.0,0.0,0.0,0.0,0.0,0.0,0.0,0.0,0.0,0.0,0.0,0.0,0.0,0.0,0.0,0.0,0.0,0.0,0.0,0.0,0.0,0.0,0.0,0.0,0.0,0.0,0.0,0.0,0.0,0.0,0.0,0.0,0.0,-4.4873,-4.7678,-4.9005,-5.0324,-5.1738,-5.3496,-5.4941,-5.6348,-5.8066,-5.8223,-5.8086,-5.8906,-5.7461,-5.541,-5.3672,0.0,0.0,0.0,0.0,-4.6738,-4.6328,0.0,0.0,0.0,0.0,0.0,0.0,0.0,0.0,0.0,0.0,0.0,0.0,0.0,0.0,0.0,0.0,-6.68,-6.6809,-6.6751,-6.6712,-6.6712,-6.6712,-6.6712,-6.6712,-6.6712,-6.6712,-6.6712,-6.6712,-6.6712,-6.6712,-6.6712,-6.6712,-6.6712,-6.6712,-6.6712,-6.6712,-6.6712,-6.6439,-6.5894,-6.4608,-6.3848,-6.3322,-6.2055,-6.1607,-6.1607,0.0,0.0,0.0,0.0,0.0,0.0,0.0,-2.5745,-2.6115,-2.7669,-2.7272,-2.7239,-2.8229,-2.7462,-2.6795,0.0,0.0,0.0,0.0,0.0,0.0,0.0,0.0,0.0,0.0,0.0,0.0,0.0,0.0,0.0,0.0,0.0,0.0,0.0,0.0,0.0,0.0,0.0,0.0,0.0,0.0,0.0,0.0,0.0,0.0,0.0,0.0,0.0,0.0,0.0,-4.3675,-4.6212,-4.7518,-4.9402,-5.1445,-5.2988,-5.4687,-5.6269,-5.7324,-5.7754,-5.7851,-5.7676,-5.5801,-5.3496,-5.1582,-4.916,0.0,0.0,0.0,-4.4785,-4.4961,0.0,0.0,0.0,0.0,0.0,0.0,0.0,0.0,0.0,0.0,0.0,0.0,0.0,0.0,0.0,0.0,0.0,-6.6799,-6.668,-6.663,-6.6712,-6.6671,-6.6671,-6.6712,-6.6712,-6.6712,-6.6712,-6.6712,-6.6712,-6.6712,-6.6712,-6.6712,-6.6712,-6.6712,-6.6712,-6.6712,-6.6712,-6.6186,-6.5309,-6.4432,-6.3614,-6.2796,-6.1919,-6.1607,-6.1607,0.0,0.0,0.0,0.0,0.0,0.0,0.0,-2.5499,-2.6738,-2.7691,-2.7739,-2.8306,-2.9906,-2.8699,-2.7459,0.0,0.0,0.0,0.0,0.0,0.0,0.0,0.0,0.0,0.0,0.0,0.0,0.0,0.0,0.0,0.0,0.0,0.0,0.0,0.0,0.0,0.0,0.0,0.0,0.0,0.0,0.0,0.0,0.0,0.0,0.0,0.0,0.0,0.0,0.0,0.0,-4.1854,-4.4295,-4.7498,-5.0488,-5.1387,0.0,0.0,-5.6269,-5.7305,-5.7715,-5.6914,-5.5351,-5.3359,-5.0879,0.0,0.0,0.0,-4.4375,-4.4062,-4.4844,-4.5254,0.0,0.0,0.0,0.0,0.0,0.0,0.0,0.0,0.0,0.0,0.0,0.0,0.0,0.0,0.0,0.0,-6.678,-6.65,-6.6446,-6.6682,-6.6575,-6.6594,-6.6712,-6.6712,-6.6712,-6.6712,-6.6712,-6.6712,-6.6712,-6.6712,-6.6712,-6.6712,-6.6712,-6.6712,0.0,-6.6712,-6.6186,-6.5309,-6.4432,-6.3614,-6.2796,-6.1919,-6.1607,-6.1607,0.0,0.0,0.0,0.0,0.0,0.0,-2.5318,-2.5674,-2.628,-2.7676,-2.7873,-2.8303,-2.9452,-2.901,-2.8291,-2.7456,0.0,0.0,0.0,0.0,0.0,0.0,0.0,0.0,0.0,0.0,0.0,0.0,0.0,0.0,0.0,0.0,0.0,0.0,0.0,0.0,0.0,0.0,0.0,0.0,0.0,0.0,0.0,0.0,0.0,0.0,0.0,0.0,0.0,0.0,0.0,0.0,-4.0726,-4.3208,0.0,0.0,-5.1035,-5.2812,-5.4551,-5.5664,-5.6133,-5.5254,-5.4121,-5.2558,-5.0,0.0,0.0,-4.4394,-4.3516,-4.3183,-4.4062,-4.457,-4.5665,-4.8068,-4.9061,-5.0699,0.0,0.0,0.0,0.0,0.0,0.0,0.0,0.0,0.0,0.0,0.0,0.0,-6.65,-6.6373,-6.6351,-6.6446,-6.6415,-6.64,-6.6461,-6.6461,-6.6461,-6.6461,-6.6536,-6.6575,-6.6575,-6.6671,-6.6712,-6.6712,-6.6712,-6.6712,0.0,-6.6127,-6.5407,-6.453,-6.3692,-6.2854,-6.2075,-6.1724,-6.1607,-6.1607,0.0,0.0,0.0,0.0,0.0,-2.3399,-2.5137,-2.5562,-2.61,-2.7321,-2.7708,-2.8172,-2.8986,-2.8887,-2.8602,-2.8275,-2.8313,0.0,0.0,0.0,0.0,0.0,0.0,0.0,0.0,0.0,0.0,0.0,0.0,0.0,0.0,0.0,0.0,0.0,0.0,0.0,0.0,0.0,0.0,0.0,0.0,0.0,0.0,0.0,0.0,0.0,0.0,0.0,0.0,0.0,0.0,0.0,0.0,0.0,0.0,0.0,-4.8998,-5.1033,-5.3063,-5.4217,-5.4648,-5.3769,-5.2891,-5.1523,0.0,0.0,-4.4375,-4.3496,-4.2637,-4.2305,-4.3164,-4.3926,-4.4907,-4.6387,-4.7456,-4.9207,-5.2442,0.0,0.0,0.0,0.0,0.0,0.0,0.0,0.0,0.0,0.0,0.0,-6.6242,-6.6185,-6.6206,-6.6299,-6.6263,-6.6263,-6.6299,-6.6299,-6.6299,-6.6299,-6.64,-6.6446,-6.6446,-6.6536,-6.6575,-6.6575,-6.6618,-6.6493,0.0,-6.565,-6.4744,-6.3692,-6.3127,-6.2367,-6.1607,-6.1607,-6.1607,-6.1607,0.0,0.0,0.0,0.0,0.0,0.0,-2.2834,-2.4909,-2.6486,-2.6504,-2.7274,-2.8114,-2.8917,-2.8357,-2.8217,-2.9006,-2.7582,0.0,0.0,0.0,0.0,0.0,0.0,0.0,0.0,0.0,0.0,0.0,0.0,0.0,0.0,0.0,0.0,0.0,0.0,0.0,0.0,0.0,0.0,0.0,0.0,0.0,-3.5493,0.0,0.0,0.0,0.0,0.0,0.0,0.0,0.0,0.0,0.0,0.0,0.0,0.0,-4.6694,-4.9309,-5.1995,-5.3251,-5.3613,-5.2734,-5.1855,-5.0312,0.0,-4.4883,-4.3476,-4.2598,-4.1777,-4.1465,-4.2266,-4.3027,-4.3794,-4.4681,-4.7547,-5.0642,0.0,0.0,0.0,0.0,0.0,0.0,0.0,0.0,0.0,0.0,0.0,0.0,-6.6102,-6.5982,-6.6032,-6.6299,-6.6166,-6.6166,-6.6299,-6.6299,-6.6299,-6.6299,-6.6299,-6.6299,-6.6299,-6.6299,-6.6316,-6.6316,-6.6446,-6.6003,0.0,-6.5356,-6.4413,-6.2913,-6.2893,-6.2367,-6.1607,-6.1607,-6.1607,-6.1607,0.0,0.0,0.0,0.0,0.0,0.0,0.0,-2.4271,-2.4957,-2.5473,-2.6219,-2.6861,-2.7259,-2.6986,-2.7194,-2.8198,-2.7794,0.0,0.0,0.0,0.0,0.0,0.0,0.0,0.0,0.0,-3.3333,-3.4199,-3.4276,0.0,0.0,0.0,0.0,0.0,0.0,0.0,0.0,0.0,0.0,0.0,0.0,-3.6315,-3.6325,0.0,0.0,0.0,0.0,0.0,0.0,0.0,0.0,0.0,0.0,0.0,0.0,-3.9951,0.0,0.0,-4.8457,-5.0022,-5.0867,-4.997,-4.955,-4.8787,-4.6591,-4.4752,-4.3275,-4.2495,-4.1582,-4.1191,-4.2031,-4.2798,-4.416,-4.6759,-4.8548,0.0,0.0,0.0,0.0,0.0,0.0,0.0,0.0,0.0,0.0,0.0,0.0,0.0,-6.5958,-6.5928,-6.5928,-6.6032,-6.5982,-6.5982,-6.6032,-6.6032,-6.6032,-6.6032,-6.6123,-6.6166,-6.6166,-6.6263,-6.6299,0.0,-6.571,-6.5367,-6.5109,-6.402,-6.3289,-6.2835,-6.2231,-6.1841,-6.1607,-6.1607,-6.1607,-6.1607,0.0,0.0,0.0,0.0,0.0,0.0,0.0,-2.3492,-2.4049,-2.4487,-2.5187,-2.5815,-2.6301,-2.6028,-2.6491,-2.8172,-2.8052,0.0,0.0,0.0,0.0,0.0,0.0,0.0,0.0,-3.2025,-3.2852,-3.3699,-3.4257,-3.4872,-3.5493,-3.5493,0.0,0.0,0.0,0.0,0.0,0.0,0.0,0.0,-3.6026,-3.6603,-3.5787,0.0,0.0,0.0,0.0,0.0,0.0,0.0,0.0,0.0,0.0,0.0,0.0,0.0,-4.0739,-4.3206,0.0,-4.728,-4.8191,-4.7998,-4.7699,-4.7047,-4.5382,-4.3924,-4.2684,-4.1902,-4.124,-4.0967,-4.1512,-4.2482,-4.3897,-4.6032,-4.7835,0.0,0.0,0.0,0.0,0.0,0.0,0.0,0.0,0.0,0.0,0.0,0.0,0.0,-6.5897,-6.5897,-6.5897,-6.5897,-6.5897,-6.5897,-6.5897,-6.5897,-6.5897,-6.5897,-6.5982,-6.6055,-6.6102,-6.6125,-6.6012,-6.5775,-6.5179,-6.4666,0.0,-6.3126,-6.2585,-6.2367,-6.1802,-6.1607,-6.1607,-6.1607,-6.1607,-6.1646,0.0,0.0,0.0,0.0,0.0,0.0,0.0,-2.2638,-2.3531,-2.3572,-2.4178,-2.4973,-2.5924,-2.5386,-2.6046,-2.867,0.0,0.0,0.0,0.0,0.0,0.0,0.0,0.0,0.0,-3.1256,-3.2122,-3.2987,-3.2929,-3.3795,-3.5493,-3.5493,-3.4584,0.0,0.0,0.0,0.0,0.0,0.0,0.0,-3.6608,-3.6488,0.0,0.0,0.0,0.0,0.0,0.0,0.0,0.0,0.0,0.0,0.0,0.0,0.0,0.0,0.0,0.0,0.0,-4.4766,-4.551,-4.6255,-4.5982,-4.5084,-4.34,-4.2572,0.0,-4.1058,-4.0885,-4.0908,-4.1024,-4.2225,-4.3288,-4.359,-4.6302,0.0,0.0,0.0,0.0,0.0,0.0,0.0,0.0,0.0,0.0,0.0,0.0,0.0,-6.5903,-6.5903,-6.5923,-6.5928,-6.5928,-6.5928,-6.5903,-6.5903,-6.5923,-6.5928,-6.5928,-6.5967,-6.6005,-6.5885,-6.5517,0.0,-6.4715,-6.39,-6.2698,-6.262,-6.2215,-6.1607,-6.1607,-6.1607,-6.1607,-6.1607,-6.1646,-6.1802,0.0,0.0,0.0,0.0,0.0,0.0,0.0,0.0,0.0,0.0,-2.3599,-2.4076,-2.5059,-2.504,-2.576,0.0,0.0,0.0,0.0,0.0,0.0,0.0,0.0,0.0,0.0,-3.1256,-3.2429,-3.3891,-3.3237,-3.3795,-3.5493,-3.5493,-3.4584,-3.2891,-3.2897,0.0,0.0,0.0,0.0,0.0,-3.6427,-3.6645,0.0,0.0,0.0,0.0,-3.4122,-3.416,0.0,0.0,0.0,0.0,0.0,0.0,0.0,0.0,-3.793,-3.8484,-3.9331,0.0,-4.1628,-4.1204,-4.1931,-4.248,0.0,-4.2101,0.0,0.0,0.0,-4.1959,-4.3243,-4.3281,-4.4187,-4.7407,0.0,0.0,0.0,0.0,0.0,0.0,0.0,0.0,0.0,0.0,0.0,0.0,0.0,-6.5953,-6.6055,-6.6055,-6.6102,-6.6187,-6.6225,-6.6166,-6.6055,-6.6055,-6.6102,-6.6225,-6.6225,-6.5858,-6.5256,-6.5238,-6.4773,-6.3975,-6.3319,-6.2901,-6.2659,-6.1979,-6.167,-6.1607,-6.1607,-6.1607,-6.1607,-6.1607,-6.2016,-6.262,0.0,0.0,0.0,0.0,0.0,0.0,0.0,0.0,0.0,0.0,0.0,-2.3603,-2.4644,-2.4783,0.0,0.0,0.0,0.0,0.0,0.0,0.0,0.0,0.0,0.0,-3.0379,-3.0871,-3.2122,-3.4199,-3.3333,-3.3795,-3.5526,-3.5892,-3.4916,-3.2878,-3.2097,-3.1513,0.0,0.0,0.0,-3.3891,-3.5502,0.0,0.0,0.0,0.0,0.0,-3.2641,-3.2949,0.0,-3.3064,-3.3737,-3.4795,0.0,0.0,0.0,0.0,-3.7026,-3.7411,-3.7397,-3.9219,-4.1004,-4.0546,-4.1139,-4.1809,-4.1805,0.0,0.0,0.0,0.0,0.0,-4.2915,0.0,0.0,0.0,0.0,0.0,0.0,0.0,0.0,0.0,0.0,0.0,0.0,0.0,0.0,0.0,0.0,-6.4833,-6.4902,-6.4966,-6.5025,-6.5099,-6.5116,-6.5468,-6.6187,-6.5799,-6.5644,-6.5698,-6.531,-6.4898,-6.4481,-6.4436,-6.4003,-6.3293,-6.2742,-6.2381,-6.2157,-6.1635,-6.1476,-6.1607,-6.1607,-6.1607,-6.1646,-6.2055,-6.2503,-6.301,0.0,0.0,0.0,0.0,0.0,0.0,0.0,0.0,0.0,0.0,0.0,0.0,0.0,0.0,0.0,0.0,0.0,0.0,0.0,0.0,0.0,0.0,0.0,-2.9313,-3.0179,-3.0198,-3.1448,-3.3987,-3.3256,-3.3718,-3.5334,-3.6142,-3.5224,-3.2827,-3.1282,-3.0602,0.0,0.0,-3.2576,-3.2256,-3.4295,0.0,0.0,0.0,0.0,0.0,0.0,0.0,0.0,-3.2718,-3.3699,-3.493,-3.493,0.0,0.0,0.0,0.0,0.0,-3.6839,-3.9302,-4.1658,-4.1135,-4.1412,-4.1957,0.0,0.0,0.0,0.0,0.0,0.0,0.0,0.0,0.0,0.0,0.0,0.0,0.0,0.0,0.0,0.0,0.0,0.0,0.0,0.0,0.0,0.0,0.0,-6.3513,-6.3534,-6.3668,-6.3737,-6.377,-6.377,-6.4469,-6.596,-6.5209,-6.484,-6.4837,-6.412,-6.3759,-6.3742,-6.3623,-6.3254,-6.2689,0.0,0.0,-6.1588,-6.1476,-6.1507,-6.1607,-6.1744,-6.1802,-6.1899,-6.2776,-6.3166,-6.3497,0.0,0.0,0.0,0.0,0.0,0.0,0.0,0.0,0.0,0.0,0.0,0.0,0.0,0.0,0.0,0.0,0.0,0.0,0.0,0.0,0.0,0.0,-2.8699,-2.8467,-2.9275,-2.9294,-3.0544,-3.3103,-3.2968,-3.341,-3.441,-3.5276,-3.4699,-3.2872,-3.1922,-3.1492,-3.1549,-3.2497,-3.3256,-3.3789,-3.3441,0.0,0.0,0.0,0.0,0.0,0.0,0.0,0.0,-3.1891,-3.2064,-3.2275,-3.2275,0.0,0.0,0.0,0.0,0.0,-3.7417,-3.9758,-4.1104,-3.8212,-3.966,-4.1635,0.0,0.0,0.0,0.0,0.0,0.0,0.0,0.0,0.0,0.0,0.0,0.0,0.0,0.0,0.0,0.0,0.0,0.0,0.0,0.0,0.0,0.0,0.0,-6.3535,-6.3666,-6.3783,-6.3917,-6.404,-6.404,-6.4176,-6.443,-6.4189,-6.4131,-6.4235,-6.4099,-6.37,-6.3049,-6.3038,-6.2581,-6.1802,0.0,-6.1685,-6.1607,-6.1578,-6.1578,-6.1666,-6.2406,-6.2698,-6.2796,-6.3614,-6.4374,-6.5153,0.0,0.0,0.0,0.0,0.0,0.0,0.0,0.0,0.0,0.0,0.0,0.0,0.0,0.0,0.0,0.0,0.0,0.0,0.0,0.0,0.0,-2.9427,-2.8811,-2.9078,-3.0419,-3.0033,-3.1044,-3.3603,-3.3603,-3.4045,-3.4891,-3.4351,-3.3678,-3.284,-3.1564,-3.0999,-3.1018,-3.1395,-3.1768,-3.2102,0.0,0.0,0.0,0.0,0.0,0.0,0.0,0.0,0.0,0.0,-3.1987,-3.2275,-3.1833,0.0,0.0,0.0,0.0,0.0,-3.5619,-3.8151,-4.0069,-3.8504,-4.0655,-4.3171,0.0,0.0,0.0,0.0,0.0,0.0,0.0,0.0,0.0,0.0,0.0,0.0,0.0,0.0,0.0,0.0,0.0,0.0,0.0,0.0,0.0,0.0,0.0,0.0,-6.2439,-6.2588,-6.2697,-6.2757,-6.2757,-6.2757,-6.2757,-6.2697,-6.2911,-6.3458,-6.2971,-6.2562,-6.2192,-6.2192,-6.1977,-6.1607,0.0,-6.1607,-6.1646,-6.2114,-6.2309,-6.2387,-6.3224,-6.3556,-6.3653,-6.4491,-6.5348,-6.6166,0.0,0.0,0.0,0.0,0.0,0.0,0.0,0.0,0.0,0.0,0.0,0.0,0.0,0.0,0.0,0.0,0.0,0.0,0.0,0.0,-2.8783,-2.8768,-2.8841,-2.9631,-3.1243,-3.0676,-3.1507,-3.3851,-3.407,-3.4545,-3.518,-3.3838,-3.3012,-3.2571,-3.1275,-3.0583,-3.0398,-3.0398,-3.0398,-3.0398,0.0,0.0,0.0,0.0,0.0,0.0,0.0,0.0,0.0,0.0,0.0,0.0,0.0,0.0,0.0,-3.1641,-3.2141,-3.2949,-3.4391,-3.6848,-3.9141,-3.9746,0.0,0.0,0.0,0.0,0.0,0.0,0.0,0.0,0.0,0.0,0.0,0.0,0.0,0.0,0.0,0.0,0.0,0.0,0.0,0.0,0.0,0.0,0.0,0.0,0.0,0.0,-6.1396,-6.1528,-6.1607,-6.1607,-6.1607,-6.1607,-6.1607,-6.1607,-6.1938,-6.2581,-6.1919,-6.1607,-6.1607,-6.1607,-6.1607,-6.1607,-6.1822,-6.1899,-6.1977,-6.2835,-6.3185,-6.3263,-6.4082,-6.453,-6.4783,-6.5465,-6.6127,-6.6712,0.0,0.0,0.0,0.0,0.0,0.0,0.0,0.0,0.0,0.0,0.0,0.0,0.0,0.0,0.0,0.0,0.0,0.0,0.0,0.0,-2.8711,-2.8711,-2.8768,-2.9279,-3.0266,-3.0291,-3.1128,-3.2817,-3.3728,-3.4218,-3.4295,-3.4172,-3.3269,-3.178,-3.1665,-3.1153,-3.0398,-3.0398,-3.0398,-3.0398,-3.0398,0.0,0.0,0.0,0.0,0.0,0.0,0.0,0.0,0.0,0.0,0.0,0.0,0.0,-3.0648,-3.1468,-3.1737,-3.2487,-3.5661,-3.7296,-3.8661,-4.1027,0.0,0.0,0.0,0.0,0.0,0.0,0.0,0.0,0.0,0.0,0.0,0.0,0.0,0.0,0.0,0.0,0.0,0.0,0.0,0.0,0.0,0.0,0.0,0.0,0.0,0.0,-6.1396,-6.1528,-6.1607,-6.1607,-6.1607,-6.1607,-6.1607,-6.1607,-6.1627,-6.1685,-6.1627,-6.1607,-6.1607,-6.1607,-6.1607,-6.1646,-6.2465,-6.2815,-6.2874,-6.3672,-6.4004,-6.4101,-6.4978,-6.5796,-6.6517,-6.6576,-6.6653,-6.6712,0.0,0.0,0.0,0.0,0.0,0.0,0.0,0.0,0.0,0.0,0.0,0.0,0.0,0.0,0.0,0.0,0.0,0.0,0.0,0.0,-2.7384,-2.7934,-2.7983,-2.8392,-2.9243,-3.0405,-3.1814,-3.3566,-3.3986,-3.391,-3.3372,-3.2885,-3.2308,-3.1679,-3.1121,-3.0698,0.0,0.0,-3.0398,-3.0398,-3.0398,-3.1218,0.0,0.0,0.0,0.0,0.0,0.0,0.0,0.0,-2.9948,-3.0398,-3.0398,-3.0398,-3.0456,-3.0794,-3.0891,-3.141,-3.3718,-3.6142,0.0,0.0,0.0,0.0,0.0,0.0,0.0,0.0,0.0,0.0,0.0,0.0,0.0,0.0,0.0,0.0,0.0,0.0,0.0,0.0,0.0,0.0,0.0,0.0,0.0,0.0,0.0,0.0,-6.2327,-6.1861,-6.1607,-6.1607,-6.1607,-6.1861,-6.2406,-6.2406,-6.2659,-6.3146,-6.2094,-6.188,-6.2406,-6.2406,-6.2679,-6.3166,-6.3497,-6.3653,-6.3711,-6.4569,-6.4919,-6.4997,-6.5874,-6.642,-6.6712,-6.6712,-6.6712,-6.6712,0.0,0.0,0.0,0.0,0.0,0.0,0.0,0.0,0.0,0.0,0.0,0.0,0.0,0.0,0.0,0.0,0.0,0.0,0.0,-2.6072,-2.647,-2.7058,-2.7361,-2.7877,-2.8676,-3.0198,-3.1718,-3.3219,-3.3585,-3.3327,-3.2513,-3.1962,-3.1558,-3.1263,-3.0667,-3.0398,0.0,0.0,-3.0648,-3.0417,-3.0698,-3.1506,0.0,0.0,0.0,0.0,0.0,0.0,0.0,0.0,-2.9063,-2.9987,-2.9987,-3.0179,-3.0436,-3.0737,-3.1198,-3.1968,-3.3641,-3.6219,-3.8877,0.0,0.0,0.0,0.0,0.0,0.0,0.0,0.0,0.0,0.0,0.0,0.0,0.0,0.0,0.0,0.0,0.0,0.0,0.0,0.0,0.0,0.0,0.0,0.0,0.0,0.0,0.0,0.0,-6.2718,-6.2387,-6.2387,-6.2387,-6.2679,-6.3263,-6.3283,-6.3556,-6.4082,-6.2932,-6.2698,-6.3283,-6.3283,-6.3575,-6.4121,-6.4393,-6.451,-6.4588,-6.5446,-6.5816,-6.5874,-6.6478,-6.6712,-6.6673,-6.64,-6.6459,-6.6653,0.0,0.0,0.0,0.0,0.0,0.0,0.0,0.0,0.0,0.0,0.0,0.0,0.0,0.0,0.0,0.0,0.0,0.0,-2.501,-2.5749,-2.6205,-2.6205,-2.702,-2.7839,-2.8638,-2.9601,-3.0459,-3.129,-3.229,-3.2396,-3.1655,-3.1661,-3.1212,-3.0379,-3.0379,0.0,0.0,0.0,0.0,0.0,-3.1333,-3.1698,-3.1602,0.0,0.0,0.0,0.0,0.0,0.0,0.0,-2.7698,-2.9083,-2.9083,-2.9698,-3.0571,-3.1448,-3.2872,-3.4564,-3.6238,-3.7969,0.0,0.0,0.0,0.0,0.0,0.0,0.0,0.0,0.0,0.0,0.0,0.0,0.0,0.0,0.0,0.0,0.0,0.0,0.0,0.0,0.0,0.0,0.0,0.0,0.0,0.0,0.0,0.0,0.0,-6.4082,-6.4082,-6.4082,-6.4082,-6.4082,-6.4082,-6.4082,-6.4082,-6.4101,-6.4101,-6.4101,-6.4121,-6.4121,-6.4121,-6.4179,-6.5036,-6.5407,-6.5484,-6.6342,-6.6673,-6.6673,-6.6673,-6.6673,-6.6576,-6.5718,-6.5933,-6.6556,0.0,0.0,0.0,0.0,0.0,0.0,0.0,0.0,0.0,0.0,0.0,0.0,0.0,0.0,0.0,0.0,0.0,0.0,-2.501,-2.5219,-2.537,-2.537,-2.5598,-2.5877,-2.6165,-2.7089,-2.855,-3.0594,-3.0948,-3.0394,-2.9041,-2.9605,-2.9433,-2.8695,-2.9879,0.0,0.0,0.0,0.0,0.0,-2.9775,-3.0602,-3.1602,0.0,0.0,0.0,0.0,0.0,0.0,0.0,0.0,0.0,-2.8717,-3.0121,-3.1237,-3.0891,-3.241,-3.4314,-3.4814,0.0,0.0,0.0,0.0,0.0,0.0,0.0,0.0,0.0,0.0,0.0,0.0,0.0,0.0,0.0,0.0,0.0,0.0,0.0,0.0,0.0,0.0,0.0,0.0,0.0,0.0,0.0,0.0,0.0,0.0,-6.2679,-6.2348,-6.2348,-6.2348,-6.264,-6.3244,-6.3263,-6.3536,-6.4101,-6.4101,-6.4413,-6.5017,-6.5017,-6.5348,-6.5933,-6.6205,-6.6303,-6.6283,-6.5933,-6.5426,-6.488,-6.488,-6.488,-6.4842,-6.4588,-6.4647,-6.4822,0.0,0.0,0.0,0.0,0.0,0.0,0.0,0.0,0.0,0.0,0.0,0.0,0.0,0.0,0.0,0.0,0.0,0.0,0.0,0.0,-2.5037,-2.5037,-2.5037,-2.5241,-2.564,-2.6211,-2.7275,-2.8823,-2.9224,-2.8879,-2.792,-2.8722,-2.8845,-2.8434,0.0,-2.9657,0.0,0.0,0.0,0.0,-2.9486,-3.0256,-3.1141,0.0,0.0,0.0,0.0,0.0,0.0,0.0,0.0,0.0,-2.941,-3.0799,-3.2124,-3.1615,-3.3492,-3.5901,-3.6594,0.0,0.0,0.0,0.0,0.0,0.0,0.0,0.0,0.0,0.0,0.0,0.0,0.0,0.0,0.0,0.0,0.0,0.0,0.0,0.0,0.0,0.0,0.0,0.0,0.0,0.0,0.0,0.0,0.0,0.0,-6.2874,-6.2581,-6.2581,-6.2581,-6.2854,-6.3361,-6.338,-6.3614,-6.4101,-6.4101,-6.4374,-6.488,-6.488,-6.5173,-6.5679,-6.5679,-6.5679,-6.564,-6.5095,-6.4569,-6.4101,-6.4101,-6.4101,-6.4062,-6.375,-6.3828,-6.4043,0.0,0.0,-2.0312,-2.0312,0.0,0.0,0.0,0.0,0.0,0.0,0.0,-2.2985,0.0,0.0,0.0,-2.5039,0.0,0.0,0.0,0.0,-2.5095,-2.5095,-2.5114,-2.5507,-2.6366,-2.6397,-2.6416,-2.6481,-2.7343,-2.774,-2.7682,-2.8571,-2.8941,-2.8914,0.0,-2.9767,0.0,0.0,0.0,-2.8929,-2.9737,-3.009,-3.0167,-3.0244,0.0,0.0,0.0,0.0,0.0,0.0,0.0,0.0,-3.076,-3.1733,-3.3111,-3.3015,-3.5411,-3.844,0.0,0.0,0.0,0.0,0.0,0.0,0.0,0.0,0.0,0.0,0.0,0.0,0.0,0.0,0.0,0.0,0.0,0.0,0.0,0.0,0.0,0.0,0.0,0.0,0.0,0.0,0.0,0.0,0.0,0.0,0.0,-6.3828,-6.3867,-6.3867,-6.3867,-6.3867,-6.3867,-6.3867,-6.3867,-6.3867,-6.3867,-6.3867,-6.3887,-6.4023,-6.4101,-6.4101,-6.4101,-6.4062,-6.3984,-6.3984,-6.3945,-6.3867,-6.3867,-6.3867,-6.3789,-6.3049,-6.3244,-6.377,0.0,0.0,-2.0312,-2.0312,0.0,0.0,0.0,0.0,-2.0639,-2.0812,-2.1389,-2.185,-2.2043,-2.3265,0.0,-2.4253,-2.4818,0.0,0.0,0.0,-2.5111,-2.5111,-2.5145,-2.5283,-2.547,-2.5529,-2.5571,-2.559,-2.6448,-2.6535,0.0,0.0,0.0,-2.7189,0.0,-2.8544,0.0,0.0,-2.7305,-2.7159,-2.7351,-2.7832,-2.8506,-2.914,-2.8448,0.0,0.0,0.0,0.0,0.0,0.0,0.0,-3.1418,-3.2744,-3.3848,-3.254,-3.5011,-3.8098,0.0,0.0,0.0,0.0,0.0,0.0,0.0,0.0,0.0,0.0,0.0,0.0,0.0,0.0,0.0,0.0,0.0,0.0,0.0,0.0,0.0,0.0,0.0,0.0,0.0,0.0,0.0,0.0,0.0,0.0,-6.1101,-6.1763,-6.2133,-6.2133,-6.2133,-6.2133,-6.2133,-6.2133,-6.2133,-6.2133,-6.2133,-6.2133,-6.2172,-6.3497,-6.4101,-6.4101,-6.4101,-6.375,-6.3166,-6.3166,-6.2757,-6.2133,-6.2133,-6.2133,-6.2114,-6.1938,-6.1997,-6.2114,0.0,0.0,0.0,0.0,0.0,0.0,0.0,0.0,-2.1812,-2.0985,-2.1235,-2.1658,-2.2081,-2.2562,0.0,0.0,-2.4197,-2.4667,0.0,0.0,0.0,-2.5149,-2.519,-2.522,-2.525,-2.5283,-2.5303,-2.5303,-2.5765,0.0,0.0,0.0,0.0,-2.8445,0.0,-2.861,0.0,0.0,-2.6602,-2.6601,-2.6601,-2.7121,-2.789,-2.789,-2.7622,-2.7345,-2.8315,0.0,0.0,0.0,0.0,0.0,0.0,0.0,-3.4287,-3.3402,-3.5297,-3.7841,0.0,0.0,0.0,0.0,0.0,0.0,0.0,0.0,0.0,0.0,0.0,0.0,0.0,0.0,0.0,0.0,0.0,0.0,0.0,0.0,0.0,0.0,0.0,0.0,0.0,0.0,0.0,0.0,0.0,-6.0925,-6.0925,-6.1354,-6.1607,-6.1607,-6.1607,-6.1607,-6.1607,-6.1607,-6.1607,-6.1607,-6.1607,-6.1607,-6.1627,-6.2503,-6.2893,-6.2893,-6.2893,-6.2679,-6.2289,-6.2289,-6.2016,-6.1607,-6.1607,-6.1607,-6.1607,-6.1607,-6.1607,-6.1607,0.0,0.0,0.0,0.0,0.0,0.0,0.0,0.0,0.0,-2.1696,-2.1504,-2.1773,-2.2504,-2.1927,-2.1793,0.0,0.0,0.0,-2.411,0.0,0.0,0.0,-2.522,-2.5241,-2.5303,-2.5303,-2.5303,-2.5303,0.0,0.0,0.0,0.0,0.0,-3.0138,0.0,0.0,0.0,-2.7083,-2.6381,-2.639,-2.639,-2.6813,-2.7371,-2.6659,-2.6815,-2.7498,-2.7757,-2.8384,-2.945,-3.1933,0.0,0.0,0.0,0.0,-3.4484,-3.4354,-3.5534,-3.7347,0.0,0.0,0.0,0.0,0.0,0.0,0.0,0.0,0.0,0.0,0.0,0.0,0.0,0.0,0.0,0.0,0.0,0.0,0.0,0.0,0.0,0.0,0.0,0.0,0.0,0.0,0.0,0.0,0.0,-6.1373,-6.1373,-6.151,-6.1607,-6.1607,-6.1607,-6.1607,-6.1607,-6.1607,-6.1607,-6.1607,-6.1607,-6.1607,-6.1607,-6.1607,-6.1607,-6.1607,-6.1607,-6.1607,-6.1607,-6.1607,-6.1607,-6.1607,-6.1607,-6.1627,-6.1627,-6.1607,-6.1607,-6.1607,0.0,0.0,0.0,0.0,0.0,0.0,0.0,0.0,0.0,0.0,-2.1504,-2.1543,-2.1658,-2.1562,-2.1543,-2.1658,-2.3167,-2.411,0.0,0.0,0.0,0.0,-2.5293,-2.5293,-2.5303,-2.5303,-2.5303,-2.5303,0.0,0.0,0.0,0.0,0.0,-2.9244,0.0,0.0,0.0,0.0,-2.5466,-2.5476,-2.5476,-2.5534,-2.563,-2.5514,-2.5543,-2.5755,-2.6599,-2.7445,-2.8468,-3.0386,-3.1443,0.0,0.0,0.0,0.0,-3.376,0.0,0.0,0.0,0.0,0.0,0.0,0.0,0.0,0.0,0.0,0.0,0.0,0.0,0.0,0.0,0.0,0.0,0.0,0.0,0.0,0.0,0.0,0.0,0.0,0.0,0.0,0.0,0.0,0.0,0.0,-5.9971,-6.0477,-6.0477,-6.1198,-6.1607,-6.1607,-6.1607,-6.1607,-6.1607,-6.1607,-6.1607,-6.1607,-6.1607,-6.1607,-6.1607,-6.1607,-6.1607,-6.1607,-6.1607,-6.1607,-6.1607,-6.1607,-6.1607,-6.1607,-6.1666,-6.1685,-6.1685,-6.1627,-6.1607,-6.1607,0.0,0.0,0.0,0.0,0.0,0.0,0.0,0.0,0.0,0.0,0.0,-2.2235,-2.2235,-2.1793,-2.1331,-2.0869,-2.1947,0.0,0.0,0.0,0.0,0.0,-2.5303,-2.5303,-2.5303,-2.5303,-2.5303,0.0,0.0,0.0,0.0,-2.941,-3.0502,0.0,0.0,0.0,0.0,0.0,0.0,-2.535,-2.535,-2.6235,-2.7392,-2.5962,-2.6288,-2.7406,-2.6386,-2.6277,-2.6873,-2.8644,-2.9505,-3.0055,-3.1495,0.0,0.0,0.0,0.0,0.0,0.0,0.0,0.0,0.0,0.0,0.0,0.0,0.0,0.0,0.0,0.0,0.0,0.0,0.0,0.0,0.0,0.0,0.0,0.0,0.0,0.0,0.0,0.0,0.0,0.0,0.0,0.0,0.0,-6.0808,-6.1023,-6.1023,-6.1393,-6.1607,-6.1607,-6.1607,-6.1607,-6.1607,-6.1607,-6.1607,-6.1607,-6.1607,-6.1607,-6.1607,-6.1607,-6.1607,-6.1607,-6.1607,-6.1607,-6.1607,-6.1607,-6.1607,-6.1607,-6.1627,-6.1646,-6.1646,-6.1607,-6.1607,-6.1607,0.0,0.0,0.0,0.0,0.0,0.0,0.0,0.0,0.0,0.0,0.0,-2.2793,-2.2793,0.0,0.0,0.0,-2.1043,0.0,0.0,0.0,0.0,0.0,0.0,-2.5303,-2.5303,-2.5303,0.0,0.0,0.0,0.0,-2.9759,-3.0428,-3.2656,0.0,-3.3237,0.0,0.0,0.0,0.0,-2.6381,-2.6384,-2.7561,-2.9201,-2.8167,-2.8815,-2.997,-2.7617,-2.6626,-2.6548,0.0,-2.7776,-2.8054,0.0,0.0,0.0,0.0,0.0,0.0,0.0,0.0,0.0,0.0,0.0,0.0,0.0,0.0,0.0,0.0,0.0,0.0,0.0,0.0,0.0,0.0,0.0,0.0,0.0,0.0,0.0,0.0,0.0,0.0,0.0,0.0,0.0,0.0,-6.1607,-6.1607,-6.1607,-6.1607,-6.1607,-6.1607,-6.1607,-6.1607,-6.1607,-6.1607,-6.1607,-6.1607,-6.1607,-6.1607,-6.1607,-6.1568,-6.1558,-6.1539,-6.1598,-6.1607,-6.1607,-6.1558,-6.1548,-6.1548,-6.1537,-6.1526,-6.1526,-6.1548,-6.1548,-6.1548,0.0,0.0,0.0,0.0,0.0,0.0,0.0,0.0,0.0,0.0,0.0,-2.2793,-2.2793,-2.2023,-2.1177,-2.0369,-2.1043,0.0,0.0,0.0,0.0,0.0,0.0,0.0,0.0,0.0,0.0,0.0,0.0,0.0,-3.1569,-3.1609,-3.3868,-3.7719,-3.4334,-3.1969,-3.0376,0.0,0.0,-2.9094,-2.9096,-2.9182,-2.9644,-3.2823,-3.3557,-3.2667,-3.0878,0.0,0.0,0.0,0.0,0.0,-2.8014,-2.889,-2.9572,0.0,0.0,0.0,0.0,0.0,0.0,0.0,0.0,0.0,0.0,0.0,0.0,0.0,0.0,0.0,0.0,0.0,0.0,0.0,0.0,0.0,0.0,0.0,0.0,0.0,0.0,0.0,0.0,0.0,0.0,0.0,-6.1607,-6.1607,-6.1607,-6.1607,-6.1607,-6.1607,-6.1607,-6.1607,-6.1607,-6.1607,-6.1607,-6.1607,-6.1607,-6.1607,-6.1607,-6.1464,-6.1408,-6.1428,-6.1539,-6.1607,-6.1578,-6.1447,-6.1414,-6.1414,-6.1326,-6.1314,-6.131,-6.1386,-6.1414,-6.1408,0.0,0.0,0.0,0.0,0.0,0.0,0.0,0.0,0.0,0.0,0.0,0.0,0.0,-2.336,-2.2831,-2.1985,-2.2677,0.0,0.0,0.0,0.0,0.0,0.0,0.0,0.0,0.0,0.0,0.0,0.0,-2.665,-2.9272,-3.0362,-3.1367,-3.2314,-3.2718,-3.2937,-3.2774,-2.94,0.0,0.0,-2.9972,-3.1202,0.0,-3.2882,-3.4438,-3.6129,-3.3313,0.0,0.0,0.0,0.0,-2.9084,-2.779,-2.7959,-2.868,-2.868,0.0,0.0,0.0,0.0,0.0,0.0,0.0,0.0,0.0,0.0,0.0,0.0,0.0,0.0,0.0,0.0,0.0,0.0,0.0,0.0,0.0,0.0,0.0,0.0,0.0,0.0,0.0,0.0,0.0,0.0,0.0,-6.1607,-6.1607,-6.1607,-6.1607,-6.1607,-6.1607,-6.1607,-6.1607,-6.1607,-6.1607,-6.1607,-6.1607,-6.1607,-6.1607,-6.1464,-6.1396,-6.1396,-6.1369,-6.1336,-6.1342,-6.1298,-6.1268,-6.1268,-6.1255,-6.1245,-6.1249,-6.1356,-6.14,-6.1414,0.0,0.0,0.0,-2.6217,0.0,-2.3898,-2.3321,-2.2985,-2.2908,-2.3206,0.0,0.0,0.0,0.0,-2.3744,-2.287,-2.334,-2.3783,-2.4072,-2.4601,0.0,0.0,0.0,0.0,0.0,0.0,0.0,0.0,0.0,0.0,0.0,-2.9044,-2.9706,-3.0006,-3.0849,-3.2094,0.0,0.0,0.0,-3.0851,0.0,0.0,-3.51,0.0,-3.7501,-3.9334,0.0,0.0,0.0,0.0,0.0,0.0,-2.8588,-2.7585,-2.7413,-2.7686,-2.9007,0.0,0.0,0.0,0.0,0.0,0.0,0.0,0.0,0.0,0.0,0.0,0.0,0.0,0.0,0.0,0.0,0.0,0.0,0.0,0.0,0.0,0.0,0.0,0.0,0.0,0.0,0.0,0.0,0.0,0.0,0.0,-6.1179,-6.1432,-6.1607,-6.1607,-6.1607,-6.1607,-6.1607,-6.1607,-6.1607,-6.1607,-6.1607,-6.1607,-6.1588,-6.1408,-6.1322,-6.1308,-6.115,-6.1115,-6.12,-6.115,-6.1133,-6.1133,-6.1079,-6.108,-6.1079,-6.1225,-6.1287,-6.1318,-2.5668,-2.6005,-2.6294,-2.5476,-2.4678,-2.4129,-2.411,-2.3398,-2.3167,-2.3995,0.0,0.0,0.0,0.0,0.0,-2.2947,-2.287,-2.3216,-2.4091,-2.4149,0.0,0.0,0.0,0.0,0.0,0.0,0.0,0.0,0.0,0.0,0.0,0.0,-2.9184,0.0,-2.9013,-2.9378,-3.1837,0.0,-3.3179,-3.357,0.0,-3.584,-3.6551,0.0,0.0,0.0,-4.1365,-4.0496,0.0,-3.5935,0.0,0.0,-3.0394,-2.7838,-2.5952,-2.6712,-2.8173,0.0,0.0,0.0,0.0,0.0,0.0,0.0,0.0,0.0,0.0,0.0,0.0,0.0,0.0,0.0,0.0,0.0,0.0,0.0,0.0,0.0,0.0,0.0,0.0,0.0,0.0,0.0,0.0,0.0,-6.0964,-6.1081,-6.0263,-6.1062,-6.1568,-6.1607,-6.1607,-6.1607,-6.1607,-6.1607,-6.1607,-6.1607,-6.1607,-6.1607,-6.1588,-6.1342,-6.12,-6.1184,-6.0918,-6.0941,-6.1184,-6.1041,-6.1002,-6.0982,-6.085,-6.08,-6.0823,-6.0941,-6.1079,-6.1184,-2.6322,-2.5928,-2.5793,-2.6178,-2.5524,-2.4774,-2.4187,-2.4389,-2.4485,0.0,0.0,0.0,-2.4966,-2.4966,-2.487,-2.4639,-2.462,-2.4716,-2.4947,-2.4966,-2.5082,-2.5284,-2.5303,-2.5303,-2.5303,0.0,0.0,0.0,0.0,0.0,0.0,0.0,0.0,0.0,-2.8635,-2.8974,-2.9055,-2.878,0.0,0.0,-3.4125,-3.5922,0.0,0.0,0.0,0.0,0.0,-4.27,-4.2264,0.0,-3.878,-3.6409,0.0,0.0,-2.8381,-2.7963,-2.9074,-3.0399,-3.0263,0.0,0.0,0.0,0.0,0.0,0.0,0.0,0.0,0.0,0.0,0.0,0.0,0.0,0.0,0.0,0.0,0.0,0.0,0.0,0.0,0.0,0.0,0.0,0.0,0.0,0.0,0.0,-5.7769,-5.8061,-5.8392,-5.9834,-6.0945,-6.1588,-6.1607,-6.1607,-6.1607,-6.1607,-6.1607,-6.1607,-6.1607,-6.1607,-6.1588,-6.1408,-6.1294,-6.12,-6.1022,-6.092,-6.0918,-6.0853,-6.085,-6.085,-6.0804,-6.08,-6.0823,-6.0941,-6.1022,-6.1041,-2.6053,-2.5649,-2.5457,-2.5967,-2.563,-2.5255,-2.5159,-2.5236,-2.5255,0.0,0.0,0.0,-2.5303,-2.5947,-2.6101,-2.536,-2.5303,-2.5303,-2.5303,-2.5303,-2.5303,-2.5303,-2.5303,-2.5303,-2.5303,0.0,0.0,0.0,0.0,0.0,0.0,0.0,0.0,0.0,-2.7261,-2.7679,-2.7492,-2.6718,0.0,0.0,-3.5382,0.0,0.0,-4.1383,-4.2942,0.0,0.0,0.0,-4.4052,-4.3565,-4.1208,0.0,0.0,-3.2508,-3.0886,-2.9659,-3.0516,0.0,-3.1276,0.0,0.0,0.0,0.0,0.0,0.0,-4.0578,0.0,0.0,0.0,0.0,0.0,0.0,0.0,0.0,0.0,0.0,0.0,0.0,0.0,0.0,0.0,0.0,0.0,-5.6803,-5.6862,-5.653,-5.6511,-5.6706,-5.7165,-5.847,-5.9445,-5.9951,-6.0321,-6.0692,-6.1042,-6.1062,-6.1237,-6.1607,-6.1607,-6.1607,-6.1607,-6.1464,-6.1369,-6.1279,-6.115,-6.1022,-6.0962,-6.0918,-6.085,-6.08,-6.08,-6.08,-6.0823,-6.0875,-6.0982,-6.1079,0.0,-2.5284,-2.5322,-2.5418,-2.5437,-2.5736,-2.6621,-2.6101,-2.587,0.0,-2.6159,-2.5764,-2.586,-2.7159,-2.7409,-2.587,-2.5553,-2.5437,-2.5447,-2.5341,-2.5303,-2.5303,-2.5303,-2.5303,-2.5303,-2.5303,-2.5303,0.0,0.0,0.0,0.0,0.0,-2.539,-2.541,-2.5538,-2.6026,-2.6732,-2.6398,0.0,-3.263,-3.7233,-3.9487,0.0,0.0,-4.4299,-4.4058,-4.5533,-4.5611,-4.5027,-4.4929,-4.2292,0.0,-3.6916,-3.5299,-3.376,-3.1909,-3.2674,0.0,-3.3868,-3.4491,0.0,-3.7698,-3.777,0.0,-4.0939,-4.1103,0.0,0.0,0.0,0.0,0.0,0.0,0.0,0.0,0.0,0.0,0.0,0.0,0.0,0.0,0.0,0.0,-5.6207,-5.687,-5.6979,-5.6277,-5.6199,-5.6258,-5.6347,-5.7029,-5.7477,-5.7555,-5.8314,-5.9094,-5.9873,-6.0068,-6.0536,-6.1315,-6.151,-6.1607,-6.1607,-6.1476,-6.1408,-6.1396,-6.1279,-6.1217,-6.12,-6.106,-6.0941,-6.0804,-6.0823,-6.08,-6.08,-6.08,-6.0941,-6.115,-2.5293,-2.5253,-2.5454,-2.6206,-2.6351,-2.664,-2.7505,-2.7505,-2.7448,-2.7621,-2.8063,-2.8621,-2.9321,-2.9083,-2.8717,-2.839,-2.7129,-2.6351,-2.6352,-2.5688,-2.5303,-2.5303,-2.5303,-2.5303,-2.5303,-2.5303,-2.5322,-2.539,0.0,0.0,0.0,0.0,0.0,-2.5401,-2.5478,-2.5647,-2.6032,-2.8618,0.0,-3.3089,-3.4197,0.0,-4.1816,-4.2532,-4.3946,-4.5501,-4.5246,-4.5494,-4.5845,-4.5144,-4.387,-4.2188,0.0,-3.8811,-3.8063,-3.5616,-3.6635,-3.8238,-3.6849,-3.7603,-3.8396,-3.6818,-3.7325,0.0,-3.7325,-3.7578,-3.8746,0.0,0.0,0.0,0.0,0.0,0.0,0.0,0.0,0.0,0.0,0.0,0.0,0.0,0.0,0.0,-5.4398,-5.4562,-5.4582,-5.4426,-5.4406,-5.4718,-5.5411,-5.5606,-5.6015,-5.6697,-5.6892,-5.7068,-5.7243,-5.8587,-5.9347,-5.9522,-6.0925,-6.1607,-6.1607,-6.1568,-6.1507,-6.1396,-6.1369,-6.1294,-6.12,-6.1167,-6.1079,-6.0941,-6.085,-6.08,-6.08,-6.08,-6.0827,-6.0897,-2.5182,-2.5524,-2.5964,-2.6453,-2.6905,-2.7646,-2.8937,-2.8775,-2.8948,-3.0237,-3.1121,-3.1333,-3.0475,-3.041,-3.0044,-2.9179,-2.7967,-2.7063,-2.6631,-2.6198,-2.5746,-2.5322,-2.5303,-2.5303,-2.5303,-2.5303,-2.5322,-2.5409,0.0,0.0,0.0,-2.5453,-2.5909,-2.6708,-2.5937,-2.6315,-2.7595,0.0,-3.0238,-3.2854,-3.5881,0.0,-4.2306,-4.3653,-4.4401,-4.4831,-4.5363,-4.5825,-4.6059,-4.5202,-4.4611,0.0,-4.1721,-4.1344,-4.1181,0.0,-3.9376,-4.0766,-3.9493,-4.0072,-4.0734,-3.9429,0.0,0.0,0.0,-3.8825,-3.9733,-4.1871,0.0,0.0,0.0,0.0,0.0,0.0,0.0,0.0,0.0,0.0,0.0,0.0,0.0,0.0,-5.3903,-5.3911,-5.3911,-5.3911,-5.3892,-5.4087,-5.4535,-5.4554,-5.4749,-5.5197,-5.5197,-5.5411,-5.584,-5.6697,-5.7321,-5.7769,-5.9484,-6.0302,-6.0321,-6.1198,-6.1568,-6.1507,-6.1507,-6.1464,-6.1396,-6.1342,-6.1264,-6.1184,-6.1041,-6.1002,-6.1002,-6.1002,-6.1041,-6.1115,-2.5103,-2.5944,-2.672,-2.6937,-2.785,-2.9082,-3.0648,-3.0275,-3.0679,-3.3083,-3.4141,-3.4026,-3.2295,-3.2583,-3.2422,-3.1164,-2.9721,-2.8566,-2.7855,-2.7219,-2.6602,-2.6072,-2.5553,-2.5457,-2.5793,-2.5476,-2.5351,-2.5428,0.0,0.0,-2.5525,-2.555,-2.6384,-2.7826,0.0,0.0,0.0,0.0,0.0,-3.3824,0.0,-4.0839,-4.1618,-4.4258,-4.4501,-4.3723,-4.555,-4.6196,-4.6079,-4.5397,-4.5144,-4.489,-4.3298,-4.3403,0.0,0.0,0.0,-4.2864,0.0,0.0,-4.3137,-4.2474,0.0,-4.263,0.0,0.0,0.0,-4.2546,0.0,0.0,0.0,0.0,0.0,0.0,0.0,0.0,0.0,0.0,0.0,0.0,0.0,0.0,-5.363,-5.3494,-5.3533,-5.3864,-5.3591,-5.3552,-5.3892,-5.3911,-5.3911,-5.3911,-5.3736,-5.3989,-5.4691,-5.4866,-5.5295,-5.6015,-5.7691,-5.8587,-5.8802,-6.038,-6.1198,-6.1354,-6.1529,-6.1607,-6.1588,-6.1476,-6.144,-6.1408,-6.1264,-6.12,-6.12,-6.12,-6.1264,-6.1369,-2.5103,-2.6414,-2.7797,-2.8586,-3.0131,-3.1552,-3.2487,-3.2526,-3.3122,0.0,-3.5911,-3.6887,0.0,0.0,0.0,0.0,-3.4583,-3.2297,-3.2181,-2.9398,-2.8037,-2.8645,-2.6504,-2.6024,-2.7563,-2.6148,-2.5415,-2.5486,-2.5478,0.0,0.0,-2.5473,-2.6008,-2.7057,-2.7466,0.0,0.0,0.0,-3.3986,0.0,-3.9196,-3.9108,0.0,-4.1513,-4.2904,-4.3654,-4.5535,-4.6196,-4.6176,0.0,-4.6047,-4.5871,0.0,-4.5202,-4.5533,-4.3721,0.0,0.0,0.0,0.0,0.0,0.0,-4.4033,-4.452,-3.9864,0.0,-4.0929,-4.0338,0.0,0.0,0.0,0.0,0.0,0.0,0.0,0.0,0.0,0.0,0.0,0.0,0.0,0.0,0.0,-5.2044,-5.2239,-5.3775,-5.2472,-5.2278,-5.3814,-5.3911,-5.3911,-5.3911,-5.3151,-5.2801,-5.2898,-5.3658,-5.4106,-5.4223,-5.5879,-5.7107,-5.7886,-5.8841,-5.9717,-6.0497,-6.1257,-6.1607,-6.1607,-6.1578,-6.1578,-6.1539,-6.1294,-6.12,-6.12,-6.12,-6.1217,-6.1233,-2.4926,-2.674,-2.8422,-2.8849,-3.0381,-3.2012,-3.3436,-3.5334,-3.668,0.0,0.0,0.0,0.0,0.0,0.0,0.0,0.0,-3.5245,0.0,-3.2333,-3.1064,-2.9906,-2.8349,-2.7618,-2.789,-2.6745,-2.5952,-2.5507,-2.5535,-2.558,0.0,-2.5568,-2.6806,-2.9091,-2.883,0.0,-3.4244,0.0,-3.4735,0.0,0.0,0.0,0.0,-4.2427,-4.4478,-4.5016,-4.5893,-4.6534,-4.6885,0.0,-4.6539,0.0,0.0,0.0,0.0,-4.4715,0.0,0.0,0.0,0.0,0.0,0.0,0.0,0.0,-4.1305,0.0,-4.1117,0.0,0.0,0.0,0.0,0.0,0.0,0.0,0.0,0.0,0.0,0.0,0.0,0.0,0.0,0.0,0.0,0.0,0.0,0.0,-5.171,-5.2052,-5.3814,-5.3911,-5.4126,-5.4652,-5.3327,-5.2606,-5.2606,-5.2469,-5.2391,-5.2411,-5.4126,-5.5139,-5.5548,-5.6912,-5.8276,-5.9561,-5.9932,-6.0672,-6.1607,-6.1607,-6.1607,-6.1578,-6.1476,-6.1421,-6.1421,-6.1421,-6.1421,-6.144,-2.574,0.0,-2.9004,-2.8864,-3.0677,-3.2699,-3.432,-3.6853,-3.8604,-3.8681,0.0,0.0,-4.1813,-4.0816,0.0,0.0,-4.0162,-3.8516,0.0,-3.5196,-3.3942,-3.2545,-3.0547,-2.9406,-2.93,-2.7834,-2.6675,-2.5873,-2.5717,-2.5769,0.0,0.0,-2.7136,-2.9965,0.0,-3.2396,-3.648,0.0,0.0,-3.8053,-3.8768,-3.9084,-3.9561,-4.3559,-4.5447,-4.6017,-4.6427,-4.6963,-4.745,-4.7058,-4.7163,0.0,-4.7033,-4.6741,-4.6429,0.0,0.0,0.0,-4.5553,0.0,0.0,0.0,0.0,0.0,0.0,0.0,-4.1877,0.0,0.0,0.0,0.0,0.0,0.0,0.0,0.0,0.0,0.0,0.0,0.0,0.0,0.0,0.0,0.0,0.0,0.0,0.0,0.0,-5.0852,-5.3073,-5.3638,-5.4301,-5.5178,-5.397,-5.321,-5.2957,-5.2099,-5.1534,-5.132,-5.2586,-5.3307,-5.3599,-5.51,-5.6834,-5.8665,-5.8899,-5.999,-6.1607,-6.1607,-6.1607,-6.1607,-6.1607,-6.1607,-6.1607,-6.1607,-6.1607,-6.1607,-2.811,-2.9058,0.0,0.0,-3.1651,-3.4347,-3.532,-3.6219,-3.7661,-4.0085,0.0,0.0,0.0,0.0,0.0,0.0,0.0,-4.2539,-4.162,-3.7732,-3.6161,-3.77,-3.3006,-3.1141,-3.2808,-2.962,-2.7593,-2.6856,-2.6087,-2.6058,0.0,0.0,-2.643,-2.8187,-3.0565,-3.3114,-3.5751,-3.7242,-4.0258,-4.3874,-4.2316,-4.3143,-4.5178,0.0,-4.4482,-4.6038,-4.7073,0.0,0.0,-4.8436,-4.8164,0.0,0.0,0.0,0.0,0.0,0.0,0.0,0.0,0.0,0.0,-4.4501,0.0,0.0,0.0,0.0,-4.3293,-4.2474,-4.3604,-4.4481,0.0,-4.3546,-4.3799,-4.4624,0.0,0.0,0.0,0.0,0.0,0.0,0.0,0.0,0.0,0.0,0.0,0.0,-4.6839,0.0,-5.1203,-5.2976,-5.4301,-5.5178,-5.5158,-5.471,-5.3872,-5.2995,-5.2138,-5.13,-5.1359,-5.1826,-5.2664,-5.358,-5.5353,-5.7788,-5.8626,-5.999,-6.1607,-6.1607,-6.1607,-6.1607,-6.1607,-6.1607,-6.1607,-6.1607,-6.1607,-6.1607,0.0,0.0,0.0,0.0,0.0,-3.3925,-3.5974,-3.845,-4.0585,0.0,0.0,0.0,0.0,-4.5086,-4.5087,0.0,0.0,-4.4781,-4.2789,-4.1819,-4.0848,-3.9828,-3.7583,-3.6126,-3.566,-3.3444,-3.1345,-2.9401,-2.8552,-2.7982,0.0,0.0,0.0,0.0,0.0,-3.4558,0.0,0.0,0.0,0.0,0.0,-4.3346,-4.5619,0.0,-4.5762,-4.6833,-4.7326,-4.821,0.0,-4.8884,-4.8592,-4.83,-4.8027,-4.7345,-4.6741,-4.7326,-4.7306,-4.7072,0.0,0.0,-4.6663,-4.489,0.0,0.0,0.0,0.0,0.0,-4.2357,-4.3234,-4.3955,-4.3643,-4.3604,-4.3702,-4.3955,-4.4014,0.0,0.0,0.0,0.0,0.0,0.0,0.0,0.0,0.0,0.0,0.0,-4.6371,0.0,0.0,-5.1554,-5.3112,-5.5139,-5.4652,-5.4476,-5.4768,-5.3911,-5.3015,-5.2158,-5.2158,-5.2002,-5.1749,-5.2041,-5.3288,-5.5236,-5.6113,-5.7788,-5.9912,-6.0497,-6.1081,-6.1607,-6.1607,-6.1607,-6.1607,-6.1607,-6.1607,-6.1607,-3.0054,0.0,0.0,0.0,0.0,0.0,-3.7262,-4.0008,0.0,0.0,-4.397,0.0,-4.5932,0.0,-4.5451,0.0,-4.6568,-4.6068,-4.4112,-4.4222,0.0,-4.2117,-4.0974,-3.9743,-3.8412,-3.6736,-3.4646,-3.2096,-3.0905,-2.9868,-2.8967,0.0,0.0,0.0,0.0,0.0,-3.8546,0.0,-4.2604,0.0,0.0,-4.4388,0.0,0.0,-4.676,-4.7345,0.0,-4.8911,-4.9547,-4.9313,-4.8833,-4.8288,-4.8047,-4.7365,-4.6761,-4.7345,-4.7326,-4.7111,-4.7053,-4.6839,0.0,-4.5202,-4.4481,0.0,-4.2961,0.0,-4.3604,0.0,-4.4169,-4.4988,-4.4988,-4.4481,-4.4169,-4.4462,-4.4267,-4.3468,0.0,-4.0565,0.0,0.0,0.0,0.0,0.0,0.0,-4.3858,-4.5611,-4.5455,0.0,0.0,-5.0209,-5.1885,-5.4203,-5.434,-5.4632,-5.5197,-5.4652,-5.3931,-5.3054,-5.2742,-5.2314,-5.1749,-5.1437,-5.2255,-5.3931,-5.4496,-5.6366,-5.9035,-5.96,-6.0536,-6.1607,-6.1607,-6.1607,-6.1607,-6.1607,-6.1607,-6.1607,-3.3734,0.0,0.0,0.0,-3.4481,0.0,0.0,0.0,-4.2527,0.0,-4.4451,-4.5124,-4.6778,-4.6971,-4.6971,-4.6971,-4.6971,-4.6587,-4.5725,-4.4994,0.0,0.0,-4.3169,-4.1972,-4.1185,-3.9474,-3.7364,-3.4856,-3.3025,-3.1649,-3.0687,0.0,0.0,0.0,-3.2692,0.0,-3.7046,-4.1312,-4.4083,-4.5603,-4.5715,-4.6259,-4.7042,-4.7326,-4.7427,-4.7651,-4.9375,-4.9515,-4.8962,-4.971,-4.8853,-4.7637,-4.8417,-4.8105,-4.7443,-4.7482,-4.8066,-4.8319,-4.6702,-4.6839,-4.7033,-4.5377,-4.4929,0.0,0.0,0.0,-4.5903,0.0,-4.6293,-4.7501,-4.745,-4.6125,-4.5267,-4.5949,-4.5306,-4.4118,0.0,0.0,0.0,0.0,0.0,0.0,0.0,0.0,-4.302,-4.4773,-4.4091,0.0,0.0,-4.9001,-5.0696,-5.2489,-5.4223,-5.5158,-5.5197,-5.5236,-5.4827,-5.395,-5.3112,-5.2684,-5.2567,-5.1749,-5.2236,-5.3775,-5.3814,-5.5704,-5.8763,-5.888,-5.9932,-6.1471,-6.1568,-6.1607,-6.1607,-6.1607,-6.1607,-6.1607,-3.4566,-3.6133,-3.7629,0.0,-3.7882,-3.8661,0.0,0.0,0.0,0.0,-4.6759,-4.7298,-4.774,-4.7798,-4.7798,-4.7798,-4.7798,0.0,0.0,0.0,0.0,-4.6562,-4.6185,-4.5616,-4.4857,-4.2512,-4.0377,-3.8461,-3.5327,-3.3359,-3.2493,0.0,0.0,0.0,0.0,0.0,-3.7983,-4.1624,-4.411,-4.5661,-4.6387,-4.6858,-4.7308,0.0,-4.9265,-4.9367,-4.9839,-4.9866,-4.9625,-4.9243,-4.8385,-4.7423,-4.6995,-4.6702,-4.6663,-4.7306,-4.7189,-4.6917,-4.7111,-4.6858,-4.6429,-4.5981,-4.5377,-4.4832,0.0,0.0,0.0,0.0,0.0,-4.7306,-4.6644,-4.6702,-4.6274,-4.4546,-4.3033,-4.1688,0.0,0.0,0.0,-4.1325,0.0,0.0,0.0,-4.3059,-4.302,-4.4773,-4.4091,0.0,0.0,0.0,-4.9216,-5.1554,-5.3327,-5.4535,-5.5197,-5.584,-5.5723,-5.4866,-5.4652,-5.3853,-5.2586,-5.2372,-5.2158,-5.2002,-5.2645,-5.3794,-5.5353,-5.7243,-5.8685,-5.9795,-6.1081,-6.1607,-6.1607,-6.1607,-6.1607,-6.1607,-3.6785,0.0,0.0,-4.1489,0.0,0.0,-4.3835,-4.4586,0.0,-4.6721,-4.7298,0.0,-4.7586,-4.7894,-4.8105,-4.8105,-4.8141,0.0,-4.7062,0.0,0.0,-4.6758,-4.7513,-4.7396,-4.6235,-4.5124,-4.3169,-4.0278,-3.7471,0.0,-3.3072,0.0,0.0,0.0,0.0,-3.5899,0.0,-4.2008,-4.4712,-4.6262,-4.6849,-4.7598,0.0,-4.9547,-4.9963,-4.9995,-4.9995,-4.9761,-4.9352,-4.8502,-4.7645,-4.6839,-4.6352,-4.6196,-4.6293,-4.678,-4.6585,-4.6313,-4.68,-4.6566,-4.6196,-4.6196,-4.5825,-4.5475,-4.5475,-4.5475,-4.5475,0.0,-4.6254,-4.7014,-4.7279,-4.68,-4.5884,-4.4403,-4.339,-4.2312,0.0,0.0,0.0,0.0,-4.111,0.0,-4.3585,-4.2877,-4.2857,-4.4228,-4.3877,0.0,0.0,0.0,-4.8877,-5.0635,-5.2784,-5.4284,-5.5113,-5.5989,-5.6144,-5.5594,-5.5268,-5.4412,-5.3069,-5.2745,-5.2119,-5.1339,-5.1826,-5.2742,-5.4048,-5.586,-5.7555,-5.9172,-6.0847,-6.1476,-6.144,-6.144,-6.1464,-6.1518,-3.9605,0.0,0.0,0.0,0.0,0.0,0.0,-4.595,0.0,-4.7105,0.0,-4.7413,-4.7413,-4.8029,-4.8432,-4.8451,0.0,-4.8147,-4.7441,-4.8135,-4.7928,-4.6429,-4.7922,-4.8098,-4.6578,-4.6956,-4.5227,-4.126,-3.9166,-3.6444,-3.3151,0.0,0.0,0.0,0.0,0.0,0.0,-4.257,-4.5501,-4.7042,-4.7288,-4.8394,-4.9907,-4.9971,-4.9995,-4.9976,-4.9753,-4.9216,-4.8514,-4.7762,-4.6924,-4.6196,-4.6196,-4.6196,-4.6196,-4.6196,-4.6196,-4.6196,-4.6196,-4.6196,-4.6196,-4.6196,-4.6196,-4.6196,-4.6196,-4.6196,-4.6196,-4.6196,-4.6293,-4.6839,-4.8351,-4.6683,0.0,0.0,0.0,-4.4325,0.0,0.0,0.0,0.0,0.0,0.0,0.0,-4.2078,-4.2507,-4.3351,-4.3305,0.0,0.0,0.0,-4.8699,-4.9672,-5.2183,-5.3925,-5.4801,-5.5668,-5.6104,-5.6083,-5.5443,-5.4626,-5.3654,-5.3011,-5.2191,-5.1256,-5.1256,-5.2113,-5.3593,-5.4586,-5.6553,-5.9114,-6.0728,-6.1294,-6.12,-6.12,-6.1264,-6.1356,0.0,0.0,0.0,0.0,0.0,-4.6756,-4.7687,-4.7735,-4.7971,-4.8856,-4.9586,-5.0029,-5.0029,-5.0164,-5.0278,-5.0308,-4.9735,0.0,0.0,0.0,0.0,-4.8319,-4.8619,-4.8651,-4.8343,-4.6383,-4.463,-4.3123,-3.9216,-3.6231,-3.4119,0.0,0.0,0.0,0.0,0.0,-4.1432,-4.3649,0.0,-4.7243,-4.8036,-4.8992,-4.9907,-4.9971,-4.9995,-4.982,-4.8429,-4.7852,-4.7696,-4.7547,-4.6924,-4.6196,-4.6196,-4.6196,-4.6196,-4.6196,-4.6196,-4.6196,-4.6196,-4.6196,-4.6196,-4.6196,-4.6196,-4.6196,-4.6196,-4.6196,-4.6196,-4.6196,-4.6761,-4.7365,-4.7676,0.0,0.0,0.0,0.0,0.0,0.0,0.0,0.0,0.0,0.0,-4.1598,0.0,-4.0896,-4.1637,-4.2396,0.0,0.0,0.0,0.0,-4.636,0.0,-5.0506,0.0,0.0,0.0,-5.5414,-5.6102,-5.5962,-5.5065,-5.3532,-5.3391,-5.2492,-5.1056,-5.1056,-5.1231,-5.1619,-5.3223,-5.5805,-5.893,-6.0589,-6.1217,-6.12,-6.12,-6.115,-6.1079,0.0,0.0,0.0,0.0,0.0,0.0,0.0,-5.0221,-5.0414,-4.951,-4.976,-5.0029,-5.0029,-5.0433,-5.0721,-5.0786,-5.0518,-5.0201,-4.993,-4.9543,-4.9174,-4.8818,-4.9211,-4.9016,-4.8144,-4.7338,-4.5585,-4.2877,-3.9906,-3.7031,-3.4322,-3.3021,-3.2204,0.0,0.0,-3.8733,0.0,0.0,0.0,-4.7804,-4.8257,-4.898,-4.9759,-4.9411,-4.8982,-4.8494,-4.7759,-4.7209,-4.6819,-4.6826,-4.6553,-4.6196,-4.6196,-4.6196,-4.6196,-4.6196,-4.6196,-4.6196,-4.6196,-4.6196,-4.6196,-4.6196,-4.6196,-4.6196,-4.6196,-4.6196,-4.6196,-4.6196,-4.6897,-4.7637,-4.8086,-4.7832,0.0,-4.6391,-4.5864,0.0,0.0,0.0,-4.4247,0.0,0.0,0.0,0.0,0.0,0.0,0.0,0.0,0.0,0.0,0.0,-4.6222,0.0,0.0,0.0,-5.3433,0.0,-5.5103,-5.5902,-5.5973,-5.5117,-5.3452,-5.3475,-5.2593,-5.1004,-5.1004,-5.1004,-5.1197,-5.3814,-5.6091,-5.8136,-6.0265,-6.1041,-6.1002,-6.1002,-6.0941,-6.0918,0.0,-4.8279,0.0,0.0,-4.9375,0.0,-5.0895,-5.2242,-5.2491,-5.0471,-5.0048,-4.9933,-4.9933,-5.0394,-5.0721,-5.0786,-5.0909,-5.0773,-5.0209,-5.0238,-4.9909,-4.9083,-4.9671,-4.9308,-4.782,-4.8456,-4.6819,-4.2773,-4.1085,-3.85,-3.5122,-3.4058,-3.3427,-3.3306,0.0,0.0,0.0,0.0,-4.6559,-4.8313,-4.8135,-4.8631,-4.9353,-4.8584,-4.7889,-4.7271,-4.7198,-4.6741,-4.6196,-4.6391,-4.6352,-4.6196,-4.6196,-4.6332,-4.6468,-4.6468,-4.6605,-4.6741,-4.6741,-4.6624,-4.6468,-4.6468,-4.6332,-4.6196,-4.6196,-4.6196,-4.6254,-4.6429,-4.7306,-4.8183,-4.869,-4.8806,0.0,0.0,0.0,0.0,0.0,0.0,0.0,0.0,0.0,0.0,-4.0714,0.0,0.0,0.0,0.0,0.0,-4.3143,0.0,0.0,0.0,0.0,-5.125,-5.3048,0.0,-5.4786,-5.5703,-5.5808,-5.4978,-5.3375,-5.342,-5.252,-5.0952,-5.0952,-5.0952,-5.1203,-5.461,-5.6362,-5.7139,-5.988,-6.0897,-6.08,-6.08,-6.08,-6.0823,0.0,0.0,0.0,0.0,0.0,0.0,-5.1931,-5.2666,-5.3106,-5.2876,-5.2164,-5.1683,-5.1683,-5.1087,-5.0721,-5.0786,-5.0932,-5.1011,-5.1072,-5.1137,-5.0794,-4.9929,-4.9948,-4.9598,-4.8702,-4.8768,-4.7443,-4.4642,-4.2916,-4.0643,-3.789,-3.6222,-3.6189,-3.7635,-4.034,0.0,0.0,-4.4578,-4.6073,-4.8332,-4.7606,-4.783,-4.8512,-4.7666,-4.7281,-4.7117,-4.6411,-4.6098,-4.6157,-4.7072,-4.6839,-4.6196,-4.6196,-4.6741,-4.7384,-4.7384,-4.793,-4.8553,-4.8553,-4.7988,-4.7384,-4.7384,-4.678,-4.6196,-4.6196,-4.6196,-4.641,-4.7209,-4.8651,-4.9566,-4.8923,-4.8806,-4.8514,0.0,0.0,0.0,0.0,0.0,-4.5269,-4.3587,0.0,0.0,0.0,-4.03,0.0,0.0,-4.097,0.0,-4.306,0.0,0.0,-4.6989,-4.7911,-4.9547,-5.203,-5.2896,-5.4127,-5.5703,-5.5705,-5.4839,-5.3223,-5.3243,-5.23,-5.074,-5.074,-5.074,-5.0991,-5.434,-5.5784,-5.6167,-5.9515,-6.0823,-6.08,-6.08,-6.08,-6.08,0.0,0.0,0.0,0.0,0.0,0.0,0.0,-5.4205,-5.4703,-5.4703,-5.353,-5.2683,-5.2683,-5.2395,-5.203,-5.1617,-5.1695,-5.158,-5.1117,-5.1183,-5.1047,-5.0611,-5.0591,-5.0202,-4.9364,-4.9418,-4.8436,-4.6337,-4.4689,-4.2739,-4.0544,-3.9328,-3.961,-4.1165,0.0,-4.4033,-4.5244,-4.5728,-4.6529,-4.7472,-4.7148,-4.7233,-4.7452,-4.661,-4.6287,-4.6273,-4.6026,-4.6277,-4.6784,-4.7173,-4.7163,-4.7072,-4.7599,-4.8008,-4.828,-4.828,-4.8534,-4.8806,-4.8806,-4.8553,-4.8137,-4.7531,-4.7114,-4.6716,-4.6144,-4.6017,-4.627,-4.7134,-4.8649,-4.9873,-5.0087,-4.9282,-4.8446,-4.8097,0.0,0.0,0.0,0.0,0.0,-4.4303,0.0,-4.2641,0.0,0.0,0.0,0.0,0.0,-4.1986,-4.2299,-4.3588,0.0,-4.6086,0.0,-4.9317,-5.1895,-5.276,-5.4049,-5.5703,-5.5703,-5.4818,-5.3203,-5.3203,-5.2299,-5.0702,-5.0702,-5.0971,-5.1645,-5.4511,-5.6011,-5.678,-5.9665,-6.08,-6.08,-6.08,-6.08,-6.08,-5.3895,0.0,-5.3222,0.0,-5.3933,-5.4145,-5.4761,-5.5318,-5.5703,-5.5703,-5.4664,-5.3857,-5.3606,-5.3356,-5.2993,-5.2471,-5.2543,-5.2244,-5.1375,-5.1461,-5.1361,-5.1031,-5.1011,0.0,-4.9718,-5.0051,-4.9498,-4.8011,-4.6376,-4.4878,-4.3529,-4.2381,-4.2415,-4.3496,-4.4303,-4.5166,-4.6009,-4.6374,-4.6681,-4.691,-4.6894,-4.6912,-4.6872,-4.6528,-4.6425,-4.641,-4.6549,-4.7149,-4.7926,-4.8225,-4.8569,-4.8895,-4.9031,-4.9245,-4.9479,-4.9732,-4.9985,-5.0121,-4.9887,-4.9635,-4.9216,-4.8252,-4.7628,-4.7093,-4.6421,-4.608,-4.6215,-4.732,-4.8897,-5.0273,-5.0887,-4.9588,-4.8387,-4.8387,0.0,0.0,0.0,-4.5861,0.0,-4.4673,-4.3742,-4.284,-4.1957,-4.1266,0.0,0.0,0.0,-4.2544,-4.2533,-4.3897,0.0,0.0,0.0,0.0,-5.1895,-5.276,-5.4049,-5.5703,-5.5703,-5.4818,-5.3183,-5.2683,-5.1818,-5.0702,-5.0702,-5.1164,-5.2087,-5.4395,-5.5992,-5.7242,-5.9511,-6.0569,-6.08,-6.08,-6.08,-6.08,-5.5511,-5.5665,-5.5665,-5.5665,-5.5665,-5.5665,-5.5684,-5.5684,-5.5703,-5.5703,-5.5684,-5.5376,-5.4568,-5.3722,-5.3203,-5.3183,-5.33,-5.3012,-5.214,-5.2201,-5.1915,0.0,0.0,-5.0587,-4.9721,-5.0548,-5.0543,-4.9674,-4.7992,-4.7084,-4.6897,-4.5095,-4.4263,-4.432,-4.5187,-4.607,-4.6836,-4.597,-4.6105,-4.6913,-4.6913,-4.6913,-4.699,-4.776,-4.8068,-4.8085,-4.8224,-4.8778,-4.9605,-5.0618,-5.1474,-5.1862,-5.0215,-5.0292,-5.1125,-5.1939,-5.2773,-5.3257,-5.2477,-5.1629,-5.0757,-4.9885,-4.8432,-4.7191,-4.7191,-4.6525,-4.637,-4.8038,-4.9763,-5.1004,-5.1004,-4.9588,-4.8387,-4.8387,0.0,0.0,0.0,-4.5775,0.0,-4.4597,-4.3667,-4.2758,-4.1893,-4.1797,0.0,0.0,0.0,-4.4275,-4.4263,-4.5124,0.0,-4.6855,-4.7682,0.0,-5.1895,-5.276,-5.4049,-5.5703,-5.5703,-5.4818,-5.3145,-5.1491,-5.0721,-5.0702,-5.0702,-5.1164,-5.2049,-5.3799,-5.5491,-5.7165,-5.8858,-6.0031,-6.08,-6.08,-6.08,-6.08,-5.5645,-5.5703,-5.5703,-5.5703,-5.5703,-5.5703,-5.5703,-5.5703,-5.5703,-5.5703,-5.5703,-5.5588,-5.5338,-5.5068,-5.4684,0.0,-5.4169,-5.3822,0.0,-5.2989,-5.2624,-5.1665,-5.1607,-5.1222,-5.0394,-5.0702,-5.0721,-5.0449,0.0,0.0,0.0,-4.8071,-4.7776,-4.778,-4.8068,-4.8336,-4.8566,-4.7663,-4.7471,-4.7721,-4.7721,-4.7721,-4.7817,-4.8663,-4.899,-4.9067,-4.972,-5.0432,-5.1202,-5.1509,-5.2183,-5.2896,-5.2954,-5.2846,-5.2758,-5.3007,-5.329,-5.3432,-5.3199,-5.2928,-5.2351,-5.0825,-5.0039,-4.9193,-4.7397,-4.7207,-4.7535,-4.8092,-4.9577,-5.0812,-5.0812,-4.9384,-4.8208,-4.8208,-4.6799,0.0,-4.57,0.0,-4.5539,-4.5269,-4.4465,-4.3816,-4.3528,-4.3008,0.0,0.0,0.0,0.0,-4.3511,0.0,0.0,0.0,-4.7952,0.0,-5.1895,-5.276,-5.4049,-5.5703,-5.5703,-5.4818,-5.3145,-5.1452,-5.0702,-5.0702,-5.0702,-5.1491,-5.2876,-5.403,-5.5838,-5.7992,-5.9088,-6.0031,-6.08,-6.08,-6.08,-6.08,-5.5703,-5.5703,-5.5703,-5.5703,-5.5703,-5.5703,-5.5703,-5.5703,-5.5703,-5.5703,-5.5703,-5.5703,-5.5703,-5.5703,0.0,-5.4991,-5.4978,-5.4651,-5.376,-5.3764,-5.3378,-5.2434,-5.2377,-5.1992,-5.1164,-5.1183,0.0,-5.1203,-5.0989,-5.0229,-4.8982,-4.8924,-4.8913,-4.8914,-4.8914,-4.8913,-4.8894,-4.8336,-4.8298,-4.8625,-4.8933,-4.926,-4.9625,-5.051,-5.0837,-5.0894,-5.1433,-5.2164,-5.2876,-5.2876,-5.3241,-5.378,-5.4339,-5.3995,-5.3522,-5.4147,-5.432,-5.4257,-5.3947,-5.387,-5.3524,-5.2066,-5.145,-5.0526,-4.7931,-4.7509,-4.774,-4.8048,-4.9221,-5.0298,-5.0625,-4.9529,-4.849,-4.8144,-4.6971,-4.597,-4.5643,-4.5586,-4.547,-4.5143,0.0,0.0,0.0,-4.3662,-4.3547,0.0,0.0,0.0,0.0,0.0,-4.678,-4.655,-4.8721,-5.0683,-5.2375,-5.326,-5.4376,-5.5684,-5.5049,-5.4049,-5.2683,-5.1318,-5.0702,-5.0702,-5.0702,-5.1645,-5.3241,-5.3799,-5.5703,-5.8357,-5.8858,-5.9762,-6.08,-6.08,-6.08,-6.08,-5.5703,-5.5703,-5.5703,0.0,-5.5703,-5.5703,-5.5703,-5.5703,-5.5703,-5.5703,-5.5703,-5.5703,-5.5703,-5.5703,-5.5703,-5.5703,0.0,0.0,-5.4626,-5.4586,-5.4201,-5.3336,-5.3282,-5.2878,-5.2011,-5.1934,-5.1896,-5.1896,-5.1083,-4.9891,-4.8356,-4.8299,-4.8279,-4.8279,-4.8279,-4.8279,-4.8279,-4.8279,-4.8759,-4.9548,-5.0356,-5.1144,-5.1914,-5.2779,-5.3106,-5.3126,-5.3183,-5.3722,-5.4414,-5.4414,-5.4414,-5.4414,-5.4416,-5.3837,-5.353,-5.5145,-5.5607,-5.5472,-5.4761,-5.4587,-5.4376,-5.351,-5.2587,-5.126,-4.8759,-4.7605,-4.7259,-4.7894,-4.8759,-4.9644,-5.0452,-4.9894,-4.9048,-4.824,-4.7375,-4.6528,-4.5701,-4.5586,-4.5297,0.0,0.0,0.0,-4.3355,-4.4006,-4.4449,0.0,0.0,0.0,0.0,0.0,-4.7433,-4.826,-4.9913,-5.1587,-5.328,-5.4087,-5.4876,-5.5588,-5.3972,-5.2741,-5.1875,-5.1068,-5.0702,-5.0702,-5.076,-5.1702,-5.3222,-5.3337,-5.5318,-5.8319,-5.8357,-5.9377,-6.08,-6.08,-6.08,-6.08,0.0,0.0,-5.5703,-5.5703,-5.5703,-5.5703,-5.5703,-5.5703,-5.5703,-5.5703,-5.5703,-5.5703,-5.5703,-5.5703,-5.5703,-5.5703,-5.5703,-5.5607,-5.5434,-5.5415,-5.5047,-5.4239,-5.4182,-5.3778,-5.2911,-5.224,-5.1895,-5.1895,-5.1086,-5.0816,-5.0987,-5.0374,-5.0067,-5.0067,-5.0067,-5.0087,-5.0067,-5.0067,-5.0202,-5.0414,-5.0606,-5.0798,-5.1068,-5.1914,-5.2222,-5.2299,-5.2972,-5.3337,-5.351,-5.351,-5.351,-5.351,-5.3512,-5.3377,-5.3414,-5.4474,-5.4782,-5.4897,-5.5299,-5.5415,-5.5222,-5.4395,-5.3049,-5.1414,-4.9529,-4.8933,-4.8509,-4.7413,-4.8375,-4.9452,-4.9663,-4.899,-4.8336,-4.8125,-4.6874,-4.5836,-4.5624,-4.5586,-4.5509,0.0,-4.5873,-4.5967,-4.5086,-4.5776,-4.6005,0.0,0.0,-4.691,-4.6894,-4.8106,-4.9202,-5.0066,-5.1086,-5.2452,-5.4184,-5.4395,-5.4607,-5.4761,-5.3703,-5.2741,-5.1875,-5.1068,-5.0702,-5.0721,-5.1356,-5.2222,-5.3299,-5.4587,-5.6376,-5.8357,-5.8973,-5.9858,-6.08,-6.08,-6.08,-6.08,-5.5703,-5.5703,-5.5703,-5.5703,-5.5703,-5.5703,-5.5703,-5.5703,-5.5703,-5.5703,-5.5703,-5.5703,-5.5703,-5.5703,-5.5703,-5.5703,-5.5703,-5.5703,-5.5703,-5.5703,-5.5511,-5.5066,-5.5047,-5.4662,-5.3793,-5.3317,-5.2703,-5.1895,-5.1087,-5.0913,-5.1334,-5.0894,-5.0702,-5.0702,-5.0702,-5.0702,-5.0702,-5.0702,-5.0914,-5.1241,-5.1241,-5.1491,-5.1895,-5.2337,-5.2491,-5.2568,-5.3029,-5.3203,-5.3203,-5.3203,-5.2953,-5.2606,-5.2606,-5.2337,-5.2222,-5.307,-5.3587,-5.4009,-5.4453,-5.4857,-5.5124,-5.5068,-5.376,-5.226,-5.1337,-4.9933,-4.8663,-4.8144,-4.8163,-4.849,-4.926,-4.8682,-4.8105,-4.8105,-4.7028,-4.6067,-4.5663,-4.5586,-4.5757,-4.6142,-4.6602,-4.6872,-4.6759,-4.7181,-4.7239,-4.6777,-4.7547,0.0,-4.8029,-4.9625,-5.0606,-5.0701,-5.1875,-5.3145,-5.4491,-5.4491,-5.4299,-5.3895,-5.3029,-5.2183,-5.1337,-5.0894,-5.0702,-5.0741,-5.1548,-5.2395,-5.3299,-5.4607,-5.6395,-5.8338,-5.8781,-5.9704,-6.08,-6.08,-6.08,-6.08,-5.5703,-5.5703,-5.5703,-5.5703,-5.5703,-5.5703,-5.5703,-5.5703,-5.5703,-5.5703,-5.5703,-5.5703,-5.5703,-5.5703,-5.5703,-5.5703,-5.5703,-5.5703,-5.5703,-5.5703,-5.5703,-5.5703,-5.5703,-5.5395,-5.4701,-5.4549,-5.3666,-5.1896,-5.1222,-5.0837,-5.0702,-5.0702,-5.0702,-5.0702,-5.0702,-5.0702,-5.0702,-5.0702,-5.1087,-5.1722,-5.1722,-5.2164,-5.2818,-5.2818,-5.2818,-5.2818,-5.2818,-5.2818,-5.2818,-5.2818,-5.2337,-5.1722,-5.1722,-5.1241,-5.0837,-5.153,-5.2241,-5.2871,-5.3124,-5.3836,-5.4662,-5.5357,-5.4549,-5.351,-5.326,-5.0952,-4.8971,-4.9336,-4.8375,-4.7875,-4.9163,-4.8682,-4.8105,-4.8105,-4.7317,-4.6451,-4.5701,0.0,-4.6065,-4.6795,-4.7122,-4.7489,-4.8048,-4.8105,-4.8144,-4.8297,-4.8856,-4.9317,-4.9587,-5.1048,-5.1645,-5.1087,-5.2587,-5.3818,-5.4664,-5.4549,-5.4068,-5.3203,-5.2318,-5.1491,-5.0702,-5.0702,-5.0702,-5.0741,-5.1548,-5.2395,-5.328,-5.426,-5.6107,-5.8319,-5.8434,-5.9435,-6.08,-6.08,-6.08,-6.08,-5.5703,-5.5703,-5.5703,-5.5703,-5.5703,-5.5703,-5.5703,-5.5703,-5.5703,-5.5703,-5.5703,-5.5703,-5.5703,-5.5703,-5.5703,-5.5703,-5.5703,-5.5703,-5.5703,-5.5703,-5.5703,-5.5703,-5.5703,-5.5645,-5.553,-5.4836,-5.3645,-5.1896,-5.178,-5.1356,-5.0702,-5.0702,-5.0702,-5.0702,-5.0702,-5.0702,-5.0702,-5.0702,-5.076,-5.0894,-5.0894,-5.0971,-5.1087,-5.1087,-5.1087,-5.1087,-5.1087,-5.1087,-5.1087,-5.1087,-5.0991,-5.0894,-5.0894,-5.0798,-5.0721,-5.0856,-5.0971,-5.1395,-5.2819,-5.3837,-5.453,-5.4664,-5.4991,-5.4934,-5.353,-5.2799,-5.1837,-4.9817,-4.9779,-4.9952,-4.949,-4.8682,-4.8105,-4.8105,-4.6817,-4.574,-4.5605,0.0,-4.6758,-4.6872,-4.8161,-4.8778,-4.8163,-4.8105,-4.8412,-4.9144,-4.8644,-4.8933,-5.0414,-5.1395,-5.2183,-5.2799,-5.378,-5.4684,-5.5511,-5.4838,-5.4068,-5.3203,-5.2318,-5.1491,-5.0702,-5.0702,-5.0702,-5.0741,-5.1548,-5.2395,-5.3318,-5.4876,-5.6607,-5.8377,-5.905,-5.9915,-6.08,-6.08,-6.08,-6.08,-5.5703,-5.5703,-5.5703,-5.5703,-5.5703,-5.5703,-5.5703,-5.5703,-5.5703,-5.5703,-5.5703,-5.5703,-5.5703,-5.5703,-5.5703,-5.5703,-5.5703,-5.5703,-5.5703,-5.5703,-5.5703,-5.5703,-5.5703,-5.5703,-5.5703,-5.4912,-5.4105,-5.3299,-5.2838,-5.2165,-5.1337,-5.1337,-5.1126,-5.0702,-5.0702,-5.0702,-5.0702,-5.0702,-5.0702,-5.0702,-5.0702,-5.0702,-5.0702,-5.0702,-5.0702,-5.0702,-5.0702,-5.0702,-5.0702,-5.0702,-5.0702,-5.0702,-5.0702,-5.0702,-5.0702,-5.0702,-5.0702,-5.0952,-5.2164,-5.2779,-5.3318,-5.426,-5.478,-5.4953,-5.4626,-5.3857,-5.2876,-5.1683,-5.1048,-5.0567,-5.0164,-4.9394,-4.8798,-4.8798,-4.7394,-4.6451,-4.6894,-4.6913,-4.7048,-4.7488,-4.8238,-4.8528,-4.8143,-4.8085,-4.8451,-4.9317,-4.9029,-4.9548,-5.126,-5.2145,-5.301,-5.3876,-5.4703,-5.5318,-5.5703,-5.4434,-5.3606,-5.3183,-5.1875,-5.1048,-5.0702,-5.0702,-5.0702,-5.0741,-5.1548,-5.2145,-5.2606,-5.3837,-5.5645,-5.7627,-5.8011,-5.9242,-6.08,-6.08,-6.08,-6.08,-5.5703,-5.5703,-5.5703,-5.5703,-5.5703,-5.5703,-5.5703,-5.5703,-5.5703,-5.5703,-5.5703,-5.5703,-5.5703,-5.5703,-5.5703,-5.5703,-5.5703,-5.5703,-5.5703,-5.5703,-5.5703,-5.5703,-5.5703,-5.5703,-5.5703,-5.5085,-5.4701,-5.4487,-5.3836,-5.3068,-5.2203,-5.1992,-5.1568,-5.0971,-5.0779,-5.0702,-5.0702,-5.0702,-5.0702,-5.0702,-5.0702,-5.0702,-5.0702,-5.0702,-5.0702,-5.0721,-5.0914,-5.0971,-5.101,-5.1202,-5.1279,-5.1279,-5.1279,-5.1279,-5.1241,-5.1049,-5.0856,-5.0818,-5.1452,-5.176,-5.2222,-5.3568,-5.4203,-5.4664,-5.528,-5.4568,-5.3741,-5.3549,-5.2472,-5.153,-5.1318,-5.0414,-4.9702,-4.9702,0.0,-4.7336,-4.7759,-4.7451,-4.7336,-4.7758,-4.7989,-4.8105,-4.8103,-4.8085,-4.8547,-4.9625,-4.9702,-5.0433,-5.2125,-5.3029,-5.3895,-5.4741,-5.5376,-5.5703,-5.5703,-5.4049,-5.3203,-5.3183,-5.1491,-5.0702,-5.0702,-5.0702,-5.0702,-5.0721,-5.1356,-5.1741,-5.1952,-5.2626,-5.4511,-5.6992,-5.6992,-5.855,-6.08,-6.08,-6.08,-6.08,-5.5703,-5.5703,-5.5703,-5.5703,-5.5703,-5.5703,-5.5703,-5.5703,-5.5703,-5.5703,-5.5703,-5.5703,-5.5703,-5.5703,-5.5703,-5.5703,-5.5703,-5.5703,-5.5703,-5.5703,-5.5703,-5.5703,-5.5703,-5.5703,-5.5703,-5.5645,-5.5261,-5.4487,-5.4451,-5.3968,-5.3082,-5.2279,-5.1857,-5.1779,-5.1029,-5.0702,-5.0702,-5.0702,-5.0702,-5.0702,-5.0702,-5.0702,-5.0702,-5.0702,-5.0702,-5.0798,-5.1548,-5.1818,-5.1933,-5.2741,-5.3029,-5.3029,-5.3029,-5.3029,-5.2856,-5.205,-5.1279,-5.0702,-5.076,-5.1337,-5.1933,-5.2068,-5.3318,-5.4511,-5.4568,-5.5068,-5.5299,-5.4549,-5.4299,-5.3973,-5.3146,-5.1703,-5.0587,-5.0587,0.0,0.0,-4.7086,-4.7585,-4.7758,-4.7067,-4.7645,-4.8105,-4.8103,-4.8105,-4.8798,-5.0471,-5.0587,-5.1337,-5.301,-5.3933,-5.478,-5.5588,-5.5665,-5.5703,-5.5703,-5.4049,-5.3203,-5.3183,-5.1491,-5.0702,-5.0702,-5.0702,-5.0702,-5.0702,-5.076,-5.1202,-5.1914,-5.1972,-5.3972,-5.6992,-5.6992,-5.855,-6.08,-6.08,-6.08,-6.08,-5.5703,-5.5703,-5.5703,-5.5703,-5.5703,-5.5703,-5.5703,-5.5703,-5.5703,-5.5703,-5.5703,-5.5703,-5.5703,-5.5703,-5.5703,-5.5703,-5.5703,-5.5703,-5.5703,-5.5703,-5.5703,-5.5703,-5.5703,-5.5703,-5.5703,-5.5703,-5.5549,-5.5241,-5.5241,-5.4816,-5.399,-5.3683,-5.3222,-5.2665,-5.1818,-5.1433,-5.1414,-5.0914,-5.0702,-5.0702,-5.0702,-5.0702,-5.0741,-5.1241,-5.1433,-5.1568,-5.2414,-5.2722,-5.276,-5.3087,-5.3203,-5.3203,-5.3203,-5.3203,-5.3029,-5.2145,-5.1683,-5.1337,-5.0837,-5.0914,-5.1279,-5.1779,-5.2414,-5.3164,-5.4241,-5.4741,-5.5011,-5.5203,-5.5241,-5.4972,-5.4166,-5.3491,-5.2528,-5.0952,0.0,-4.8606,-4.776,-4.7489,-4.7257,-4.6932,-4.7182,-4.7375,-4.7355,-4.7817,-4.8817,-5.0567,-5.1164,-5.2183,-5.3914,-5.478,-5.5376,-5.5684,-5.5703,-5.5703,-5.5703,-5.4049,-5.3203,-5.3183,-5.1491,-5.0702,-5.0702,-5.0702,-5.0702,-5.0702,-5.0702,-5.0856,-5.1164,-5.1164,-5.3145,-5.6184,-5.6184,-5.8069,-6.08,-6.08,-6.08,-6.08,-5.5703,-5.5703,-5.5703,-5.5703,-5.5703,-5.5703,-5.5703,-5.5703,-5.5703,-5.5703,-5.5703,-5.5703,-5.5703,-5.5703,-5.5703,-5.5703,-5.5703,-5.5703,-5.5703,-5.5703,-5.5703,-5.5703,-5.5703,-5.5703,-5.5703,-5.5703,-5.5703,-5.5703,-5.5703,-5.5415,-5.4878,-5.4624,-5.4182,-5.3589,-5.2683,-5.2299,-5.2279,-5.1722,-5.1491,-5.1491,-5.1491,-5.1491,-5.1548,-5.2106,-5.2318,-5.2433,-5.3299,-5.3606,-5.3645,-5.3895,-5.3991,-5.3991,-5.3991,-5.3818,-5.347,-5.2852,-5.2254,-5.1718,-5.1161,-5.0835,-5.0777,-5.1355,-5.1722,-5.2222,-5.3414,-5.4107,-5.4664,-5.5203,-5.5511,-5.553,-5.4972,-5.4662,-5.3932,-5.2183,-5.1144,-5.0279,-4.9413,-4.8817,-4.8374,-4.8124,-4.8084,-4.8084,-4.8086,-4.8817,-4.9894,-5.1375,-5.226,-5.3356,-5.4799,-5.5395,-5.5703,-5.5703,-5.5703,-5.5568,-5.5318,-5.3914,-5.3203,-5.3183,-5.1491,-5.0702,-5.0702,-5.0702,-5.0702,-5.0702,-5.0702,-5.0702,-5.0702,-5.0702,-5.2683,-5.5703,-5.5703,-5.778,-6.08,-6.08,-6.08,-6.08,-5.5703,-5.5703,-5.5703,-5.5703,-5.5703,-5.5703,-5.5703,-5.5703,-5.5703,-5.5703,-5.5703,-5.5703,-5.5703,-5.5703,-5.5703,-5.5703,-5.5703,-5.5703,-5.5703,-5.5703,-5.5703,-5.5703,-5.5703,-5.5703,-5.5703,-5.5703,-5.5703,-5.5703,-5.5703,-5.5703,-5.5684,-5.4874,-5.4507,-5.4468,-5.3601,-5.3219,-5.3222,-5.3203,-5.3203,-5.3203,-5.3203,-5.3203,-5.3203,-5.3222,-5.3222,-5.3318,-5.4203,-5.4511,-5.4626,-5.5434,-5.5703,-5.5703,-5.5703,-5.5145,-5.4468,-5.4345,-5.3081,-5.1708,-5.1698,-5.1105,-5.0517,-5.0682,-5.1298,-5.1895,-5.1914,-5.3241,-5.4472,-5.4493,-5.5126,-5.5684,-5.5684,-5.5028,-5.4509,-5.4493,-5.3763,-5.2897,-5.2011,-5.1895,-5.1587,-5.0798,-5.0699,-5.0699,-5.0721,-5.1452,-5.2258,-5.3145,-5.401,-5.4857,-5.5665,-5.5703,-5.5703,-5.5703,-5.5703,-5.5299,-5.4511,-5.3645,-5.3203,-5.3164,-5.1491,-5.0702,-5.0702,-5.0702,-5.0702,-5.0702,-5.0702,-5.0702,-5.0702,-5.0702,-5.2664,-5.5684,-5.5684,-5.778,-6.0781,-6.08,-6.08,-6.08,-5.5588,-5.5703,-5.5703,-5.5703,-5.5703,-5.5703,-5.5703,-5.5703,-5.5703,-5.5703,-5.5703,-5.5703,-5.5703,-5.5703,-5.5703,-5.5703,-5.5703,-5.5703,-5.5703,-5.5703,-5.5703,-5.5703,-5.5703,-5.5703,-5.5703,-5.5703,-5.5703,-5.5703,-5.5703,-5.5703,-5.5684,-5.5453,-5.5338,-5.5318,-5.4491,-5.4107,-5.4068,-5.3453,-5.3203,-5.3203,-5.3203,-5.3203,-5.328,-5.3876,-5.4107,-5.4222,-5.5049,-5.5338,-5.5376,-5.5607,-5.5703,-5.5703,-5.5703,-5.553,-5.5222,-5.4619,-5.364,-5.2621,-5.2015,-5.1252,-5.0663,-5.0702,-5.0875,-5.1202,-5.1779,-5.2299,-5.2856,-5.3453,-5.428,-5.4855,-5.4857,-5.5126,-5.4972,-5.378,-5.3355,-5.2701,-5.1259,-5.1067,-5.0971,-5.0741,-5.0702,-5.0914,-5.1491,-5.2315,-5.318,-5.4049,-5.4876,-5.5453,-5.5684,-5.5703,-5.5703,-5.5703,-5.5703,-5.5299,-5.4511,-5.3645,-5.2895,-5.2279,-5.1202,-5.0702,-5.0702,-5.0702,-5.0702,-5.0702,-5.0702,-5.0702,-5.0702,-5.0702,-5.1972,-5.4068,-5.5241,-5.7069,-5.9184,-6.0358,-6.08,-6.08,-5.5126,-5.5472,-5.5703,-5.5703,-5.5703,-5.5703,-5.5703,-5.5703,-5.5703,-5.5703,-5.5703,-5.5703,-5.5703,-5.5703,-5.5703,-5.5703,-5.5703,-5.5703,-5.5703,-5.5703,-5.5703,-5.5703,-5.5703,-5.5703,-5.5703,-5.5703,-5.5703,-5.5703,-5.5703,-5.5703,-5.5703,-5.5703,-5.5703,-5.5684,-5.5184,-5.4953,-5.4934,-5.4414,-5.4184,-5.4184,-5.4184,-5.4184,-5.4241,-5.4761,-5.4972,-5.503,-5.553,-5.5703,-5.5703,-5.5703,-5.5703,-5.5703,-5.5703,-5.5703,-5.5588,-5.5042,-5.4312,-5.3445,-5.2574,-5.173,-5.1045,-5.0759,-5.0702,-5.0818,-5.1318,-5.1683,-5.2049,-5.2588,-5.3376,-5.4087,-5.4434,-5.4895,-5.4991,-5.4299,-5.4201,-5.3834,-5.2836,-5.2682,-5.2682,-5.2683,-5.2683,-5.2876,-5.3356,-5.3893,-5.4413,-5.4934,-5.5434,-5.5703,-5.5703,-5.5703,-5.5703,-5.5703,-5.5395,-5.4838,-5.3991,-5.3126,-5.2433,-5.1895,-5.1087,-5.0702,-5.0702,-5.0702,-5.0702,-5.0702,-5.0702,-5.0702,-5.0702,-5.0702,-5.1895,-5.3818,-5.4838,-5.6492,-5.8473,-5.9781,-6.0281,-6.0339,-5.4376,-5.503,-5.5588,-5.5588,-5.5645,-5.5703,-5.5703,-5.5703,-5.5703,-5.5703,-5.5703,-5.5703,-5.5703,-5.5703,-5.5703,-5.5703,-5.5703,-5.5703,-5.5703,-5.5703,-5.5703,-5.5703,-5.5703,-5.5703,-5.5703,-5.5703,-5.5703,-5.5703,-5.5703,-5.5703,-5.5703,-5.5703,-5.5703,-5.5703,-5.5703,-5.5703,-5.5703,-5.5703,-5.5703,-5.5703,-5.5703,-5.5703,-5.5703,-5.5703,-5.5703,-5.5703,-5.5703,-5.5703,-5.5703,-5.5703,-5.5703,-5.5703,-5.5703,-5.5703,-5.5682,-5.5551,-5.4952,-5.4127,-5.3264,-5.2372,-5.1549,-5.0874,-5.0702,-5.0702,-5.0702,-5.1279,-5.1779,-5.1799,-5.2492,-5.3319,-5.4127,-5.4339,-5.4666,-5.5453,-5.5588,-5.5607,-5.5684,-5.5703,-5.5703,-5.5703,-5.5703,-5.5703,-5.5703,-5.5703,-5.5703,-5.5703,-5.5703,-5.5703,-5.5703,-5.5703,-5.5703,-5.5703,-5.4914,-5.4087,-5.3222,-5.2337,-5.1875,-5.1779,-5.1048,-5.0702,-5.0702,-5.0702,-5.0702,-5.0702,-5.0702,-5.0702,-5.0702,-5.0702,-5.2068,-5.4184,-5.4337,-5.5857,-5.8069,-5.8954,-5.9338,-5.9511,-5.3336,-5.4164,-5.4761,-5.4761,-5.528,-5.5703,-5.5703,-5.5703,-5.5703,-5.5703,-5.5703,-5.5703,-5.5703,-5.5703,-5.5703,-5.5703,-5.5703,-5.5703,-5.5703,-5.5703,-5.5703,-5.5703,-5.5703,-5.5703,-5.5703,-5.5703,-5.5703,-5.5703,-5.5703,-5.5703,-5.5703,-5.5703,-5.5703,-5.5703,-5.5703,-5.5703,-5.5703,-5.5703,-5.5703,-5.5703,-5.5703,-5.5703,-5.5703,-5.5703,-5.5703,-5.5703,-5.5703,-5.5703,-5.5703,-5.5703,-5.5703,-5.5703,-5.5703,-5.5703,-5.5684,-5.5682,-5.5105,-5.4278,-5.3392,-5.2527,-5.1663,-5.0894,-5.0702,-5.0702,-5.0702,-5.0818,-5.0952,-5.0972,-5.1606,-5.2241,-5.2433,-5.3029,-5.376,-5.4626,-5.4761,-5.4972,-5.5607,-5.5703,-5.5703,-5.5703,-5.5703,-5.5703,-5.5703,-5.5703,-5.5703,-5.5703,-5.5703,-5.5703,-5.5703,-5.5703,-5.5703,-5.5703,-5.4914,-5.4087,-5.3222,-5.2337,-5.1587,-5.0952,-5.0779,-5.0702,-5.0702,-5.0702,-5.0702,-5.0702,-5.0702,-5.0702,-5.0702,-5.0702,-5.1029,-5.1645,-5.2972,-5.4241,-5.5491,-5.6992,-5.7973,-5.8684,-5.2471,-5.328,-5.401,-5.4434,-5.4857,-5.5261,-5.5645,-5.5703,-5.5703,-5.5703,-5.5703,-5.5703,-5.5703,-5.5703,-5.5703,-5.5703,-5.5703,-5.5703,-5.5703,-5.5703,-5.5703,-5.5703,-5.5703,-5.5703,-5.5703,-5.5703,-5.5703,-5.5703,-5.5703,-5.5703,-5.5703,-5.5703,-5.5703,-5.5703,-5.5703,-5.5703,-5.5703,-5.5703,-5.5703,-5.5703,-5.5703,-5.5703,-5.5703,-5.5703,-5.5703,-5.5703,-5.5703,-5.5703,-5.5703,-5.5703,-5.5703,-5.5703,-5.5703,-5.5703,-5.5703,-5.5703,-5.5395,-5.4876,-5.4047,-5.3183,-5.2319,-5.1471,-5.0971,-5.0702,-5.0702,-5.0702,-5.0702,-5.0702,-5.1029,-5.1433,-5.1837,-5.2279,-5.2876,-5.3741,-5.4222,-5.4645,-5.5068,-5.5453,-5.5703,-5.5703,-5.5703,-5.5703,-5.5703,-5.5703,-5.5703,-5.5703,-5.5703,-5.5703,-5.5703,-5.5703,-5.5511,-5.5145,-5.4318,-5.3453,-5.2587,-5.176,-5.1125,-5.0702,-5.0702,-5.0702,-5.0702,-5.0702,-5.0702,-5.0702,-5.0702,-5.0702,-5.0702,-5.0702,-5.0933,-5.1356,-5.2241,-5.3106,-5.4049,-5.5318,-5.6338,-5.7184,-5.1663,-5.2395,-5.3222,-5.3933,-5.4299,-5.4722,-5.5395,-5.5607,-5.5703,-5.5703,-5.5703,-5.5703,-5.5703,-5.5703,-5.5703,-5.5703,-5.5703,-5.5703,-5.5703,-5.5703,-5.5703,-5.5703,-5.5703,-5.5703,-5.5703,-5.5703,-5.5703,-5.5703,-5.5703,-5.5703,-5.5703,-5.5703,-5.5703,-5.5703,-5.5703,-5.5703,-5.5703,-5.5703,-5.5703,-5.5703,-5.5703,-5.5703,-5.5703,-5.5703,-5.5703,-5.5703,-5.5703,-5.5703,-5.5703,-5.5703,-5.5703,-5.5703,-5.5703,-5.5703,-5.5703,-5.5703,-5.5703,-5.553,-5.472,-5.397,-5.3183,-5.2164,-5.1395,-5.0856,-5.0721,-5.0702,-5.0702,-5.0702,-5.0702,-5.0894,-5.1568,-5.1702,-5.1991,-5.2837,-5.3587,-5.4164,-5.4453,-5.5068,-5.5549,-5.5684,-5.5703,-5.5703,-5.5703,-5.5703,-5.5703,-5.5703,-5.5703,-5.5647,-5.5514,-5.5514,-5.515,-5.4361,-5.3494,-5.2705,-5.1992,-5.1163,-5.074,-5.074,-5.074,-5.074,-5.0702,-5.0702,-5.0702,-5.0702,-5.0702,-5.0702,-5.0702,-5.0702,-5.1087,-5.1702,-5.1702,-5.2222,-5.3087,-5.3953,-5.478,-5.5588,-5.0797,-5.1529,-5.2125,-5.2241,-5.351,-5.453,-5.4645,-5.5241,-5.5703,-5.5703,-5.5703,-5.5703,-5.5703,-5.5703,-5.5703,-5.5703,-5.5703,-5.5703,-5.5703,-5.5703,-5.5703,-5.5703,-5.5703,-5.5703,-5.5703,-5.5703,-5.5703,-5.5703,-5.5703,-5.5703,-5.5703,-5.5703,-5.5703,-5.5703,-5.5703,-5.5703,-5.5703,-5.5703,-5.5703,-5.5703,-5.5703,-5.5703,-5.5703,-5.5703,-5.5703,-5.5703,-5.5703,-5.5703,-5.5703,-5.5703,-5.5703,-5.5703,-5.5703,-5.5703,-5.5703,-5.5703,-5.5703,-5.553,-5.472,-5.4414,-5.3935,-5.2318,-5.1818,-5.1568,-5.0856,-5.0702,-5.0702,-5.0702,-5.0702,-5.0721,-5.0837,-5.0856,-5.1125,-5.1952,-5.2183,-5.2779,-5.428,-5.4587,-5.4914,-5.5607,-5.5703,-5.5703,-5.5703,-5.5703,-5.5703,-5.5703,-5.5703,-5.542,-5.4785,-5.4747,-5.4413,-5.3658,-5.2845,-5.2361,-5.2244,-5.1392,-5.0961,-5.0961,-5.0961,-5.0858,-5.0702,-5.0702,-5.0702,-5.0702,-5.0702,-5.0702,-5.0702,-5.0702,-5.076,-5.0856,-5.0856,-5.1356,-5.2183,-5.3049,-5.3914,-5.4684,-5.0663,-5.0991,-5.1375,-5.1818,-5.2549,-5.3222,-5.3703,-5.4087,-5.4299,-5.4299,-5.4722,-5.4838,-5.4357,-5.4741,-5.5203,-5.5665,-5.5703,-5.5703,-5.5703,-5.5703,-5.5703,-5.5703,-5.5703,-5.5703,-5.5703,-5.5703,-5.5703,-5.5703,-5.5703,-5.5703,-5.5703,-5.5703,-5.5703,-5.5703,-5.5703,-5.5703,-5.5703,-5.5703,-5.5703,-5.5703,-5.5703,-5.5703,-5.5703,-5.5703,-5.5703,-5.5703,-5.5703,-5.5703,-5.5703,-5.5703,-5.6011,-5.6338,-5.5838,-5.603,-5.6338,-5.5838,-5.5703,-5.5626,-5.528,-5.4836,-5.4337,-5.3549,-5.2626,-5.1818,-5.1452,-5.101,-5.0702,-5.0702,-5.0702,-5.0702,-5.0702,-5.0702,-5.0818,-5.1164,-5.1606,-5.2183,-5.2953,-5.3472,-5.4087,-5.4934,-5.5434,-5.5703,-5.5703,-5.5703,-5.5703,-5.5703,-5.528,-5.49,-5.4611,-5.4165,-5.3597,-5.285,-5.2482,-5.2056,-5.1585,-5.1197,-5.1004,-5.1004,-5.1004,-5.0947,-5.0858,-5.0858,-5.0858,-5.0858,-5.0858,-5.0858,-5.0858,-5.0858,-5.0858,-5.0858,-5.0791,-5.0952,-5.1337,-5.2183,-5.2433,-5.2433]}]]